Wetterdaten: Donnerstag, 05.10.2017
Datum Zeit Temp. A. Pool Temp. Feuchte A. Luftdruck Regen Wind Richtung Richtung Sonnenschein ET UV Solar Taupunkt Windchill Windben Empfang
05.10.2017 00:00 10,7 C 13,3 C 89 % 1020,2 hPa 0,0 l/m 7,3 km/h (2 Bft) SW 235 0 min 0,000 mm 0,0 UV-I 0 W/m 9,0 C 10,1 C 11,3 km/h (2 Bft) 97,56 %
05.10.2017 00:02 10,7 C 13,3 C 89 % 1020,3 hPa 0,0 l/m 8,5 km/h (2 Bft) W-SW 242 0 min 0,000 mm 0,0 UV-I 0 W/m 9,0 C 9,3 C 12,9 km/h (3 Bft) 93,18 %
05.10.2017 00:04 10,7 C 12,8 C 89 % 1020,2 hPa 0,0 l/m 10,8 km/h (2 Bft) W 263 0 min 0,000 mm 0,0 UV-I 0 W/m 9,0 C 7,9 C 17,7 km/h (3 Bft) 97,22 %
05.10.2017 00:06 10,7 C 13,3 C 89 % 1020,2 hPa 0,0 l/m 7,6 km/h (2 Bft) W-SW 238 0 min 0,000 mm 0,0 UV-I 0 W/m 9,0 C 9,9 C 14,5 km/h (3 Bft) 96,36 %
05.10.2017 00:08 10,8 C 13,3 C 89 % 1020,3 hPa 0,0 l/m 8,6 km/h (2 Bft) W-SW 252 0 min 0,000 mm 0,0 UV-I 0 W/m 9,1 C 9,3 C 12,9 km/h (3 Bft) 98,00 %
05.10.2017 00:10 10,8 C 13,3 C 89 % 1020,2 hPa 0,0 l/m 8,7 km/h (2 Bft) W 261 0 min 0,000 mm 0,0 UV-I 0 W/m 9,1 C 9,2 C 12,9 km/h (3 Bft) 97,62 %
05.10.2017 00:12 10,8 C 12,8 C 88 % 1020,3 hPa 0,0 l/m 9,7 km/h (2 Bft) W-SW 242 0 min 0,000 mm 0,0 UV-I 0 W/m 8,9 C 8,6 C 12,9 km/h (3 Bft) 97,87 %
05.10.2017 00:14 10,8 C 12,8 C 88 % 1020,3 hPa 0,0 l/m 8,5 km/h (2 Bft) SW 228 0 min 0,000 mm 0,0 UV-I 0 W/m 8,9 C 9,4 C 12,9 km/h (3 Bft) 98,11 %
05.10.2017 00:16 10,9 C 12,8 C 88 % 1020,3 hPa 0,0 l/m 9,9 km/h (2 Bft) SW 221 0 min 0,000 mm 0,0 UV-I 0 W/m 9,0 C 8,6 C 12,9 km/h (3 Bft) 97,56 %
05.10.2017 00:18 10,9 C 12,8 C 88 % 1020,2 hPa 0,0 l/m 9,6 km/h (2 Bft) W-SW 248 0 min 0,000 mm 0,0 UV-I 0 W/m 9,0 C 8,8 C 14,5 km/h (3 Bft) 97,56 %
05.10.2017 00:20 10,9 C 12,8 C 88 % 1020,2 hPa 0,0 l/m 10,1 km/h (2 Bft) SW 228 0 min 0,000 mm 0,0 UV-I 0 W/m 9,0 C 8,5 C 14,5 km/h (3 Bft) 98,00 %
05.10.2017 00:22 10,9 C 12,8 C 88 % 1020,2 hPa 0,0 l/m 9,1 km/h (2 Bft) W-SW 241 0 min 0,000 mm 0,0 UV-I 0 W/m 9,0 C 9,1 C 12,9 km/h (3 Bft) 97,87 %
05.10.2017 00:24 11,0 C 12,8 C 87 % 1020,0 hPa 0,0 l/m 9,2 km/h (2 Bft) S-SW 194 0 min 0,000 mm 0,0 UV-I 0 W/m 8,9 C 9,2 C 12,9 km/h (3 Bft) 98,11 %
05.10.2017 00:26 11,0 C 12,8 C 87 % 1020,0 hPa 0,0 l/m 9,2 km/h (2 Bft) S-SW 205 0 min 0,000 mm 0,0 UV-I 0 W/m 8,9 C 9,2 C 16,1 km/h (3 Bft) 97,56 %
05.10.2017 00:28 11,1 C 12,8 C 87 % 1019,9 hPa 0,0 l/m 9,7 km/h (2 Bft) SW 236 0 min 0,000 mm 0,0 UV-I 0 W/m 9,0 C 9,0 C 16,1 km/h (3 Bft) 98,00 %
05.10.2017 00:30 11,1 C 12,8 C 87 % 1019,9 hPa 0,0 l/m 11,5 km/h (2 Bft) SW 214 0 min 0,000 mm 0,0 UV-I 0 W/m 9,0 C 8,0 C 16,1 km/h (3 Bft) 97,56 %
05.10.2017 00:32 11,2 C 12,8 C 87 % 1019,9 hPa 0,0 l/m 12,3 km/h (3 Bft) SW 232 0 min 0,000 mm 0,0 UV-I 0 W/m 9,1 C 7,8 C 19,3 km/h (3 Bft) 96,23 %
05.10.2017 00:34 11,2 C 12,8 C 87 % 1019,9 hPa 0,0 l/m 10,8 km/h (2 Bft) SW 229 0 min 0,000 mm 0,0 UV-I 0 W/m 9,1 C 8,5 C 14,5 km/h (3 Bft) 95,74 %
05.10.2017 00:36 11,2 C 12,8 C 86 % 1019,9 hPa 0,0 l/m 9,2 km/h (2 Bft) W-SW 245 0 min 0,000 mm 0,0 UV-I 0 W/m 8,9 C 9,4 C 12,9 km/h (3 Bft) 95,12 %
05.10.2017 00:38 11,2 C 12,8 C 86 % 1019,8 hPa 0,0 l/m 9,1 km/h (2 Bft) S-SW 200 0 min 0,000 mm 0,0 UV-I 0 W/m 8,9 C 9,4 C 14,5 km/h (3 Bft) 97,87 %
05.10.2017 00:40 11,2 C 12,8 C 86 % 1019,8 hPa 0,0 l/m 8,4 km/h (2 Bft) SW 235 0 min 0,000 mm 0,0 UV-I 0 W/m 8,9 C 9,9 C 12,9 km/h (3 Bft) 94,64 %
05.10.2017 00:42 11,2 C 12,8 C 86 % 1019,8 hPa 0,0 l/m 9,0 km/h (2 Bft) W-SW 250 0 min 0,000 mm 0,0 UV-I 0 W/m 8,9 C 9,5 C 14,5 km/h (3 Bft) 97,37 %
05.10.2017 00:44 11,2 C 12,8 C 86 % 1019,8 hPa 0,0 l/m 8,9 km/h (2 Bft) W-SW 252 0 min 0,000 mm 0,0 UV-I 0 W/m 8,9 C 9,6 C 12,9 km/h (3 Bft) 96,00 %
05.10.2017 00:46 11,2 C 12,8 C 86 % 1019,8 hPa 0,0 l/m 10,3 km/h (2 Bft) W-SW 250 0 min 0,000 mm 0,0 UV-I 0 W/m 8,9 C 8,8 C 16,1 km/h (3 Bft) 98,11 %
05.10.2017 00:48 11,2 C 12,8 C 86 % 1019,8 hPa 0,0 l/m 9,7 km/h (2 Bft) W 264 0 min 0,000 mm 0,0 UV-I 0 W/m 8,9 C 9,1 C 14,5 km/h (3 Bft) 97,44 %
05.10.2017 00:50 11,2 C 12,8 C 86 % 1019,8 hPa 0,0 l/m 10,0 km/h (2 Bft) SW 223 0 min 0,000 mm 0,0 UV-I 0 W/m 8,9 C 8,9 C 16,1 km/h (3 Bft) 97,87 %
05.10.2017 00:52 11,2 C 12,8 C 86 % 1019,8 hPa 0,0 l/m 8,1 km/h (2 Bft) W-SW 245 0 min 0,000 mm 0,0 UV-I 0 W/m 8,9 C 10,0 C 12,9 km/h (3 Bft) 96,23 %
05.10.2017 00:54 11,2 C 12,8 C 86 % 1019,8 hPa 0,0 l/m 8,2 km/h (2 Bft) SW 232 0 min 0,000 mm 0,0 UV-I 0 W/m 8,9 C 10,0 C 12,9 km/h (3 Bft) 100,00 %
05.10.2017 00:56 11,2 C 12,8 C 86 % 1019,7 hPa 0,0 l/m 10,1 km/h (2 Bft) W-SW 252 0 min 0,000 mm 0,0 UV-I 0 W/m 8,9 C 8,9 C 16,1 km/h (3 Bft) 100,00 %
05.10.2017 00:58 11,2 C 12,8 C 86 % 1019,7 hPa 0,0 l/m 8,7 km/h (2 Bft) W-SW 240 0 min 0,000 mm 0,0 UV-I 0 W/m 8,9 C 9,7 C 12,9 km/h (3 Bft) 100,00 %
05.10.2017 01:00 11,2 C 12,8 C 85 % 1019,7 hPa 0,0 l/m 11,0 km/h (2 Bft) W-SW 256 0 min 0,000 mm 0,0 UV-I 0 W/m 8,8 C 8,4 C 16,1 km/h (3 Bft) 97,56 %
05.10.2017 01:02 11,3 C 12,8 C 85 % 1019,7 hPa 0,0 l/m 10,4 km/h (2 Bft) SW 225 0 min 0,025 mm 0,0 UV-I 0 W/m 8,9 C 8,8 C 19,3 km/h (3 Bft) 94,34 %
05.10.2017 01:04 11,3 C 12,8 C 85 % 1019,6 hPa 0,0 l/m 10,0 km/h (2 Bft) SW 221 0 min 0,000 mm 0,0 UV-I 0 W/m 8,9 C 9,0 C 20,9 km/h (4 Bft) 98,00 %
05.10.2017 01:06 11,3 C 12,8 C 85 % 1019,6 hPa 0,0 l/m 9,5 km/h (2 Bft) SW 225 0 min 0,000 mm 0,0 UV-I 0 W/m 8,9 C 9,3 C 14,5 km/h (3 Bft) 95,12 %
05.10.2017 01:08 11,3 C 12,8 C 84 % 1019,7 hPa 0,0 l/m 9,6 km/h (2 Bft) SW 224 0 min 0,000 mm 0,0 UV-I 0 W/m 8,7 C 9,3 C 14,5 km/h (3 Bft) 96,23 %
05.10.2017 01:10 11,3 C 12,8 C 84 % 1019,6 hPa 0,0 l/m 9,9 km/h (2 Bft) SW 230 0 min 0,000 mm 0,0 UV-I 0 W/m 8,7 C 9,1 C 17,7 km/h (3 Bft) 97,37 %
05.10.2017 01:12 11,3 C 12,8 C 84 % 1019,6 hPa 0,0 l/m 12,7 km/h (3 Bft) W-SW 250 0 min 0,000 mm 0,0 UV-I 0 W/m 8,7 C 7,7 C 17,7 km/h (3 Bft) 96,43 %
05.10.2017 01:14 11,3 C 12,8 C 84 % 1019,6 hPa 0,0 l/m 9,2 km/h (2 Bft) W-SW 237 0 min 0,000 mm 0,0 UV-I 0 W/m 8,7 C 9,5 C 12,9 km/h (3 Bft) 94,00 %
05.10.2017 01:16 11,4 C 12,8 C 84 % 1019,6 hPa 0,0 l/m 10,1 km/h (2 Bft) SW 231 0 min 0,000 mm 0,0 UV-I 0 W/m 8,8 C 9,1 C 14,5 km/h (3 Bft) 97,37 %
05.10.2017 01:18 11,3 C 12,8 C 84 % 1019,6 hPa 0,0 l/m 11,4 km/h (2 Bft) W-SW 244 0 min 0,000 mm 0,0 UV-I 0 W/m 8,7 C 8,3 C 14,5 km/h (3 Bft) 96,23 %
05.10.2017 01:20 11,3 C 12,8 C 84 % 1019,6 hPa 0,0 l/m 11,7 km/h (2 Bft) SW 234 0 min 0,000 mm 0,0 UV-I 0 W/m 8,7 C 8,2 C 19,3 km/h (3 Bft) 98,00 %
05.10.2017 01:22 11,4 C 12,8 C 84 % 1019,6 hPa 0,0 l/m 10,2 km/h (2 Bft) SW 227 0 min 0,000 mm 0,0 UV-I 0 W/m 8,8 C 9,0 C 16,1 km/h (3 Bft) 97,73 %
05.10.2017 01:24 11,4 C 12,8 C 84 % 1019,6 hPa 0,0 l/m 9,1 km/h (2 Bft) W-SW 247 0 min 0,000 mm 0,0 UV-I 0 W/m 8,8 C 9,6 C 12,9 km/h (3 Bft) 97,73 %
05.10.2017 01:26 11,4 C 12,8 C 84 % 1019,6 hPa 0,0 l/m 11,0 km/h (2 Bft) SW 235 0 min 0,000 mm 0,0 UV-I 0 W/m 8,8 C 8,6 C 19,3 km/h (3 Bft) 97,62 %
05.10.2017 01:28 11,4 C 12,8 C 84 % 1019,6 hPa 0,0 l/m 12,2 km/h (2 Bft) SW 233 0 min 0,000 mm 0,0 UV-I 0 W/m 8,8 C 8,0 C 19,3 km/h (3 Bft) 98,18 %
05.10.2017 01:30 11,4 C 12,8 C 84 % 1019,7 hPa 0,0 l/m 10,2 km/h (2 Bft) W-SW 240 0 min 0,000 mm 0,0 UV-I 0 W/m 8,8 C 9,0 C 16,1 km/h (3 Bft) 95,00 %
05.10.2017 01:32 11,4 C 12,8 C 84 % 1019,8 hPa 0,0 l/m 11,7 km/h (2 Bft) SW 231 0 min 0,000 mm 0,0 UV-I 0 W/m 8,8 C 8,3 C 16,1 km/h (3 Bft) 97,73 %
05.10.2017 01:34 11,4 C 12,8 C 84 % 1019,7 hPa 0,0 l/m 14,2 km/h (3 Bft) SW 221 0 min 0,000 mm 0,0 UV-I 0 W/m 8,8 C 7,2 C 19,3 km/h (3 Bft) 96,61 %
05.10.2017 01:36 11,4 C 12,8 C 84 % 1019,7 hPa 0,0 l/m 14,0 km/h (3 Bft) SW 231 0 min 0,000 mm 0,0 UV-I 0 W/m 8,8 C 7,2 C 19,3 km/h (3 Bft) 97,14 %
05.10.2017 01:38 11,4 C 12,8 C 83 % 1019,8 hPa 0,0 l/m 11,5 km/h (2 Bft) W 259 0 min 0,000 mm 0,0 UV-I 0 W/m 8,6 C 8,4 C 19,3 km/h (3 Bft) 100,00 %
05.10.2017 01:40 11,4 C 12,8 C 83 % 1019,7 hPa 0,0 l/m 10,7 km/h (2 Bft) W-SW 238 0 min 0,000 mm 0,0 UV-I 0 W/m 8,6 C 8,8 C 17,7 km/h (3 Bft) 100,00 %
05.10.2017 01:42 11,5 C 12,8 C 83 % 1019,8 hPa 0,0 l/m 12,2 km/h (2 Bft) W-SW 244 0 min 0,000 mm 0,0 UV-I 0 W/m 8,7 C 8,1 C 17,7 km/h (3 Bft) 100,00 %
05.10.2017 01:44 11,6 C 12,8 C 83 % 1019,7 hPa 0,0 l/m 12,6 km/h (3 Bft) SW 236 0 min 0,000 mm 0,0 UV-I 0 W/m 8,8 C 8,1 C 17,7 km/h (3 Bft) 98,21 %
05.10.2017 01:46 11,6 C 12,8 C 83 % 1019,8 hPa 0,0 l/m 14,1 km/h (3 Bft) W-SW 244 0 min 0,000 mm 0,0 UV-I 0 W/m 8,8 C 7,4 C 17,7 km/h (3 Bft) 100,00 %
05.10.2017 01:48 11,7 C 12,8 C 83 % 1019,8 hPa 0,0 l/m 13,3 km/h (3 Bft) W 276 0 min 0,000 mm 0,0 UV-I 0 W/m 8,9 C 7,9 C 22,5 km/h (4 Bft) 100,00 %
05.10.2017 01:50 11,7 C 12,8 C 82 % 1019,8 hPa 0,0 l/m 11,7 km/h (2 Bft) W-SW 254 0 min 0,000 mm 0,0 UV-I 0 W/m 8,7 C 8,6 C 17,7 km/h (3 Bft) 98,00 %
05.10.2017 01:52 11,8 C 12,8 C 82 % 1019,7 hPa 0,0 l/m 12,3 km/h (3 Bft) W-SW 250 0 min 0,000 mm 0,0 UV-I 0 W/m 8,8 C 8,4 C 17,7 km/h (3 Bft) 100,00 %
05.10.2017 01:54 11,8 C 12,8 C 82 % 1019,8 hPa 0,0 l/m 13,6 km/h (3 Bft) W 261 0 min 0,000 mm 0,0 UV-I 0 W/m 8,8 C 7,9 C 16,1 km/h (3 Bft) 100,00 %
05.10.2017 01:56 11,8 C 12,8 C 82 % 1019,8 hPa 0,0 l/m 9,6 km/h (2 Bft) SW 229 0 min 0,000 mm 0,0 UV-I 0 W/m 8,8 C 9,8 C 14,5 km/h (3 Bft) 100,00 %
05.10.2017 01:58 11,8 C 12,8 C 82 % 1019,8 hPa 0,0 l/m 9,5 km/h (2 Bft) SW 223 0 min 0,000 mm 0,0 UV-I 0 W/m 8,8 C 9,9 C 16,1 km/h (3 Bft) 100,00 %
05.10.2017 02:00 11,9 C 12,8 C 82 % 1019,8 hPa 0,0 l/m 11,0 km/h (2 Bft) SW 221 0 min 0,026 mm 0,0 UV-I 0 W/m 8,9 C 9,2 C 16,1 km/h (3 Bft) 100,00 %
05.10.2017 02:02 11,9 C 12,8 C 82 % 1019,8 hPa 0,0 l/m 9,0 km/h (2 Bft) S-SW 194 0 min 0,000 mm 0,0 UV-I 0 W/m 8,9 C 10,2 C 12,9 km/h (3 Bft) 98,00 %
05.10.2017 02:04 11,9 C 12,8 C 82 % 1019,9 hPa 0,0 l/m 9,4 km/h (2 Bft) W-SW 241 0 min 0,000 mm 0,0 UV-I 0 W/m 8,9 C 10,0 C 14,5 km/h (3 Bft) 100,00 %
05.10.2017 02:06 11,9 C 12,8 C 82 % 1019,9 hPa 0,0 l/m 8,1 km/h (2 Bft) W 259 0 min 0,000 mm 0,0 UV-I 0 W/m 8,9 C 10,8 C 14,5 km/h (3 Bft) 100,00 %
05.10.2017 02:08 11,9 C 12,8 C 82 % 1019,8 hPa 0,0 l/m 9,3 km/h (2 Bft) W-SW 258 0 min 0,000 mm 0,0 UV-I 0 W/m 8,9 C 10,1 C 12,9 km/h (3 Bft) 100,00 %
05.10.2017 02:10 11,9 C 12,8 C 82 % 1019,9 hPa 0,0 l/m 8,9 km/h (2 Bft) W-SW 254 0 min 0,000 mm 0,0 UV-I 0 W/m 8,9 C 10,3 C 14,5 km/h (3 Bft) 100,00 %
05.10.2017 02:12 11,9 C 12,8 C 82 % 1019,9 hPa 0,0 l/m 10,8 km/h (2 Bft) W 261 0 min 0,000 mm 0,0 UV-I 0 W/m 8,9 C 9,3 C 16,1 km/h (3 Bft) 100,00 %
05.10.2017 02:14 11,9 C 12,8 C 82 % 1019,8 hPa 0,0 l/m 10,5 km/h (2 Bft) W 268 0 min 0,000 mm 0,0 UV-I 0 W/m 8,9 C 9,4 C 14,5 km/h (3 Bft) 100,00 %
05.10.2017 02:16 11,9 C 12,8 C 82 % 1019,8 hPa 0,0 l/m 12,5 km/h (3 Bft) W 261 0 min 0,000 mm 0,0 UV-I 0 W/m 8,9 C 8,5 C 17,7 km/h (3 Bft) 100,00 %
05.10.2017 02:18 11,9 C 12,8 C 82 % 1019,8 hPa 0,0 l/m 10,9 km/h (2 Bft) SW 235 0 min 0,000 mm 0,0 UV-I 0 W/m 8,9 C 9,2 C 19,3 km/h (3 Bft) 100,00 %
05.10.2017 02:20 12,0 C 12,8 C 82 % 1019,7 hPa 0,0 l/m 11,3 km/h (2 Bft) SW 229 0 min 0,000 mm 0,0 UV-I 0 W/m 9,0 C 9,1 C 19,3 km/h (3 Bft) 100,00 %
05.10.2017 02:22 12,0 C 12,8 C 81 % 1019,7 hPa 0,0 l/m 12,9 km/h (3 Bft) SW 226 0 min 0,000 mm 0,0 UV-I 0 W/m 8,8 C 8,4 C 20,9 km/h (4 Bft) 100,00 %
05.10.2017 02:24 12,1 C 12,8 C 81 % 1019,7 hPa 0,0 l/m 10,8 km/h (2 Bft) W-SW 254 0 min 0,000 mm 0,0 UV-I 0 W/m 8,9 C 9,5 C 16,1 km/h (3 Bft) 97,56 %
05.10.2017 02:26 12,1 C 12,8 C 81 % 1019,6 hPa 0,0 l/m 12,5 km/h (3 Bft) W-SW 246 0 min 0,000 mm 0,0 UV-I 0 W/m 8,9 C 8,7 C 19,3 km/h (3 Bft) 100,00 %
05.10.2017 02:28 12,1 C 12,8 C 81 % 1019,6 hPa 0,0 l/m 10,1 km/h (2 Bft) W-SW 247 0 min 0,000 mm 0,0 UV-I 0 W/m 8,9 C 9,9 C 16,1 km/h (3 Bft) 100,00 %
05.10.2017 02:30 12,2 C 12,8 C 81 % 1019,7 hPa 0,0 l/m 12,7 km/h (3 Bft) W 259 0 min 0,000 mm 0,0 UV-I 0 W/m 9,0 C 8,7 C 17,7 km/h (3 Bft) 98,00 %
05.10.2017 02:32 12,2 C 12,8 C 81 % 1019,8 hPa 0,0 l/m 10,8 km/h (2 Bft) W-SW 245 0 min 0,000 mm 0,0 UV-I 0 W/m 9,0 C 9,6 C 14,5 km/h (3 Bft) 100,00 %
05.10.2017 02:34 12,2 C 12,8 C 80 % 1019,8 hPa 0,0 l/m 13,4 km/h (3 Bft) SW 218 0 min 0,000 mm 0,0 UV-I 0 W/m 8,9 C 8,4 C 19,3 km/h (3 Bft) 100,00 %
05.10.2017 02:36 12,3 C 12,8 C 80 % 1019,8 hPa 0,0 l/m 11,7 km/h (2 Bft) SW 222 0 min 0,000 mm 0,0 UV-I 0 W/m 8,9 C 9,3 C 17,7 km/h (3 Bft) 100,00 %
05.10.2017 02:38 12,3 C 12,8 C 80 % 1019,8 hPa 0,0 l/m 9,6 km/h (2 Bft) W-SW 242 0 min 0,000 mm 0,0 UV-I 0 W/m 8,9 C 10,3 C 14,5 km/h (3 Bft) 100,00 %
05.10.2017 02:40 12,3 C 12,8 C 80 % 1019,9 hPa 0,0 l/m 9,7 km/h (2 Bft) W-SW 240 0 min 0,000 mm 0,0 UV-I 0 W/m 8,9 C 10,3 C 14,5 km/h (3 Bft) 100,00 %
05.10.2017 02:42 12,3 C 12,8 C 80 % 1019,8 hPa 0,0 l/m 9,8 km/h (2 Bft) W-SW 246 0 min 0,000 mm 0,0 UV-I 0 W/m 8,9 C 10,2 C 16,1 km/h (3 Bft) 100,00 %
05.10.2017 02:44 12,3 C 12,8 C 80 % 1019,8 hPa 0,0 l/m 11,6 km/h (2 Bft) S-SW 198 0 min 0,000 mm 0,0 UV-I 0 W/m 8,9 C 9,3 C 19,3 km/h (3 Bft) 100,00 %
05.10.2017 02:46 12,2 C 12,8 C 80 % 1019,8 hPa 0,0 l/m 11,2 km/h (2 Bft) W-NW 284 0 min 0,000 mm 0,0 UV-I 0 W/m 8,9 C 9,4 C 20,9 km/h (4 Bft) 100,00 %
05.10.2017 02:48 12,3 C 12,8 C 80 % 1019,8 hPa 0,0 l/m 11,0 km/h (2 Bft) SW 229 0 min 0,000 mm 0,0 UV-I 0 W/m 8,9 C 9,6 C 16,1 km/h (3 Bft) 100,00 %
05.10.2017 02:50 12,3 C 12,8 C 80 % 1019,8 hPa 0,0 l/m 11,4 km/h (2 Bft) SW 225 0 min 0,000 mm 0,0 UV-I 0 W/m 8,9 C 9,4 C 19,3 km/h (3 Bft) 100,00 %
05.10.2017 02:52 12,3 C 12,8 C 80 % 1019,8 hPa 0,0 l/m 9,5 km/h (2 Bft) W-SW 252 0 min 0,000 mm 0,0 UV-I 0 W/m 8,9 C 10,4 C 17,7 km/h (3 Bft) 100,00 %
05.10.2017 02:54 12,3 C 12,8 C 80 % 1019,8 hPa 0,0 l/m 10,1 km/h (2 Bft) W-SW 238 0 min 0,000 mm 0,0 UV-I 0 W/m 8,9 C 10,1 C 17,7 km/h (3 Bft) 100,00 %
05.10.2017 02:56 12,3 C 12,8 C 80 % 1019,8 hPa 0,0 l/m 9,7 km/h (2 Bft) W 273 0 min 0,000 mm 0,0 UV-I 0 W/m 8,9 C 10,3 C 12,9 km/h (3 Bft) 100,00 %
05.10.2017 02:58 12,3 C 12,8 C 80 % 1019,8 hPa 0,0 l/m 11,9 km/h (2 Bft) W 260 0 min 0,000 mm 0,0 UV-I 0 W/m 8,9 C 9,2 C 16,1 km/h (3 Bft) 100,00 %
05.10.2017 03:00 12,3 C 12,8 C 80 % 1019,8 hPa 0,0 l/m 9,7 km/h (2 Bft) W 263 0 min 0,025 mm 0,0 UV-I 0 W/m 8,9 C 10,3 C 12,9 km/h (3 Bft) 100,00 %
05.10.2017 03:02 12,3 C 12,8 C 80 % 1019,8 hPa 0,0 l/m 13,1 km/h (3 Bft) W-SW 240 0 min 0,000 mm 0,0 UV-I 0 W/m 8,9 C 8,7 C 20,9 km/h (4 Bft) 100,00 %
05.10.2017 03:04 12,3 C 12,8 C 80 % 1019,7 hPa 0,0 l/m 11,8 km/h (2 Bft) S-SW 207 0 min 0,000 mm 0,0 UV-I 0 W/m 8,9 C 9,3 C 17,7 km/h (3 Bft) 100,00 %
05.10.2017 03:06 12,3 C 12,8 C 80 % 1019,7 hPa 0,0 l/m 14,4 km/h (3 Bft) SW 236 0 min 0,000 mm 0,0 UV-I 0 W/m 8,9 C 8,2 C 22,5 km/h (4 Bft) 97,37 %
05.10.2017 03:08 12,3 C 12,8 C 80 % 1019,5 hPa 0,0 l/m 11,4 km/h (2 Bft) SW 219 0 min 0,000 mm 0,0 UV-I 0 W/m 8,9 C 9,4 C 19,3 km/h (3 Bft) 98,11 %
05.10.2017 03:10 12,3 C 12,8 C 80 % 1019,4 hPa 0,0 l/m 12,4 km/h (3 Bft) SW 235 0 min 0,000 mm 0,0 UV-I 0 W/m 8,9 C 9,0 C 20,9 km/h (4 Bft) 97,56 %
05.10.2017 03:12 12,3 C 12,8 C 80 % 1019,4 hPa 0,0 l/m 12,4 km/h (3 Bft) S-SW 204 0 min 0,000 mm 0,0 UV-I 0 W/m 8,9 C 9,0 C 19,3 km/h (3 Bft) 95,12 %
05.10.2017 03:14 12,3 C 12,8 C 80 % 1019,3 hPa 0,0 l/m 13,9 km/h (3 Bft) SW 219 0 min 0,000 mm 0,0 UV-I 0 W/m 8,9 C 8,4 C 20,9 km/h (4 Bft) 96,92 %
05.10.2017 03:16 12,3 C 12,8 C 80 % 1019,3 hPa 0,0 l/m 12,3 km/h (3 Bft) W-SW 248 0 min 0,000 mm 0,0 UV-I 0 W/m 8,9 C 9,0 C 19,3 km/h (3 Bft) 97,56 %
05.10.2017 03:18 12,3 C 12,8 C 80 % 1019,3 hPa 0,0 l/m 11,9 km/h (2 Bft) SW 225 0 min 0,000 mm 0,0 UV-I 0 W/m 8,9 C 9,2 C 17,7 km/h (3 Bft) 96,00 %
05.10.2017 03:20 12,3 C 12,8 C 80 % 1019,2 hPa 0,0 l/m 12,2 km/h (2 Bft) SW 224 0 min 0,000 mm 0,0 UV-I 0 W/m 8,9 C 9,1 C 17,7 km/h (3 Bft) 97,56 %
05.10.2017 03:22 12,2 C 12,8 C 80 % 1019,1 hPa 0,0 l/m 11,3 km/h (2 Bft) SW 232 0 min 0,000 mm 0,0 UV-I 0 W/m 8,9 C 9,4 C 16,1 km/h (3 Bft) 98,21 %
05.10.2017 03:24 12,2 C 12,8 C 80 % 1019,1 hPa 0,0 l/m 10,8 km/h (2 Bft) SW 223 0 min 0,000 mm 0,0 UV-I 0 W/m 8,9 C 9,6 C 16,1 km/h (3 Bft) 97,56 %
05.10.2017 03:26 12,2 C 12,8 C 80 % 1019,1 hPa 0,0 l/m 12,6 km/h (3 Bft) S-SW 203 0 min 0,000 mm 0,0 UV-I 0 W/m 8,9 C 8,8 C 17,7 km/h (3 Bft) 97,62 %
05.10.2017 03:28 12,2 C 12,8 C 80 % 1019,2 hPa 0,0 l/m 12,1 km/h (2 Bft) S 191 0 min 0,000 mm 0,0 UV-I 0 W/m 8,9 C 9,0 C 17,7 km/h (3 Bft) 96,00 %
05.10.2017 03:30 12,2 C 12,8 C 79 % 1019,1 hPa 0,0 l/m 13,0 km/h (3 Bft) SW 228 0 min 0,000 mm 0,0 UV-I 0 W/m 8,7 C 8,6 C 22,5 km/h (4 Bft) 93,62 %
05.10.2017 03:32 12,2 C 12,8 C 79 % 1019,0 hPa 0,0 l/m 11,1 km/h (2 Bft) W-SW 253 0 min 0,000 mm 0,0 UV-I 0 W/m 8,7 C 9,5 C 16,1 km/h (3 Bft) 96,00 %
05.10.2017 03:34 12,2 C 12,8 C 79 % 1019,0 hPa 0,0 l/m 14,1 km/h (3 Bft) SW 224 0 min 0,000 mm 0,0 UV-I 0 W/m 8,7 C 8,2 C 22,5 km/h (4 Bft) 95,45 %
05.10.2017 03:36 12,2 C 12,8 C 79 % 1019,0 hPa 0,0 l/m 14,6 km/h (3 Bft) W-SW 240 0 min 0,000 mm 0,0 UV-I 0 W/m 8,7 C 8,0 C 20,9 km/h (4 Bft) 96,08 %
05.10.2017 03:38 12,2 C 12,8 C 79 % 1019,0 hPa 0,0 l/m 11,5 km/h (2 Bft) W-SW 245 0 min 0,000 mm 0,0 UV-I 0 W/m 8,7 C 9,3 C 17,7 km/h (3 Bft) 97,56 %
05.10.2017 03:40 12,2 C 12,8 C 79 % 1019,0 hPa 0,0 l/m 12,9 km/h (3 Bft) W-SW 243 0 min 0,000 mm 0,0 UV-I 0 W/m 8,7 C 8,6 C 19,3 km/h (3 Bft) 98,21 %
05.10.2017 03:42 12,2 C 12,8 C 79 % 1018,9 hPa 0,0 l/m 10,9 km/h (2 Bft) W-SW 240 0 min 0,000 mm 0,0 UV-I 0 W/m 8,7 C 9,6 C 19,3 km/h (3 Bft) 100,00 %
05.10.2017 03:44 12,2 C 12,8 C 79 % 1019,0 hPa 0,0 l/m 11,8 km/h (2 Bft) SW 224 0 min 0,000 mm 0,0 UV-I 0 W/m 8,7 C 9,1 C 17,7 km/h (3 Bft) 96,00 %
05.10.2017 03:46 12,2 C 12,8 C 79 % 1018,9 hPa 0,0 l/m 13,0 km/h (3 Bft) SW 225 0 min 0,000 mm 0,0 UV-I 0 W/m 8,7 C 8,6 C 17,7 km/h (3 Bft) 97,37 %
05.10.2017 03:48 12,2 C 12,8 C 79 % 1019,0 hPa 0,0 l/m 12,8 km/h (3 Bft) SW 227 0 min 0,000 mm 0,0 UV-I 0 W/m 8,7 C 8,7 C 16,1 km/h (3 Bft) 100,00 %
05.10.2017 03:50 12,2 C 12,8 C 79 % 1019,0 hPa 0,0 l/m 9,6 km/h (2 Bft) W-SW 248 0 min 0,000 mm 0,0 UV-I 0 W/m 8,7 C 10,2 C 12,9 km/h (3 Bft) 97,56 %
05.10.2017 03:52 12,2 C 12,8 C 79 % 1019,0 hPa 0,0 l/m 14,2 km/h (3 Bft) W 264 0 min 0,000 mm 0,0 UV-I 0 W/m 8,7 C 8,1 C 19,3 km/h (3 Bft) 98,11 %
05.10.2017 03:54 12,2 C 12,8 C 78 % 1019,0 hPa 0,0 l/m 10,0 km/h (2 Bft) SW 221 0 min 0,000 mm 0,0 UV-I 0 W/m 8,5 C 10,0 C 14,5 km/h (3 Bft) 97,73 %
05.10.2017 03:56 12,2 C 12,8 C 78 % 1019,0 hPa 0,0 l/m 10,4 km/h (2 Bft) W-SW 247 0 min 0,000 mm 0,0 UV-I 0 W/m 8,5 C 9,8 C 16,1 km/h (3 Bft) 98,00 %
05.10.2017 03:58 12,2 C 12,8 C 78 % 1019,0 hPa 0,0 l/m 11,5 km/h (2 Bft) W-SW 249 0 min 0,000 mm 0,0 UV-I 0 W/m 8,5 C 9,3 C 20,9 km/h (4 Bft) 97,14 %
05.10.2017 04:00 12,2 C 12,8 C 78 % 1018,8 hPa 0,0 l/m 10,8 km/h (2 Bft) SW 236 0 min 0,000 mm 0,0 UV-I 0 W/m 8,5 C 9,6 C 14,5 km/h (3 Bft) 97,78 %
05.10.2017 04:04 12,2 C 12,8 C 78 % 1018,9 hPa 0,0 l/m 11,4 km/h (2 Bft) SW 224 0 min 0,026 mm 0,0 UV-I 0 W/m 8,5 C 9,3 C 16,1 km/h (3 Bft) 92,00 %
05.10.2017 04:06 12,2 C 12,8 C 78 % 1018,8 hPa 0,0 l/m 11,8 km/h (2 Bft) SW 226 0 min 0,000 mm 0,0 UV-I 0 W/m 8,5 C 9,1 C 14,5 km/h (3 Bft) 97,62 %
05.10.2017 04:08 12,2 C 12,8 C 78 % 1018,7 hPa 0,0 l/m 9,6 km/h (2 Bft) SW 232 0 min 0,000 mm 0,0 UV-I 0 W/m 8,5 C 10,2 C 16,1 km/h (3 Bft) 97,56 %
05.10.2017 04:10 12,1 C 12,8 C 78 % 1018,7 hPa 0,0 l/m 11,0 km/h (2 Bft) SW 234 0 min 0,000 mm 0,0 UV-I 0 W/m 8,4 C 9,4 C 16,1 km/h (3 Bft) 96,61 %
05.10.2017 04:12 12,1 C 12,8 C 78 % 1018,7 hPa 0,0 l/m 8,8 km/h (2 Bft) SW 220 0 min 0,000 mm 0,0 UV-I 0 W/m 8,4 C 10,6 C 12,9 km/h (3 Bft) 97,37 %
05.10.2017 04:14 12,1 C 12,8 C 78 % 1018,6 hPa 0,0 l/m 11,3 km/h (2 Bft) W-SW 237 0 min 0,000 mm 0,0 UV-I 0 W/m 8,4 C 9,3 C 16,1 km/h (3 Bft) 97,73 %
05.10.2017 04:16 12,1 C 12,8 C 78 % 1018,6 hPa 0,0 l/m 10,5 km/h (2 Bft) SW 230 0 min 0,000 mm 0,0 UV-I 0 W/m 8,4 C 9,7 C 17,7 km/h (3 Bft) 98,31 %
05.10.2017 04:18 12,1 C 12,8 C 77 % 1018,6 hPa 0,0 l/m 11,9 km/h (2 Bft) SW 229 0 min 0,000 mm 0,0 UV-I 0 W/m 8,2 C 9,0 C 17,7 km/h (3 Bft) 98,00 %
05.10.2017 04:20 12,1 C 12,8 C 78 % 1018,6 hPa 0,0 l/m 11,3 km/h (2 Bft) SW 221 0 min 0,000 mm 0,0 UV-I 0 W/m 8,4 C 9,3 C 17,7 km/h (3 Bft) 97,37 %
05.10.2017 04:22 12,1 C 12,8 C 77 % 1018,6 hPa 0,0 l/m 11,1 km/h (2 Bft) SW 232 0 min 0,000 mm 0,0 UV-I 0 W/m 8,2 C 9,4 C 16,1 km/h (3 Bft) 96,23 %
05.10.2017 04:24 12,1 C 12,8 C 78 % 1018,5 hPa 0,0 l/m 11,9 km/h (2 Bft) SW 223 0 min 0,000 mm 0,0 UV-I 0 W/m 8,4 C 9,0 C 16,1 km/h (3 Bft) 100,00 %
05.10.2017 04:26 12,1 C 12,8 C 77 % 1018,4 hPa 0,0 l/m 11,7 km/h (2 Bft) W-SW 246 0 min 0,000 mm 0,0 UV-I 0 W/m 8,2 C 9,1 C 19,3 km/h (3 Bft) 97,56 %
05.10.2017 04:28 12,1 C 12,8 C 78 % 1018,3 hPa 0,0 l/m 9,9 km/h (2 Bft) S-SW 203 0 min 0,000 mm 0,0 UV-I 0 W/m 8,4 C 10,0 C 17,7 km/h (3 Bft) 96,61 %
05.10.2017 04:30 12,1 C 12,8 C 77 % 1018,3 hPa 0,0 l/m 12,1 km/h (2 Bft) W-SW 241 0 min 0,000 mm 0,0 UV-I 0 W/m 8,2 C 8,9 C 17,7 km/h (3 Bft) 94,29 %
05.10.2017 04:32 12,1 C 12,8 C 77 % 1018,2 hPa 0,0 l/m 10,4 km/h (2 Bft) SW 232 0 min 0,000 mm 0,0 UV-I 0 W/m 8,2 C 9,7 C 19,3 km/h (3 Bft) 97,87 %
05.10.2017 04:34 12,1 C 12,8 C 77 % 1018,1 hPa 0,0 l/m 11,7 km/h (2 Bft) W-SW 241 0 min 0,000 mm 0,0 UV-I 0 W/m 8,2 C 9,1 C 17,7 km/h (3 Bft) 98,00 %
05.10.2017 04:36 12,1 C 12,8 C 77 % 1018,0 hPa 0,0 l/m 13,5 km/h (3 Bft) SW 221 0 min 0,000 mm 0,0 UV-I 0 W/m 8,2 C 8,3 C 19,3 km/h (3 Bft) 96,23 %
05.10.2017 04:38 12,1 C 12,8 C 77 % 1018,0 hPa 0,0 l/m 11,6 km/h (2 Bft) SW 231 0 min 0,000 mm 0,0 UV-I 0 W/m 8,2 C 9,1 C 19,3 km/h (3 Bft) 97,37 %
05.10.2017 04:40 12,0 C 12,8 C 77 % 1017,9 hPa 0,0 l/m 10,5 km/h (2 Bft) W-SW 240 0 min 0,000 mm 0,0 UV-I 0 W/m 8,1 C 9,5 C 19,3 km/h (3 Bft) 98,11 %
05.10.2017 04:42 12,0 C 12,8 C 77 % 1017,9 hPa 0,0 l/m 15,5 km/h (3 Bft) S-SW 207 0 min 0,000 mm 0,0 UV-I 0 W/m 8,1 C 7,4 C 20,9 km/h (4 Bft) 98,00 %
05.10.2017 04:44 12,1 C 12,8 C 77 % 1017,8 hPa 0,0 l/m 14,3 km/h (3 Bft) SW 217 0 min 0,000 mm 0,0 UV-I 0 W/m 8,2 C 8,0 C 22,5 km/h (4 Bft) 97,87 %
05.10.2017 04:46 12,1 C 12,8 C 77 % 1017,8 hPa 0,0 l/m 12,7 km/h (3 Bft) SW 232 0 min 0,000 mm 0,0 UV-I 0 W/m 8,2 C 8,6 C 22,5 km/h (4 Bft) 95,56 %
05.10.2017 04:48 12,0 C 12,8 C 77 % 1017,8 hPa 0,0 l/m 11,2 km/h (2 Bft) SW 223 0 min 0,000 mm 0,0 UV-I 0 W/m 8,1 C 9,2 C 19,3 km/h (3 Bft) 100,00 %
05.10.2017 04:50 12,0 C 12,8 C 77 % 1017,8 hPa 0,0 l/m 10,3 km/h (2 Bft) SW 232 0 min 0,000 mm 0,0 UV-I 0 W/m 8,1 C 9,6 C 12,9 km/h (3 Bft) 97,73 %
05.10.2017 04:52 11,9 C 12,8 C 77 % 1017,8 hPa 0,0 l/m 11,1 km/h (2 Bft) W-SW 250 0 min 0,000 mm 0,0 UV-I 0 W/m 8,0 C 9,1 C 16,1 km/h (3 Bft) 92,86 %
05.10.2017 04:54 11,9 C 12,8 C 78 % 1017,8 hPa 0,0 l/m 10,5 km/h (2 Bft) W-SW 250 0 min 0,000 mm 0,0 UV-I 0 W/m 8,2 C 9,4 C 14,5 km/h (3 Bft) 98,00 %
05.10.2017 04:56 11,9 C 12,8 C 78 % 1017,9 hPa 0,0 l/m 11,5 km/h (2 Bft) SW 223 0 min 0,000 mm 0,0 UV-I 0 W/m 8,2 C 8,9 C 16,1 km/h (3 Bft) 97,37 %
05.10.2017 04:58 11,9 C 12,8 C 78 % 1017,8 hPa 0,0 l/m 11,0 km/h (2 Bft) W-SW 248 0 min 0,000 mm 0,0 UV-I 0 W/m 8,2 C 9,2 C 16,1 km/h (3 Bft) 98,00 %
05.10.2017 05:00 11,9 C 12,8 C 78 % 1017,8 hPa 0,0 l/m 13,3 km/h (3 Bft) W-SW 248 0 min 0,025 mm 0,0 UV-I 0 W/m 8,2 C 8,1 C 19,3 km/h (3 Bft) 95,45 %
05.10.2017 05:02 11,9 C 12,8 C 78 % 1017,8 hPa 0,0 l/m 10,2 km/h (2 Bft) SW 219 0 min 0,000 mm 0,0 UV-I 0 W/m 8,2 C 9,6 C 17,7 km/h (3 Bft) 100,00 %
05.10.2017 05:04 11,8 C 12,8 C 77 % 1017,8 hPa 0,0 l/m 9,8 km/h (2 Bft) SW 214 0 min 0,000 mm 0,0 UV-I 0 W/m 7,9 C 9,7 C 14,5 km/h (3 Bft) 100,00 %
05.10.2017 05:06 11,8 C 12,8 C 78 % 1017,7 hPa 0,0 l/m 10,6 km/h (2 Bft) W-SW 252 0 min 0,000 mm 0,0 UV-I 0 W/m 8,1 C 9,3 C 17,7 km/h (3 Bft) 100,00 %
05.10.2017 05:08 11,8 C 12,8 C 78 % 1017,7 hPa 0,0 l/m 10,5 km/h (2 Bft) SW 229 0 min 0,000 mm 0,0 UV-I 0 W/m 8,1 C 9,3 C 14,5 km/h (3 Bft) 100,00 %
05.10.2017 05:10 11,8 C 12,8 C 78 % 1017,8 hPa 0,0 l/m 12,8 km/h (3 Bft) W-SW 258 0 min 0,000 mm 0,0 UV-I 0 W/m 8,1 C 8,2 C 17,7 km/h (3 Bft) 97,87 %
05.10.2017 05:12 11,8 C 12,8 C 78 % 1017,7 hPa 0,0 l/m 11,7 km/h (2 Bft) SW 221 0 min 0,000 mm 0,0 UV-I 0 W/m 8,1 C 8,7 C 16,1 km/h (3 Bft) 95,74 %
05.10.2017 05:14 11,8 C 12,8 C 78 % 1017,6 hPa 0,0 l/m 7,7 km/h (2 Bft) W-SW 249 0 min 0,000 mm 0,0 UV-I 0 W/m 8,1 C 10,9 C 12,9 km/h (3 Bft) 96,67 %
05.10.2017 05:16 11,8 C 12,8 C 78 % 1017,5 hPa 0,0 l/m 10,5 km/h (2 Bft) W-SW 245 0 min 0,000 mm 0,0 UV-I 0 W/m 8,1 C 9,3 C 14,5 km/h (3 Bft) 98,18 %
05.10.2017 05:18 11,8 C 12,8 C 78 % 1017,5 hPa 0,0 l/m 9,6 km/h (2 Bft) W-SW 246 0 min 0,000 mm 0,0 UV-I 0 W/m 8,1 C 9,8 C 14,5 km/h (3 Bft) 98,00 %
05.10.2017 05:20 11,7 C 12,8 C 78 % 1017,5 hPa 0,0 l/m 10,3 km/h (2 Bft) W-SW 242 0 min 0,000 mm 0,0 UV-I 0 W/m 8,0 C 9,3 C 19,3 km/h (3 Bft) 96,23 %
05.10.2017 05:22 11,7 C 12,8 C 78 % 1017,5 hPa 0,0 l/m 8,7 km/h (2 Bft) W-SW 255 0 min 0,000 mm 0,0 UV-I 0 W/m 8,0 C 10,2 C 14,5 km/h (3 Bft) 97,44 %
05.10.2017 05:24 11,7 C 12,8 C 78 % 1017,5 hPa 0,0 l/m 9,3 km/h (2 Bft) SW 229 0 min 0,000 mm 0,0 UV-I 0 W/m 8,0 C 9,9 C 17,7 km/h (3 Bft) 98,00 %
05.10.2017 05:26 11,7 C 12,8 C 78 % 1017,4 hPa 0,0 l/m 9,6 km/h (2 Bft) SW 231 0 min 0,000 mm 0,0 UV-I 0 W/m 8,0 C 9,7 C 17,7 km/h (3 Bft) 95,45 %
05.10.2017 05:28 11,7 C 12,8 C 78 % 1017,4 hPa 0,0 l/m 9,5 km/h (2 Bft) SW 223 0 min 0,000 mm 0,0 UV-I 0 W/m 8,0 C 9,7 C 16,1 km/h (3 Bft) 96,43 %
05.10.2017 05:30 11,7 C 12,8 C 79 % 1017,4 hPa 0,0 l/m 8,3 km/h (2 Bft) SW 222 0 min 0,000 mm 0,0 UV-I 0 W/m 8,2 C 10,5 C 12,9 km/h (3 Bft) 97,73 %
05.10.2017 05:32 11,7 C 12,8 C 79 % 1017,4 hPa 0,0 l/m 8,9 km/h (2 Bft) W-SW 244 0 min 0,000 mm 0,0 UV-I 0 W/m 8,2 C 10,1 C 12,9 km/h (3 Bft) 98,00 %
05.10.2017 05:34 11,7 C 12,8 C 79 % 1017,4 hPa 0,0 l/m 8,8 km/h (2 Bft) W 263 0 min 0,000 mm 0,0 UV-I 0 W/m 8,2 C 10,1 C 16,1 km/h (3 Bft) 97,56 %
05.10.2017 05:36 11,7 C 12,8 C 79 % 1017,4 hPa 0,0 l/m 10,0 km/h (2 Bft) W 264 0 min 0,000 mm 0,0 UV-I 0 W/m 8,2 C 9,5 C 16,1 km/h (3 Bft) 95,12 %
05.10.2017 05:38 11,7 C 12,8 C 79 % 1017,4 hPa 0,0 l/m 12,2 km/h (2 Bft) W-SW 252 0 min 0,000 mm 0,0 UV-I 0 W/m 8,2 C 8,4 C 16,1 km/h (3 Bft) 94,64 %
05.10.2017 05:40 11,7 C 12,8 C 79 % 1017,3 hPa 0,0 l/m 10,6 km/h (2 Bft) SW 219 0 min 0,000 mm 0,0 UV-I 0 W/m 8,2 C 9,2 C 16,1 km/h (3 Bft) 98,00 %
05.10.2017 05:42 11,7 C 12,8 C 79 % 1017,4 hPa 0,0 l/m 10,8 km/h (2 Bft) SW 236 0 min 0,000 mm 0,0 UV-I 0 W/m 8,2 C 9,1 C 17,7 km/h (3 Bft) 97,14 %
05.10.2017 05:44 11,7 C 12,8 C 79 % 1017,3 hPa 0,0 l/m 7,7 km/h (2 Bft) W 261 0 min 0,000 mm 0,0 UV-I 0 W/m 8,2 C 10,8 C 16,1 km/h (3 Bft) 95,74 %
05.10.2017 05:46 11,7 C 12,8 C 79 % 1017,2 hPa 0,0 l/m 10,1 km/h (2 Bft) W-SW 240 0 min 0,000 mm 0,0 UV-I 0 W/m 8,2 C 9,4 C 17,7 km/h (3 Bft) 100,00 %
05.10.2017 05:48 11,7 C 12,8 C 79 % 1017,1 hPa 0,0 l/m 13,3 km/h (3 Bft) SW 222 0 min 0,000 mm 0,0 UV-I 0 W/m 8,2 C 7,9 C 20,9 km/h (4 Bft) 100,00 %
05.10.2017 05:50 11,7 C 12,8 C 79 % 1017,0 hPa 0,0 l/m 11,2 km/h (2 Bft) W 260 0 min 0,000 mm 0,0 UV-I 0 W/m 8,2 C 8,9 C 16,1 km/h (3 Bft) 100,00 %
05.10.2017 05:52 11,7 C 12,8 C 79 % 1017,0 hPa 0,0 l/m 12,1 km/h (2 Bft) W-SW 244 0 min 0,000 mm 0,0 UV-I 0 W/m 8,2 C 8,4 C 19,3 km/h (3 Bft) 100,00 %
05.10.2017 05:54 11,7 C 12,8 C 78 % 1016,9 hPa 0,0 l/m 13,9 km/h (3 Bft) W 270 0 min 0,000 mm 0,0 UV-I 0 W/m 8,0 C 7,6 C 24,1 km/h (4 Bft) 100,00 %
05.10.2017 05:56 11,7 C 12,8 C 77 % 1016,9 hPa 0,0 l/m 12,1 km/h (2 Bft) W-SW 252 0 min 0,000 mm 0,0 UV-I 0 W/m 7,8 C 8,4 C 20,9 km/h (4 Bft) 100,00 %
05.10.2017 05:58 11,8 C 12,8 C 77 % 1016,8 hPa 0,0 l/m 13,6 km/h (3 Bft) SW 236 0 min 0,000 mm 0,0 UV-I 0 W/m 7,9 C 7,9 C 17,7 km/h (3 Bft) 100,00 %
05.10.2017 06:00 11,8 C 12,8 C 77 % 1016,7 hPa 0,0 l/m 16,5 km/h (3 Bft) W 259 0 min 0,025 mm 0,0 UV-I 0 W/m 7,9 C 6,8 C 25,7 km/h (4 Bft) 98,08 %
05.10.2017 06:02 11,8 C 12,8 C 77 % 1016,7 hPa 0,0 l/m 12,8 km/h (3 Bft) W 265 0 min 0,000 mm 0,0 UV-I 0 W/m 7,9 C 8,2 C 17,7 km/h (3 Bft) 100,00 %
05.10.2017 06:04 11,9 C 12,8 C 76 % 1016,6 hPa 0,0 l/m 15,8 km/h (3 Bft) W-SW 250 0 min 0,000 mm 0,0 UV-I 0 W/m 7,8 C 7,1 C 25,7 km/h (4 Bft) 97,73 %
05.10.2017 06:06 11,9 C 12,8 C 76 % 1016,4 hPa 0,0 l/m 16,9 km/h (3 Bft) W-SW 248 0 min 0,000 mm 0,0 UV-I 0 W/m 7,8 C 6,7 C 22,5 km/h (4 Bft) 100,00 %
05.10.2017 06:08 11,9 C 12,8 C 76 % 1016,4 hPa 0,0 l/m 15,1 km/h (3 Bft) W-SW 258 0 min 0,000 mm 0,0 UV-I 0 W/m 7,8 C 7,4 C 24,1 km/h (4 Bft) 100,00 %
05.10.2017 06:10 12,0 C 12,8 C 76 % 1016,4 hPa 0,0 l/m 17,0 km/h (3 Bft) W 273 0 min 0,000 mm 0,0 UV-I 0 W/m 7,9 C 6,8 C 24,1 km/h (4 Bft) 100,00 %
05.10.2017 06:12 12,1 C 12,8 C 76 % 1016,4 hPa 0,0 l/m 11,8 km/h (2 Bft) W-SW 242 0 min 0,000 mm 0,0 UV-I 0 W/m 8,0 C 9,0 C 19,3 km/h (3 Bft) 100,00 %
05.10.2017 06:14 12,0 C 12,8 C 77 % 1016,3 hPa 0,0 l/m 11,2 km/h (2 Bft) W-SW 245 0 min 0,000 mm 0,0 UV-I 0 W/m 8,1 C 9,2 C 17,7 km/h (3 Bft) 97,87 %
05.10.2017 06:16 12,0 C 12,8 C 77 % 1016,3 hPa 0,0 l/m 13,3 km/h (3 Bft) W 265 0 min 0,000 mm 0,0 UV-I 0 W/m 8,1 C 8,2 C 19,3 km/h (3 Bft) 100,00 %
05.10.2017 06:19 11,9 C 12,8 C 77 % 1016,2 hPa 0,0 l/m 9,0 km/h (2 Bft) W 267 0 min 0,000 mm 0,0 UV-I 0 W/m 8,0 C 10,2 C 16,1 km/h (3 Bft) 98,63 %
05.10.2017 06:20 11,9 C 12,8 C 77 % 1016,1 hPa 0,0 l/m 10,2 km/h (2 Bft) W-SW 246 0 min 0,000 mm 0,0 UV-I 0 W/m 8,0 C 9,6 C 12,9 km/h (3 Bft) 100,00 %
05.10.2017 06:22 11,9 C 12,8 C 78 % 1016,0 hPa 0,0 l/m 10,2 km/h (2 Bft) W-SW 246 0 min 0,000 mm 0,0 UV-I 0 W/m 8,2 C 9,6 C 16,1 km/h (3 Bft) 100,00 %
05.10.2017 06:24 11,8 C 12,8 C 78 % 1015,9 hPa 0,0 l/m 11,5 km/h (2 Bft) W-SW 251 0 min 0,000 mm 0,0 UV-I 0 W/m 8,1 C 8,8 C 14,5 km/h (3 Bft) 97,87 %
05.10.2017 06:26 11,8 C 12,8 C 78 % 1015,8 hPa 0,0 l/m 10,5 km/h (2 Bft) W-SW 238 0 min 0,000 mm 0,0 UV-I 0 W/m 8,1 C 9,3 C 19,3 km/h (3 Bft) 100,00 %
05.10.2017 06:28 11,8 C 12,8 C 78 % 1015,8 hPa 0,0 l/m 9,9 km/h (2 Bft) W 259 0 min 0,000 mm 0,0 UV-I 0 W/m 8,1 C 9,6 C 14,5 km/h (3 Bft) 100,00 %
05.10.2017 06:30 11,8 C 12,8 C 79 % 1015,9 hPa 0,0 l/m 9,8 km/h (2 Bft) W-SW 246 0 min 0,000 mm 0,0 UV-I 0 W/m 8,3 C 9,7 C 14,5 km/h (3 Bft) 100,00 %
05.10.2017 06:32 11,8 C 12,8 C 79 % 1015,8 hPa 0,0 l/m 6,9 km/h (2 Bft) W 259 0 min 0,000 mm 0,0 UV-I 0 W/m 8,3 C 11,5 C 11,3 km/h (2 Bft) 97,37 %
05.10.2017 06:34 11,8 C 12,8 C 79 % 1015,8 hPa 0,0 l/m 8,2 km/h (2 Bft) W-SW 245 0 min 0,000 mm 0,0 UV-I 0 W/m 8,3 C 10,6 C 12,9 km/h (3 Bft) 100,00 %
05.10.2017 06:36 11,8 C 12,8 C 79 % 1015,8 hPa 0,0 l/m 7,3 km/h (2 Bft) W-SW 257 0 min 0,000 mm 0,0 UV-I 0 W/m 8,3 C 11,2 C 11,3 km/h (2 Bft) 100,00 %
05.10.2017 06:38 11,8 C 12,8 C 79 % 1015,8 hPa 0,0 l/m 5,6 km/h (1 Bft) NW 305 0 min 0,000 mm 0,0 UV-I 0 W/m 8,3 C 11,8 C 9,7 km/h (2 Bft) 98,00 %
05.10.2017 06:40 11,8 C 12,8 C 79 % 1015,8 hPa 0,0 l/m 8,8 km/h (2 Bft) W-SW 244 0 min 0,000 mm 0,0 UV-I 0 W/m 8,3 C 10,3 C 12,9 km/h (3 Bft) 100,00 %
05.10.2017 06:42 11,8 C 12,8 C 79 % 1015,6 hPa 0,0 l/m 7,7 km/h (2 Bft) W-SW 238 0 min 0,000 mm 0,0 UV-I 0 W/m 8,3 C 10,9 C 9,7 km/h (2 Bft) 100,00 %
05.10.2017 06:44 11,8 C 12,8 C 80 % 1015,6 hPa 0,0 l/m 7,6 km/h (2 Bft) SW 227 0 min 0,000 mm 0,0 UV-I 0 W/m 8,5 C 11,0 C 9,7 km/h (2 Bft) 100,00 %
05.10.2017 06:46 11,8 C 12,8 C 80 % 1015,6 hPa 0,0 l/m 7,3 km/h (2 Bft) W-SW 238 0 min 0,000 mm 0,0 UV-I 0 W/m 8,5 C 11,2 C 11,3 km/h (2 Bft) 100,00 %
05.10.2017 06:48 11,8 C 12,8 C 80 % 1015,6 hPa 0,0 l/m 4,9 km/h (1 Bft) W-SW 253 0 min 0,000 mm 0,0 UV-I 0 W/m 8,5 C 11,8 C 8,0 km/h (2 Bft) 100,00 %
05.10.2017 06:50 11,8 C 12,8 C 80 % 1015,6 hPa 0,0 l/m 6,4 km/h (2 Bft) W 260 0 min 0,000 mm 0,0 UV-I 0 W/m 8,5 C 11,8 C 11,3 km/h (2 Bft) 98,00 %
05.10.2017 06:52 11,7 C 12,8 C 80 % 1015,6 hPa 0,0 l/m 3,7 km/h (1 Bft) W 260 0 min 0,000 mm 0,0 UV-I 0 W/m 8,4 C 11,7 C 4,8 km/h (1 Bft) 100,00 %
05.10.2017 06:54 11,7 C 12,8 C 81 % 1015,5 hPa 0,0 l/m 3,2 km/h (1 Bft) W 260 0 min 0,000 mm 0,0 UV-I 0 W/m 8,5 C 11,7 C 4,8 km/h (1 Bft) 100,00 %
05.10.2017 06:56 11,7 C 12,8 C 81 % 1015,5 hPa 0,0 l/m 3,7 km/h (1 Bft) W 260 0 min 0,000 mm 0,0 UV-I 0 W/m 8,5 C 11,7 C 4,8 km/h (1 Bft) 100,00 %
05.10.2017 06:58 11,6 C 12,8 C 81 % 1015,5 hPa 0,0 l/m 3,5 km/h (1 Bft) W 260 0 min 0,000 mm 0,0 UV-I 0 W/m 8,5 C 11,6 C 4,8 km/h (1 Bft) 100,00 %
05.10.2017 07:00 11,6 C 12,8 C 81 % 1015,5 hPa 0,0 l/m 3,9 km/h (1 Bft) SW 230 0 min 0,026 mm 0,0 UV-I 1 W/m 8,5 C 11,6 C 8,0 km/h (2 Bft) 100,00 %
05.10.2017 07:02 11,5 C 12,8 C 82 % 1015,5 hPa 0,0 l/m 3,9 km/h (1 Bft) W-SW 248 0 min 0,000 mm 0,0 UV-I 5 W/m 8,5 C 11,5 C 6,4 km/h (2 Bft) 100,00 %
05.10.2017 07:04 11,5 C 12,8 C 82 % 1015,5 hPa 0,0 l/m 2,1 km/h (1 Bft) W-SW 248 0 min 0,000 mm 0,0 UV-I 5 W/m 8,5 C 11,5 C 3,2 km/h (1 Bft) 100,00 %
05.10.2017 07:06 11,5 C 12,8 C 82 % 1015,4 hPa 0,0 l/m 1,9 km/h (1 Bft) W-SW 248 0 min 0,000 mm 0,0 UV-I 5 W/m 8,5 C 11,5 C 4,8 km/h (1 Bft) 100,00 %
05.10.2017 07:08 11,4 C 12,8 C 82 % 1015,4 hPa 0,0 l/m 2,6 km/h (1 Bft) W-SW 248 0 min 0,000 mm 0,0 UV-I 5 W/m 8,4 C 11,4 C 4,8 km/h (1 Bft) 100,00 %
05.10.2017 07:10 11,4 C 12,8 C 82 % 1015,4 hPa 0,0 l/m 4,0 km/h (1 Bft) W-SW 257 0 min 0,000 mm 0,0 UV-I 5 W/m 8,4 C 11,4 C 6,4 km/h (2 Bft) 97,87 %
05.10.2017 07:12 11,4 C 12,8 C 83 % 1015,4 hPa 0,0 l/m 3,4 km/h (1 Bft) W-SW 257 0 min 0,000 mm 0,0 UV-I 6 W/m 8,6 C 11,4 C 4,8 km/h (1 Bft) 100,00 %
05.10.2017 07:14 11,4 C 12,8 C 83 % 1015,3 hPa 0,0 l/m 4,3 km/h (1 Bft) W-SW 248 0 min 0,000 mm 0,0 UV-I 7 W/m 8,6 C 11,4 C 6,4 km/h (2 Bft) 94,74 %
05.10.2017 07:16 11,4 C 12,8 C 83 % 1015,2 hPa 0,0 l/m 5,9 km/h (2 Bft) SW 227 0 min 0,000 mm 0,0 UV-I 7 W/m 8,6 C 11,4 C 9,7 km/h (2 Bft) 98,00 %
05.10.2017 07:18 11,4 C 12,8 C 83 % 1015,1 hPa 0,0 l/m 7,6 km/h (2 Bft) SW 218 0 min 0,000 mm 0,0 UV-I 9 W/m 8,6 C 10,6 C 12,9 km/h (3 Bft) 96,23 %
05.10.2017 07:20 11,4 C 12,8 C 83 % 1015,1 hPa 0,0 l/m 7,1 km/h (2 Bft) W-SW 242 2 min 0,000 mm 0,0 UV-I 11 W/m 8,6 C 10,9 C 11,3 km/h (2 Bft) 100,00 %
05.10.2017 07:22 11,4 C 12,8 C 83 % 1015,1 hPa 0,0 l/m 6,3 km/h (2 Bft) W-SW 243 0 min 0,000 mm 0,0 UV-I 12 W/m 8,6 C 11,4 C 9,7 km/h (2 Bft) 95,74 %
05.10.2017 07:24 11,5 C 12,8 C 83 % 1015,0 hPa 0,0 l/m 8,0 km/h (2 Bft) W-SW 244 0 min 0,000 mm 0,0 UV-I 12 W/m 8,7 C 10,4 C 11,3 km/h (2 Bft) 96,00 %
05.10.2017 07:26 11,5 C 12,8 C 83 % 1015,1 hPa 0,0 l/m 7,4 km/h (2 Bft) W-SW 257 0 min 0,000 mm 0,0 UV-I 13 W/m 8,7 C 10,8 C 12,9 km/h (3 Bft) 95,74 %
05.10.2017 07:28 11,5 C 12,8 C 83 % 1015,1 hPa 0,0 l/m 5,9 km/h (2 Bft) W 278 0 min 0,000 mm 0,0 UV-I 14 W/m 8,7 C 11,5 C 9,7 km/h (2 Bft) 97,56 %
05.10.2017 07:30 11,5 C 12,8 C 83 % 1015,1 hPa 0,0 l/m 6,8 km/h (2 Bft) W-SW 249 0 min 0,000 mm 0,0 UV-I 15 W/m 8,7 C 11,2 C 11,3 km/h (2 Bft) 98,21 %
05.10.2017 07:32 11,5 C 12,8 C 83 % 1015,0 hPa 0,0 l/m 5,5 km/h (1 Bft) W-SW 250 0 min 0,000 mm 0,0 UV-I 17 W/m 8,7 C 11,5 C 9,7 km/h (2 Bft) 97,37 %
05.10.2017 07:34 11,6 C 12,8 C 83 % 1015,0 hPa 0,0 l/m 7,0 km/h (2 Bft) W 280 0 min 0,000 mm 0,0 UV-I 19 W/m 8,8 C 11,2 C 14,5 km/h (3 Bft) 92,45 %
05.10.2017 07:36 11,6 C 12,8 C 83 % 1015,0 hPa 0,0 l/m 4,6 km/h (1 Bft) W 267 0 min 0,000 mm 0,0 UV-I 20 W/m 8,8 C 11,6 C 9,7 km/h (2 Bft) 94,00 %
05.10.2017 07:38 11,6 C 12,8 C 83 % 1014,9 hPa 0,0 l/m 5,6 km/h (1 Bft) W-SW 252 0 min 0,000 mm 0,0 UV-I 22 W/m 8,8 C 11,6 C 11,3 km/h (2 Bft) 97,87 %
05.10.2017 07:40 11,6 C 12,8 C 83 % 1015,0 hPa 0,0 l/m 6,0 km/h (2 Bft) W 267 0 min 0,000 mm 0,0 UV-I 23 W/m 8,8 C 11,6 C 14,5 km/h (3 Bft) 97,37 %
05.10.2017 07:42 11,7 C 12,8 C 83 % 1014,9 hPa 0,0 l/m 9,1 km/h (2 Bft) W 279 0 min 0,000 mm 0,0 UV-I 25 W/m 8,9 C 10,0 C 16,1 km/h (3 Bft) 98,11 %
05.10.2017 07:44 11,7 C 12,8 C 83 % 1015,0 hPa 0,0 l/m 6,2 km/h (2 Bft) NW 309 0 min 0,000 mm 0,0 UV-I 26 W/m 8,9 C 11,7 C 11,3 km/h (2 Bft) 98,00 %
05.10.2017 07:46 11,8 C 12,8 C 83 % 1014,9 hPa 0,0 l/m 5,2 km/h (1 Bft) W 269 0 min 0,000 mm 0,0 UV-I 28 W/m 9,0 C 11,8 C 8,0 km/h (2 Bft) 97,37 %
05.10.2017 07:48 11,8 C 12,8 C 83 % 1014,9 hPa 0,0 l/m 5,9 km/h (2 Bft) W 262 0 min 0,000 mm 0,0 UV-I 29 W/m 9,0 C 11,8 C 12,9 km/h (3 Bft) 98,00 %
05.10.2017 07:50 11,9 C 12,8 C 83 % 1014,9 hPa 0,0 l/m 5,2 km/h (1 Bft) W-SW 242 0 min 0,000 mm 0,0 UV-I 30 W/m 9,1 C 11,9 C 8,0 km/h (2 Bft) 97,87 %
05.10.2017 07:52 11,9 C 12,8 C 83 % 1014,8 hPa 0,0 l/m 5,3 km/h (1 Bft) W-SW 241 0 min 0,000 mm 0,0 UV-I 30 W/m 9,1 C 11,9 C 8,0 km/h (2 Bft) 100,00 %
05.10.2017 07:54 12,0 C 12,8 C 83 % 1014,9 hPa 0,0 l/m 6,4 km/h (2 Bft) W-SW 252 0 min 0,000 mm 0,0 UV-I 30 W/m 9,2 C 12,0 C 9,7 km/h (2 Bft) 98,00 %
05.10.2017 07:56 12,1 C 12,8 C 83 % 1014,8 hPa 0,0 l/m 4,9 km/h (1 Bft) W-SW 249 0 min 0,000 mm 0,0 UV-I 30 W/m 9,3 C 12,1 C 6,4 km/h (2 Bft) 94,74 %
05.10.2017 07:58 12,1 C 12,8 C 83 % 1014,8 hPa 0,0 l/m 5,1 km/h (1 Bft) W-SW 240 0 min 0,000 mm 0,0 UV-I 30 W/m 9,3 C 12,1 C 9,7 km/h (2 Bft) 96,23 %
05.10.2017 08:00 12,2 C 12,8 C 83 % 1014,8 hPa 0,0 l/m 4,7 km/h (1 Bft) W-SW 246 0 min 0,025 mm 0,0 UV-I 30 W/m 9,4 C 12,2 C 8,0 km/h (2 Bft) 100,00 %
05.10.2017 08:02 12,2 C 12,8 C 83 % 1014,7 hPa 0,0 l/m 5,6 km/h (1 Bft) W-SW 237 0 min 0,000 mm 0,0 UV-I 32 W/m 9,4 C 12,2 C 9,7 km/h (2 Bft) 96,36 %
05.10.2017 08:04 12,2 C 12,8 C 83 % 1014,7 hPa 0,0 l/m 4,8 km/h (1 Bft) W-SW 238 0 min 0,000 mm 0,0 UV-I 35 W/m 9,4 C 12,2 C 11,3 km/h (2 Bft) 97,44 %
05.10.2017 08:06 12,2 C 12,8 C 83 % 1014,7 hPa 0,0 l/m 3,3 km/h (1 Bft) W-SW 238 0 min 0,000 mm 0,0 UV-I 38 W/m 9,4 C 12,2 C 4,8 km/h (1 Bft) 97,87 %
05.10.2017 08:08 12,2 C 12,8 C 83 % 1014,7 hPa 0,0 l/m 3,2 km/h (1 Bft) W-SW 238 0 min 0,000 mm 0,0 UV-I 41 W/m 9,4 C 12,2 C 4,8 km/h (1 Bft) 98,21 %
05.10.2017 08:10 12,2 C 12,8 C 83 % 1014,5 hPa 0,0 l/m 4,6 km/h (1 Bft) SW 221 0 min 0,000 mm 0,0 UV-I 44 W/m 9,4 C 12,2 C 8,0 km/h (2 Bft) 97,56 %
05.10.2017 08:12 12,2 C 12,8 C 83 % 1014,4 hPa 0,0 l/m 4,6 km/h (1 Bft) SW 221 0 min 0,000 mm 0,0 UV-I 46 W/m 9,4 C 12,2 C 6,4 km/h (2 Bft) 98,11 %
05.10.2017 08:14 12,3 C 12,8 C 83 % 1014,3 hPa 0,0 l/m 3,6 km/h (1 Bft) SW 221 0 min 0,000 mm 0,0 UV-I 50 W/m 9,5 C 12,3 C 8,0 km/h (2 Bft) 97,37 %
05.10.2017 08:16 12,3 C 12,8 C 83 % 1014,3 hPa 0,0 l/m 3,6 km/h (1 Bft) SW 221 0 min 0,000 mm 0,0 UV-I 54 W/m 9,5 C 12,3 C 8,0 km/h (2 Bft) 98,11 %
05.10.2017 08:18 12,3 C 12,8 C 83 % 1014,2 hPa 0,0 l/m 3,9 km/h (1 Bft) SW 217 0 min 0,000 mm 0,0 UV-I 58 W/m 9,5 C 12,3 C 6,4 km/h (2 Bft) 97,37 %
05.10.2017 08:20 12,3 C 12,8 C 83 % 1014,2 hPa 0,0 l/m 4,7 km/h (1 Bft) S-SW 198 0 min 0,000 mm 0,0 UV-I 62 W/m 9,5 C 12,3 C 8,0 km/h (2 Bft) 98,00 %
05.10.2017 08:22 12,4 C 12,8 C 83 % 1014,2 hPa 0,0 l/m 3,7 km/h (1 Bft) SW 232 0 min 0,000 mm 0,0 UV-I 63 W/m 9,6 C 12,4 C 6,4 km/h (2 Bft) 96,23 %
05.10.2017 08:24 12,4 C 12,8 C 83 % 1014,1 hPa 0,0 l/m 3,5 km/h (1 Bft) SW 232 0 min 0,000 mm 0,0 UV-I 64 W/m 9,6 C 12,4 C 4,8 km/h (1 Bft) 97,87 %
05.10.2017 08:26 12,4 C 12,8 C 83 % 1014,1 hPa 0,0 l/m 3,1 km/h (1 Bft) SW 232 0 min 0,000 mm 0,0 UV-I 69 W/m 9,6 C 12,4 C 4,8 km/h (1 Bft) 97,87 %
05.10.2017 08:28 12,4 C 12,8 C 83 % 1014,0 hPa 0,0 l/m 2,7 km/h (1 Bft) SW 232 0 min 0,000 mm 0,0 UV-I 74 W/m 9,6 C 12,4 C 4,8 km/h (1 Bft) 97,73 %
05.10.2017 08:30 12,4 C 12,8 C 83 % 1014,0 hPa 0,0 l/m 3,2 km/h (1 Bft) SW 232 0 min 0,000 mm 0,0 UV-I 74 W/m 9,6 C 12,4 C 4,8 km/h (1 Bft) 94,00 %
05.10.2017 08:32 12,4 C 12,8 C 83 % 1014,1 hPa 0,0 l/m 3,0 km/h (1 Bft) SW 232 0 min 0,000 mm 0,0 UV-I 74 W/m 9,6 C 12,4 C 4,8 km/h (1 Bft) 97,87 %
05.10.2017 08:34 12,4 C 12,8 C 84 % 1014,1 hPa 0,0 l/m 2,9 km/h (1 Bft) SW 232 0 min 0,000 mm 0,0 UV-I 74 W/m 9,8 C 12,4 C 4,8 km/h (1 Bft) 95,12 %
05.10.2017 08:36 12,5 C 12,8 C 84 % 1014,0 hPa 0,0 l/m 2,8 km/h (1 Bft) SW 232 0 min 0,000 mm 0,0 UV-I 76 W/m 9,9 C 12,5 C 4,8 km/h (1 Bft) 96,00 %
05.10.2017 08:38 12,5 C 12,8 C 84 % 1014,1 hPa 0,0 l/m 2,9 km/h (1 Bft) SW 232 0 min 0,000 mm 0,0 UV-I 77 W/m 9,9 C 12,5 C 4,8 km/h (1 Bft) 98,00 %
05.10.2017 08:40 12,6 C 12,8 C 84 % 1014,0 hPa 0,0 l/m 1,7 km/h (1 Bft) SW 232 0 min 0,000 mm 0,0 UV-I 77 W/m 10,0 C 12,6 C 3,2 km/h (1 Bft) 97,44 %
05.10.2017 08:42 12,6 C 12,8 C 84 % 1014,1 hPa 0,0 l/m 2,8 km/h (1 Bft) SW 232 0 min 0,000 mm 0,0 UV-I 77 W/m 10,0 C 12,6 C 4,8 km/h (1 Bft) 96,36 %
05.10.2017 08:44 12,6 C 12,8 C 84 % 1014,1 hPa 0,0 l/m 2,3 km/h (1 Bft) SW 232 0 min 0,000 mm 0,0 UV-I 76 W/m 10,0 C 12,6 C 3,2 km/h (1 Bft) 97,44 %
05.10.2017 08:46 12,7 C 12,8 C 84 % 1014,1 hPa 0,0 l/m 2,5 km/h (1 Bft) SW 232 0 min 0,000 mm 0,0 UV-I 71 W/m 10,1 C 12,7 C 4,8 km/h (1 Bft) 94,00 %
05.10.2017 08:48 12,7 C 12,8 C 84 % 1014,2 hPa 0,0 l/m 2,4 km/h (1 Bft) SW 232 0 min 0,000 mm 0,0 UV-I 70 W/m 10,1 C 12,7 C 4,8 km/h (1 Bft) 98,00 %
05.10.2017 08:50 12,7 C 12,8 C 84 % 1014,2 hPa 0,0 l/m 1,7 km/h (1 Bft) SW 232 0 min 0,000 mm 0,0 UV-I 70 W/m 10,1 C 12,7 C 3,2 km/h (1 Bft) 97,87 %
05.10.2017 08:52 12,7 C 12,8 C 84 % 1014,2 hPa 0,0 l/m 2,3 km/h (1 Bft) SW 232 0 min 0,000 mm 0,0 UV-I 70 W/m 10,1 C 12,7 C 4,8 km/h (1 Bft) 97,87 %
05.10.2017 08:54 12,7 C 12,8 C 84 % 1014,1 hPa 0,0 l/m 1,2 km/h (1 Bft) SW 232 0 min 0,000 mm 0,0 UV-I 73 W/m 10,1 C 12,7 C 4,8 km/h (1 Bft) 97,37 %
05.10.2017 08:56 12,7 C 12,8 C 84 % 1014,1 hPa 0,0 l/m 1,3 km/h (1 Bft) SW 232 0 min 0,000 mm 0,0 UV-I 88 W/m 10,1 C 12,7 C 3,2 km/h (1 Bft) 98,11 %
05.10.2017 08:58 12,7 C 12,8 C 84 % 1014,1 hPa 0,0 l/m 1,4 km/h (1 Bft) SW 232 0 min 0,000 mm 0,0 UV-I 98 W/m 10,1 C 12,7 C 3,2 km/h (1 Bft) 100,00 %
05.10.2017 09:00 12,8 C 12,8 C 85 % 1014,1 hPa 0,0 l/m 1,8 km/h (1 Bft) SW 232 0 min 0,051 mm 0,0 UV-I 104 W/m 10,3 C 12,8 C 4,8 km/h (1 Bft) 97,14 %
05.10.2017 09:02 12,8 C 12,8 C 84 % 1014,1 hPa 0,0 l/m 3,1 km/h (1 Bft) SW 232 0 min 0,000 mm 0,0 UV-I 105 W/m 10,2 C 12,8 C 4,8 km/h (1 Bft) 96,30 %
05.10.2017 09:04 12,8 C 12,8 C 84 % 1014,1 hPa 0,0 l/m 2,6 km/h (1 Bft) SW 232 0 min 0,000 mm 0,0 UV-I 104 W/m 10,2 C 12,8 C 4,8 km/h (1 Bft) 97,87 %
05.10.2017 09:06 12,9 C 12,8 C 84 % 1014,1 hPa 0,0 l/m 1,4 km/h (1 Bft) SW 232 0 min 0,000 mm 0,0 UV-I 95 W/m 10,3 C 12,9 C 3,2 km/h (1 Bft) 96,23 %
05.10.2017 09:08 12,9 C 12,8 C 84 % 1014,1 hPa 0,0 l/m 1,7 km/h (1 Bft) SW 232 0 min 0,000 mm 0,0 UV-I 91 W/m 10,3 C 12,9 C 4,8 km/h (1 Bft) 97,37 %
05.10.2017 09:10 12,8 C 12,8 C 84 % 1014,0 hPa 0,0 l/m 1,9 km/h (1 Bft) SW 232 0 min 0,000 mm 0,0 UV-I 93 W/m 10,2 C 12,8 C 4,8 km/h (1 Bft) 100,00 %
05.10.2017 09:12 12,8 C 12,8 C 84 % 1014,0 hPa 0,0 l/m 1,7 km/h (1 Bft) SW 232 0 min 0,000 mm 0,0 UV-I 96 W/m 10,2 C 12,8 C 3,2 km/h (1 Bft) 100,00 %
05.10.2017 09:14 12,9 C 12,8 C 84 % 1014,0 hPa 0,0 l/m 1,9 km/h (1 Bft) SW 232 0 min 0,000 mm 0,0 UV-I 103 W/m 10,3 C 12,9 C 3,2 km/h (1 Bft) 100,00 %
05.10.2017 09:16 12,9 C 12,8 C 84 % 1013,9 hPa 0,0 l/m 2,0 km/h (1 Bft) S 177 0 min 0,000 mm 0,0 UV-I 109 W/m 10,3 C 12,9 C 6,4 km/h (2 Bft) 97,73 %
05.10.2017 09:19 12,9 C 12,8 C 84 % 1013,9 hPa 0,0 l/m 3,2 km/h (1 Bft) S 175 0 min 0,000 mm 0,0 UV-I 103 W/m 10,3 C 12,9 C 6,4 km/h (2 Bft) 95,77 %
05.10.2017 09:20 12,9 C 12,8 C 84 % 1013,9 hPa 0,0 l/m 3,2 km/h (1 Bft) S 175 0 min 0,000 mm 0,0 UV-I 104 W/m 10,3 C 12,9 C 4,8 km/h (1 Bft) 100,00 %
05.10.2017 09:22 12,9 C 12,8 C 84 % 1013,9 hPa 0,0 l/m 2,6 km/h (1 Bft) S 175 0 min 0,000 mm 0,0 UV-I 104 W/m 10,3 C 12,9 C 4,8 km/h (1 Bft) 95,12 %
05.10.2017 09:24 12,9 C 12,8 C 84 % 1013,9 hPa 0,0 l/m 2,6 km/h (1 Bft) S 175 0 min 0,000 mm 0,0 UV-I 102 W/m 10,3 C 12,9 C 4,8 km/h (1 Bft) 96,43 %
05.10.2017 09:26 12,9 C 12,8 C 84 % 1013,9 hPa 0,0 l/m 2,0 km/h (1 Bft) S 175 0 min 0,000 mm 0,0 UV-I 104 W/m 10,3 C 12,9 C 4,8 km/h (1 Bft) 97,73 %
05.10.2017 09:28 12,9 C 12,8 C 84 % 1013,8 hPa 0,0 l/m 2,8 km/h (1 Bft) S 175 0 min 0,000 mm 0,0 UV-I 101 W/m 10,3 C 12,9 C 4,8 km/h (1 Bft) 98,00 %
05.10.2017 09:30 12,9 C 12,8 C 83 % 1013,8 hPa 0,0 l/m 3,2 km/h (1 Bft) S 175 0 min 0,000 mm 0,0 UV-I 93 W/m 10,1 C 12,9 C 4,8 km/h (1 Bft) 97,37 %
05.10.2017 09:32 13,0 C 12,8 C 83 % 1013,9 hPa 0,0 l/m 2,4 km/h (1 Bft) S 176 0 min 0,000 mm 0,0 UV-I 80 W/m 10,2 C 13,0 C 4,8 km/h (1 Bft) 95,74 %
05.10.2017 09:34 13,0 C 12,8 C 84 % 1013,9 hPa 0,0 l/m 2,0 km/h (1 Bft) S 176 0 min 0,000 mm 0,0 UV-I 77 W/m 10,4 C 13,0 C 3,2 km/h (1 Bft) 97,87 %
05.10.2017 09:36 13,0 C 12,8 C 83 % 1013,9 hPa 0,0 l/m 2,3 km/h (1 Bft) S 176 0 min 0,000 mm 0,0 UV-I 75 W/m 10,2 C 13,0 C 3,2 km/h (1 Bft) 96,23 %
05.10.2017 09:38 13,1 C 12,8 C 84 % 1013,8 hPa 0,0 l/m 2,8 km/h (1 Bft) S 176 0 min 0,000 mm 0,0 UV-I 74 W/m 10,5 C 13,1 C 4,8 km/h (1 Bft) 97,56 %
05.10.2017 09:40 13,1 C 12,8 C 83 % 1013,7 hPa 0,0 l/m 2,7 km/h (1 Bft) S 176 0 min 0,000 mm 0,0 UV-I 71 W/m 10,3 C 13,1 C 4,8 km/h (1 Bft) 97,73 %
05.10.2017 09:42 13,1 C 12,8 C 83 % 1013,7 hPa 0,0 l/m 3,4 km/h (1 Bft) SW 214 0 min 0,000 mm 0,0 UV-I 70 W/m 10,3 C 13,1 C 4,8 km/h (1 Bft) 96,00 %
05.10.2017 09:44 13,1 C 12,8 C 83 % 1013,6 hPa 0,0 l/m 2,8 km/h (1 Bft) SW 214 0 min 0,000 mm 0,0 UV-I 68 W/m 10,3 C 13,1 C 4,8 km/h (1 Bft) 98,00 %
05.10.2017 09:46 13,2 C 12,8 C 83 % 1013,6 hPa 0,0 l/m 4,0 km/h (1 Bft) SW 214 0 min 0,000 mm 0,0 UV-I 65 W/m 10,4 C 13,2 C 6,4 km/h (2 Bft) 97,87 %
05.10.2017 09:48 13,2 C 12,8 C 83 % 1013,6 hPa 0,0 l/m 5,4 km/h (1 Bft) SW 215 0 min 0,000 mm 0,0 UV-I 65 W/m 10,4 C 13,2 C 9,7 km/h (2 Bft) 98,00 %
05.10.2017 09:50 13,2 C 12,8 C 82 % 1013,5 hPa 0,0 l/m 5,0 km/h (1 Bft) SW 223 0 min 0,000 mm 0,0 UV-I 62 W/m 10,2 C 13,2 C 8,0 km/h (2 Bft) 97,37 %
05.10.2017 09:52 13,3 C 12,8 C 80 % 1013,5 hPa 0,0 l/m 5,0 km/h (1 Bft) SW 227 0 min 0,000 mm 0,0 UV-I 58 W/m 9,9 C 13,3 C 8,0 km/h (2 Bft) 97,87 %
05.10.2017 09:54 13,3 C 12,8 C 79 % 1013,4 hPa 0,0 l/m 5,1 km/h (1 Bft) S-SW 196 0 min 0,000 mm 0,0 UV-I 61 W/m 9,7 C 13,3 C 8,0 km/h (2 Bft) 96,43 %
05.10.2017 09:56 13,3 C 12,8 C 79 % 1013,5 hPa 0,0 l/m 6,4 km/h (2 Bft) SW 230 0 min 0,000 mm 0,0 UV-I 63 W/m 9,7 C 13,3 C 9,7 km/h (2 Bft) 100,00 %
05.10.2017 09:58 13,4 C 12,8 C 79 % 1013,4 hPa 0,0 l/m 6,4 km/h (2 Bft) SW 228 0 min 0,000 mm 0,0 UV-I 64 W/m 9,8 C 13,4 C 9,7 km/h (2 Bft) 100,00 %
05.10.2017 10:00 13,4 C 12,8 C 78 % 1013,3 hPa 0,0 l/m 6,2 km/h (2 Bft) S-SW 207 0 min 0,000 mm 0,0 UV-I 64 W/m 9,6 C 13,4 C 9,7 km/h (2 Bft) 100,00 %
05.10.2017 10:02 13,4 C 12,8 C 77 % 1013,4 hPa 0,0 l/m 6,4 km/h (2 Bft) S-SW 210 0 min 0,051 mm 0,3 UV-I 72 W/m 9,5 C 13,4 C 9,7 km/h (2 Bft) 98,00 %
05.10.2017 10:04 13,5 C 12,8 C 77 % 1013,3 hPa 0,0 l/m 8,3 km/h (2 Bft) S-SW 205 0 min 0,000 mm 0,5 UV-I 82 W/m 9,5 C 12,4 C 12,9 km/h (3 Bft) 100,00 %
05.10.2017 10:06 13,6 C 12,8 C 77 % 1013,2 hPa 0,0 l/m 8,4 km/h (2 Bft) S-SW 211 0 min 0,000 mm 0,5 UV-I 93 W/m 9,6 C 12,4 C 12,9 km/h (3 Bft) 97,87 %
05.10.2017 10:08 13,6 C 12,8 C 77 % 1013,2 hPa 0,0 l/m 7,7 km/h (2 Bft) S-SW 211 0 min 0,000 mm 0,6 UV-I 96 W/m 9,6 C 12,8 C 11,3 km/h (2 Bft) 97,14 %
05.10.2017 10:10 13,7 C 12,8 C 76 % 1013,2 hPa 0,0 l/m 8,2 km/h (2 Bft) W-SW 241 0 min 0,000 mm 0,6 UV-I 92 W/m 9,5 C 12,6 C 12,9 km/h (3 Bft) 98,21 %
05.10.2017 10:12 13,7 C 12,8 C 77 % 1013,2 hPa 0,0 l/m 7,2 km/h (2 Bft) W-SW 240 0 min 0,000 mm 0,5 UV-I 88 W/m 9,7 C 13,2 C 12,9 km/h (3 Bft) 100,00 %
05.10.2017 10:14 13,7 C 12,8 C 76 % 1013,2 hPa 0,0 l/m 6,0 km/h (2 Bft) SW 228 0 min 0,000 mm 0,5 UV-I 88 W/m 9,5 C 13,7 C 9,7 km/h (2 Bft) 97,56 %
05.10.2017 10:16 13,8 C 12,8 C 75 % 1013,1 hPa 0,0 l/m 10,1 km/h (2 Bft) W-SW 251 0 min 0,000 mm 0,6 UV-I 93 W/m 9,4 C 11,7 C 16,1 km/h (3 Bft) 100,00 %
05.10.2017 10:18 13,8 C 12,8 C 76 % 1013,1 hPa 0,0 l/m 6,3 km/h (2 Bft) W-SW 258 0 min 0,000 mm 0,6 UV-I 101 W/m 9,6 C 13,8 C 11,3 km/h (2 Bft) 100,00 %
05.10.2017 10:20 13,9 C 12,8 C 77 % 1013,0 hPa 0,0 l/m 6,8 km/h (2 Bft) W-SW 240 0 min 0,000 mm 0,6 UV-I 108 W/m 9,9 C 13,7 C 11,3 km/h (2 Bft) 98,00 %
05.10.2017 10:22 13,9 C 12,8 C 77 % 1013,0 hPa 0,0 l/m 6,0 km/h (2 Bft) W 268 0 min 0,000 mm 0,6 UV-I 107 W/m 9,9 C 13,9 C 9,7 km/h (2 Bft) 100,00 %
05.10.2017 10:24 13,9 C 12,8 C 77 % 1013,0 hPa 0,0 l/m 5,5 km/h (1 Bft) SW 215 0 min 0,000 mm 0,6 UV-I 105 W/m 9,9 C 13,9 C 11,3 km/h (2 Bft) 100,00 %
05.10.2017 10:26 14,0 C 12,8 C 75 % 1013,0 hPa 0,0 l/m 7,1 km/h (2 Bft) SW 236 0 min 0,000 mm 0,7 UV-I 107 W/m 9,6 C 13,6 C 11,3 km/h (2 Bft) 100,00 %
05.10.2017 10:28 14,0 C 12,8 C 76 % 1012,9 hPa 0,0 l/m 6,3 km/h (2 Bft) W 267 0 min 0,000 mm 0,7 UV-I 113 W/m 9,8 C 14,0 C 9,7 km/h (2 Bft) 100,00 %
05.10.2017 10:30 14,1 C 12,8 C 76 % 1012,9 hPa 0,0 l/m 5,6 km/h (1 Bft) W-SW 258 0 min 0,000 mm 0,7 UV-I 116 W/m 9,9 C 14,1 C 9,7 km/h (2 Bft) 100,00 %
05.10.2017 10:32 14,1 C 12,8 C 76 % 1012,9 hPa 0,0 l/m 6,4 km/h (2 Bft) W 260 0 min 0,000 mm 0,6 UV-I 104 W/m 9,9 C 14,1 C 9,7 km/h (2 Bft) 100,00 %
05.10.2017 10:34 14,2 C 12,8 C 76 % 1012,9 hPa 0,0 l/m 6,3 km/h (2 Bft) W-SW 248 0 min 0,000 mm 0,6 UV-I 96 W/m 10,0 C 14,2 C 9,7 km/h (2 Bft) 100,00 %
05.10.2017 10:36 14,2 C 12,8 C 76 % 1012,9 hPa 0,0 l/m 6,1 km/h (2 Bft) W-SW 256 0 min 0,000 mm 0,7 UV-I 99 W/m 10,0 C 14,2 C 8,0 km/h (2 Bft) 100,00 %
05.10.2017 10:38 14,2 C 12,8 C 75 % 1012,8 hPa 0,0 l/m 6,8 km/h (2 Bft) W-SW 248 0 min 0,000 mm 0,7 UV-I 104 W/m 9,8 C 14,0 C 9,7 km/h (2 Bft) 100,00 %
05.10.2017 10:40 14,3 C 12,8 C 75 % 1012,7 hPa 0,0 l/m 5,0 km/h (1 Bft) W-SW 239 0 min 0,000 mm 0,7 UV-I 107 W/m 9,9 C 14,3 C 11,3 km/h (2 Bft) 100,00 %
05.10.2017 10:42 14,3 C 12,8 C 75 % 1012,8 hPa 0,0 l/m 7,3 km/h (2 Bft) SW 221 0 min 0,000 mm 0,8 UV-I 119 W/m 9,9 C 13,8 C 11,3 km/h (2 Bft) 100,00 %
05.10.2017 10:44 14,4 C 12,8 C 74 % 1012,7 hPa 0,0 l/m 8,8 km/h (2 Bft) W-SW 248 0 min 0,000 mm 0,8 UV-I 134 W/m 9,8 C 13,0 C 11,3 km/h (2 Bft) 100,00 %
05.10.2017 10:46 14,4 C 12,8 C 74 % 1012,7 hPa 0,0 l/m 9,9 km/h (2 Bft) SW 226 0 min 0,000 mm 0,9 UV-I 143 W/m 9,8 C 12,5 C 14,5 km/h (3 Bft) 100,00 %
05.10.2017 10:48 14,5 C 12,8 C 74 % 1012,6 hPa 0,0 l/m 7,2 km/h (2 Bft) SW 235 0 min 0,000 mm 0,9 UV-I 149 W/m 9,9 C 14,0 C 12,9 km/h (3 Bft) 100,00 %
05.10.2017 10:50 14,6 C 12,8 C 74 % 1012,6 hPa 0,0 l/m 8,2 km/h (2 Bft) W-SW 258 0 min 0,000 mm 1,0 UV-I 167 W/m 10,0 C 13,6 C 11,3 km/h (2 Bft) 100,00 %
05.10.2017 10:52 14,7 C 12,8 C 73 % 1012,6 hPa 0,0 l/m 9,9 km/h (2 Bft) S-SW 209 0 min 0,000 mm 1,0 UV-I 184 W/m 9,9 C 12,8 C 14,5 km/h (3 Bft) 97,56 %
05.10.2017 10:54 14,8 C 12,8 C 73 % 1012,5 hPa 0,0 l/m 8,2 km/h (2 Bft) W-SW 238 0 min 0,000 mm 1,1 UV-I 197 W/m 10,0 C 13,8 C 12,9 km/h (3 Bft) 96,43 %
05.10.2017 10:56 14,9 C 12,8 C 73 % 1012,4 hPa 0,0 l/m 9,2 km/h (2 Bft) SW 234 0 min 0,000 mm 1,1 UV-I 199 W/m 10,1 C 13,4 C 12,9 km/h (3 Bft) 97,14 %
05.10.2017 10:58 15,0 C 12,8 C 72 % 1012,4 hPa 0,0 l/m 11,4 km/h (2 Bft) SW 228 0 min 0,000 mm 1,1 UV-I 210 W/m 10,0 C 12,5 C 19,3 km/h (3 Bft) 100,00 %
05.10.2017 11:00 15,1 C 12,8 C 71 % 1012,4 hPa 0,0 l/m 9,4 km/h (2 Bft) W-SW 248 0 min 0,076 mm 1,2 UV-I 215 W/m 9,9 C 13,5 C 14,5 km/h (3 Bft) 100,00 %
05.10.2017 11:02 15,2 C 12,8 C 71 % 1012,3 hPa 0,0 l/m 11,2 km/h (2 Bft) SW 235 0 min 0,000 mm 1,1 UV-I 204 W/m 10,0 C 12,8 C 17,7 km/h (3 Bft) 100,00 %
05.10.2017 11:04 15,3 C 12,8 C 70 % 1012,3 hPa 0,0 l/m 10,7 km/h (2 Bft) SW 232 0 min 0,000 mm 1,0 UV-I 182 W/m 9,9 C 13,1 C 20,9 km/h (4 Bft) 100,00 %
05.10.2017 11:06 15,4 C 12,8 C 68 % 1012,3 hPa 0,0 l/m 13,4 km/h (3 Bft) W-SW 258 0 min 0,000 mm 1,0 UV-I 171 W/m 9,5 C 12,2 C 19,3 km/h (3 Bft) 100,00 %
05.10.2017 11:08 15,5 C 12,8 C 67 % 1012,3 hPa 0,0 l/m 14,2 km/h (3 Bft) W-SW 248 0 min 0,000 mm 1,1 UV-I 173 W/m 9,4 C 12,1 C 19,3 km/h (3 Bft) 100,00 %
05.10.2017 11:10 15,6 C 12,8 C 66 % 1012,3 hPa 0,0 l/m 13,0 km/h (3 Bft) SW 236 0 min 0,000 mm 1,1 UV-I 178 W/m 9,3 C 12,6 C 20,9 km/h (4 Bft) 97,56 %
05.10.2017 11:12 15,6 C 12,8 C 65 % 1012,2 hPa 0,0 l/m 11,9 km/h (2 Bft) S-SW 192 0 min 0,000 mm 1,1 UV-I 177 W/m 9,0 C 13,0 C 16,1 km/h (3 Bft) 100,00 %
05.10.2017 11:14 15,7 C 12,8 C 65 % 1012,3 hPa 0,0 l/m 13,9 km/h (3 Bft) SW 225 0 min 0,000 mm 1,2 UV-I 176 W/m 9,1 C 12,4 C 20,9 km/h (4 Bft) 100,00 %
05.10.2017 11:16 15,7 C 12,8 C 65 % 1012,3 hPa 0,0 l/m 16,4 km/h (3 Bft) W-SW 248 0 min 0,000 mm 1,2 UV-I 185 W/m 9,1 C 11,6 C 22,5 km/h (4 Bft) 97,22 %
05.10.2017 11:18 15,8 C 12,8 C 64 % 1012,1 hPa 0,0 l/m 13,3 km/h (3 Bft) W 262 0 min 0,000 mm 1,3 UV-I 203 W/m 9,0 C 12,7 C 20,9 km/h (4 Bft) 98,11 %
05.10.2017 11:20 15,8 C 12,8 C 64 % 1012,1 hPa 0,0 l/m 15,1 km/h (3 Bft) SW 215 0 min 0,000 mm 1,3 UV-I 216 W/m 9,0 C 12,1 C 20,9 km/h (4 Bft) 98,00 %
05.10.2017 11:22 15,9 C 12,8 C 63 % 1012,0 hPa 0,0 l/m 11,7 km/h (2 Bft) SW 215 0 min 0,000 mm 1,3 UV-I 225 W/m 8,9 C 13,4 C 16,1 km/h (3 Bft) 97,37 %
05.10.2017 11:24 16,0 C 12,8 C 62 % 1011,9 hPa 0,0 l/m 17,0 km/h (3 Bft) W-SW 242 0 min 0,000 mm 1,4 UV-I 245 W/m 8,7 C 11,8 C 27,4 km/h (4 Bft) 96,23 %
05.10.2017 11:26 16,1 C 12,8 C 61 % 1011,9 hPa 0,0 l/m 16,3 km/h (3 Bft) W-SW 244 0 min 0,000 mm 1,5 UV-I 272 W/m 8,6 C 12,1 C 24,1 km/h (4 Bft) 95,12 %
05.10.2017 11:28 16,2 C 12,8 C 61 % 1011,9 hPa 0,0 l/m 13,4 km/h (3 Bft) SW 217 0 min 0,000 mm 1,5 UV-I 271 W/m 8,7 C 13,2 C 19,3 km/h (3 Bft) 98,11 %
05.10.2017 11:30 16,3 C 12,8 C 61 % 1011,9 hPa 0,0 l/m 14,5 km/h (3 Bft) W-SW 243 0 min 0,000 mm 1,5 UV-I 250 W/m 8,8 C 12,9 C 24,1 km/h (4 Bft) 95,12 %
05.10.2017 11:32 16,3 C 12,8 C 60 % 1011,8 hPa 0,0 l/m 15,1 km/h (3 Bft) W-SW 238 0 min 0,000 mm 1,6 UV-I 261 W/m 8,5 C 12,7 C 22,5 km/h (4 Bft) 95,74 %
05.10.2017 11:34 16,4 C 12,8 C 59 % 1011,9 hPa 0,0 l/m 13,3 km/h (3 Bft) W-SW 248 0 min 0,000 mm 1,6 UV-I 261 W/m 8,4 C 13,4 C 22,5 km/h (4 Bft) 97,56 %
05.10.2017 11:36 16,5 C 12,8 C 60 % 1011,8 hPa 0,0 l/m 16,3 km/h (3 Bft) SW 227 0 min 0,000 mm 1,5 UV-I 249 W/m 8,7 C 12,6 C 25,7 km/h (4 Bft) 98,31 %
05.10.2017 11:38 16,6 C 12,8 C 58 % 1011,7 hPa 0,0 l/m 16,5 km/h (3 Bft) S-SW 207 0 min 0,000 mm 1,5 UV-I 239 W/m 8,3 C 12,7 C 29,0 km/h (5 Bft) 92,86 %
05.10.2017 11:40 16,6 C 12,8 C 58 % 1011,7 hPa 0,0 l/m 18,5 km/h (3 Bft) S-SW 202 0 min 0,000 mm 1,4 UV-I 210 W/m 8,3 C 12,2 C 25,7 km/h (4 Bft) 97,87 %
05.10.2017 11:42 16,7 C 12,8 C 57 % 1011,8 hPa 0,0 l/m 15,1 km/h (3 Bft) W 259 0 min 0,000 mm 1,4 UV-I 214 W/m 8,1 C 13,2 C 20,9 km/h (4 Bft) 96,23 %
05.10.2017 11:44 16,7 C 12,8 C 57 % 1011,6 hPa 0,0 l/m 16,5 km/h (3 Bft) W-SW 254 0 min 0,000 mm 1,4 UV-I 241 W/m 8,1 C 12,8 C 24,1 km/h (4 Bft) 94,74 %
05.10.2017 11:46 16,8 C 12,8 C 56 % 1011,6 hPa 0,0 l/m 15,4 km/h (3 Bft) W-SW 257 0 min 0,000 mm 1,4 UV-I 249 W/m 8,0 C 13,3 C 24,1 km/h (4 Bft) 96,00 %
05.10.2017 11:48 16,9 C 12,8 C 55 % 1011,6 hPa 0,0 l/m 15,0 km/h (3 Bft) SW 230 0 min 0,000 mm 1,3 UV-I 248 W/m 7,8 C 13,5 C 24,1 km/h (4 Bft) 100,00 %
05.10.2017 11:50 16,9 C 12,8 C 57 % 1011,6 hPa 0,0 l/m 11,6 km/h (2 Bft) SW 227 0 min 0,000 mm 1,3 UV-I 247 W/m 8,3 C 14,6 C 17,7 km/h (3 Bft) 100,00 %
05.10.2017 11:52 17,0 C 12,8 C 57 % 1011,6 hPa 0,0 l/m 10,4 km/h (2 Bft) W-SW 252 0 min 0,000 mm 1,3 UV-I 243 W/m 8,4 C 15,2 C 17,7 km/h (3 Bft) 100,00 %
05.10.2017 11:54 17,1 C 12,8 C 56 % 1011,6 hPa 0,0 l/m 11,3 km/h (2 Bft) W-SW 250 0 min 0,000 mm 1,3 UV-I 231 W/m 8,3 C 14,9 C 22,5 km/h (4 Bft) 100,00 %
05.10.2017 11:56 17,1 C 12,8 C 55 % 1011,5 hPa 0,0 l/m 11,5 km/h (2 Bft) W-SW 245 0 min 0,000 mm 1,2 UV-I 220 W/m 8,0 C 14,9 C 20,9 km/h (4 Bft) 100,00 %
05.10.2017 11:58 17,2 C 12,8 C 56 % 1011,5 hPa 0,0 l/m 12,2 km/h (2 Bft) W-SW 238 0 min 0,000 mm 1,2 UV-I 212 W/m 8,3 C 14,7 C 20,9 km/h (4 Bft) 100,00 %
05.10.2017 12:00 17,2 C 12,8 C 53 % 1011,4 hPa 0,0 l/m 12,5 km/h (3 Bft) W 261 0 min 0,178 mm 1,2 UV-I 207 W/m 7,5 C 14,6 C 19,3 km/h (3 Bft) 97,44 %
05.10.2017 12:02 17,3 C 12,8 C 53 % 1011,4 hPa 0,0 l/m 13,7 km/h (3 Bft) W-SW 246 0 min 0,000 mm 1,2 UV-I 204 W/m 7,6 C 14,4 C 20,9 km/h (4 Bft) 100,00 %
05.10.2017 12:04 17,3 C 12,8 C 54 % 1011,3 hPa 0,0 l/m 12,5 km/h (3 Bft) SW 232 0 min 0,000 mm 1,2 UV-I 201 W/m 7,9 C 14,8 C 19,3 km/h (3 Bft) 100,00 %
05.10.2017 12:06 17,4 C 12,8 C 52 % 1011,2 hPa 0,0 l/m 13,9 km/h (3 Bft) SW 233 0 min 0,000 mm 1,2 UV-I 202 W/m 7,4 C 14,4 C 20,9 km/h (4 Bft) 100,00 %
05.10.2017 12:08 17,4 C 12,8 C 52 % 1011,3 hPa 0,0 l/m 9,4 km/h (2 Bft) W-SW 247 0 min 0,000 mm 1,2 UV-I 200 W/m 7,4 C 16,0 C 16,1 km/h (3 Bft) 100,00 %
05.10.2017 12:10 17,5 C 12,8 C 51 % 1011,2 hPa 0,0 l/m 14,8 km/h (3 Bft) SW 236 0 min 0,000 mm 1,3 UV-I 209 W/m 7,3 C 14,3 C 22,5 km/h (4 Bft) 97,87 %
05.10.2017 12:12 17,6 C 12,8 C 51 % 1011,2 hPa 0,0 l/m 11,7 km/h (2 Bft) W-SW 247 0 min 0,000 mm 1,3 UV-I 215 W/m 7,3 C 15,4 C 16,1 km/h (3 Bft) 100,00 %
05.10.2017 12:14 17,6 C 12,8 C 50 % 1011,2 hPa 0,0 l/m 13,5 km/h (3 Bft) W-SW 254 0 min 0,000 mm 1,3 UV-I 214 W/m 7,1 C 14,8 C 19,3 km/h (3 Bft) 100,00 %
05.10.2017 12:16 17,7 C 12,8 C 50 % 1011,2 hPa 0,0 l/m 13,2 km/h (3 Bft) SW 219 0 min 0,000 mm 1,3 UV-I 224 W/m 7,1 C 15,0 C 24,1 km/h (4 Bft) 100,00 %
05.10.2017 12:18 17,7 C 12,8 C 50 % 1011,1 hPa 0,0 l/m 10,6 km/h (2 Bft) W 261 0 min 0,000 mm 1,5 UV-I 238 W/m 7,1 C 15,9 C 17,7 km/h (3 Bft) 100,00 %
05.10.2017 12:20 17,8 C 12,8 C 47 % 1011,1 hPa 0,0 l/m 13,4 km/h (3 Bft) W-SW 238 0 min 0,000 mm 1,5 UV-I 250 W/m 6,3 C 15,1 C 24,1 km/h (4 Bft) 96,43 %
05.10.2017 12:22 17,9 C 12,8 C 49 % 1011,1 hPa 0,0 l/m 10,5 km/h (2 Bft) W-SW 255 0 min 0,000 mm 1,6 UV-I 256 W/m 7,0 C 16,1 C 16,1 km/h (3 Bft) 100,00 %
05.10.2017 12:24 17,9 C 12,8 C 50 % 1011,1 hPa 0,0 l/m 10,4 km/h (2 Bft) W-SW 254 0 min 0,000 mm 1,5 UV-I 245 W/m 7,3 C 16,2 C 17,7 km/h (3 Bft) 97,56 %
05.10.2017 12:26 18,0 C 12,8 C 49 % 1011,0 hPa 0,0 l/m 8,7 km/h (2 Bft) S-SW 204 0 min 0,000 mm 1,4 UV-I 236 W/m 7,1 C 16,9 C 16,1 km/h (3 Bft) 97,87 %
05.10.2017 12:28 18,1 C 12,8 C 48 % 1011,0 hPa 0,0 l/m 10,5 km/h (2 Bft) SW 234 0 min 0,000 mm 1,4 UV-I 239 W/m 6,9 C 16,4 C 16,1 km/h (3 Bft) 98,00 %
05.10.2017 12:30 18,1 C 12,8 C 46 % 1011,0 hPa 0,0 l/m 11,5 km/h (2 Bft) W-SW 254 0 min 0,000 mm 1,4 UV-I 242 W/m 6,3 C 16,0 C 19,3 km/h (3 Bft) 97,87 %
05.10.2017 12:32 18,2 C 12,8 C 48 % 1010,9 hPa 0,0 l/m 9,3 km/h (2 Bft) W-SW 240 0 min 0,000 mm 1,6 UV-I 260 W/m 7,0 C 16,9 C 14,5 km/h (3 Bft) 97,87 %
05.10.2017 12:34 18,2 C 12,8 C 49 % 1010,8 hPa 0,0 l/m 9,2 km/h (2 Bft) SW 221 0 min 0,000 mm 1,8 UV-I 276 W/m 7,3 C 17,0 C 14,5 km/h (3 Bft) 97,44 %
05.10.2017 12:36 18,3 C 12,8 C 47 % 1010,8 hPa 0,0 l/m 7,6 km/h (2 Bft) W-SW 238 0 min 0,000 mm 1,8 UV-I 280 W/m 6,8 C 17,7 C 9,7 km/h (2 Bft) 98,18 %
05.10.2017 12:38 18,4 C 12,8 C 47 % 1010,8 hPa 0,0 l/m 9,6 km/h (2 Bft) W 259 0 min 0,000 mm 1,8 UV-I 284 W/m 6,9 C 17,0 C 14,5 km/h (3 Bft) 97,62 %
05.10.2017 12:40 18,5 C 12,8 C 47 % 1010,8 hPa 0,0 l/m 9,9 km/h (2 Bft) W-SW 252 0 min 0,000 mm 1,9 UV-I 288 W/m 7,0 C 17,0 C 17,7 km/h (3 Bft) 96,55 %
05.10.2017 12:42 18,6 C 12,8 C 45 % 1010,7 hPa 0,0 l/m 12,8 km/h (3 Bft) SW 229 0 min 0,000 mm 1,8 UV-I 257 W/m 6,4 C 16,2 C 19,3 km/h (3 Bft) 97,06 %
05.10.2017 12:44 18,7 C 12,8 C 44 % 1010,6 hPa 0,0 l/m 9,8 km/h (2 Bft) SW 228 0 min 0,000 mm 1,8 UV-I 240 W/m 6,2 C 17,3 C 14,5 km/h (3 Bft) 96,00 %
05.10.2017 12:46 18,7 C 12,8 C 44 % 1010,6 hPa 0,0 l/m 8,8 km/h (2 Bft) W-SW 252 0 min 0,000 mm 1,8 UV-I 223 W/m 6,2 C 17,7 C 14,5 km/h (3 Bft) 97,37 %
05.10.2017 12:48 18,8 C 12,8 C 44 % 1010,5 hPa 0,0 l/m 8,4 km/h (2 Bft) SW 227 0 min 0,000 mm 1,8 UV-I 218 W/m 6,3 C 17,9 C 16,1 km/h (3 Bft) 98,11 %
05.10.2017 12:50 18,7 C 12,8 C 45 % 1010,5 hPa 0,0 l/m 11,5 km/h (2 Bft) W-SW 253 0 min 0,000 mm 1,9 UV-I 219 W/m 6,5 C 16,7 C 20,9 km/h (4 Bft) 97,73 %
05.10.2017 12:52 18,8 C 12,8 C 42 % 1010,4 hPa 0,0 l/m 17,8 km/h (3 Bft) W 265 0 min 0,000 mm 2,1 UV-I 246 W/m 5,6 C 15,1 C 27,4 km/h (4 Bft) 98,00 %
05.10.2017 12:54 18,9 C 12,8 C 43 % 1010,4 hPa 0,0 l/m 11,7 km/h (2 Bft) W-SW 254 0 min 0,000 mm 2,2 UV-I 278 W/m 6,0 C 16,9 C 17,7 km/h (3 Bft) 92,11 %
05.10.2017 12:56 19,0 C 12,8 C 41 % 1010,3 hPa 0,0 l/m 12,1 km/h (2 Bft) W 259 0 min 0,000 mm 2,3 UV-I 328 W/m 5,4 C 16,8 C 17,7 km/h (3 Bft) 98,21 %
05.10.2017 12:58 19,2 C 12,8 C 41 % 1010,3 hPa 0,0 l/m 11,3 km/h (2 Bft) SW 226 0 min 0,000 mm 2,2 UV-I 308 W/m 5,6 C 17,3 C 16,1 km/h (3 Bft) 97,14 %
05.10.2017 13:00 19,3 C 12,8 C 40 % 1010,3 hPa 0,0 l/m 13,9 km/h (3 Bft) W 259 0 min 0,228 mm 2,3 UV-I 331 W/m 5,4 C 16,7 C 22,5 km/h (4 Bft) 98,00 %
05.10.2017 13:02 19,4 C 12,8 C 37 % 1010,2 hPa 0,0 l/m 13,9 km/h (3 Bft) SW 229 0 min 0,000 mm 2,2 UV-I 293 W/m 4,3 C 16,8 C 20,9 km/h (4 Bft) 95,74 %
05.10.2017 13:04 19,6 C 12,8 C 38 % 1010,1 hPa 0,0 l/m 8,2 km/h (2 Bft) W-SW 248 0 min 0,000 mm 2,2 UV-I 316 W/m 4,9 C 18,9 C 14,5 km/h (3 Bft) 96,43 %
05.10.2017 13:06 19,7 C 12,8 C 37 % 1010,1 hPa 0,0 l/m 11,3 km/h (2 Bft) W 265 2 min 0,000 mm 2,2 UV-I 334 W/m 4,6 C 17,9 C 20,9 km/h (4 Bft) 97,73 %
05.10.2017 13:08 19,9 C 12,8 C 36 % 1010,2 hPa 0,0 l/m 18,0 km/h (3 Bft) W 266 2 min 0,000 mm 2,5 UV-I 354 W/m 4,4 C 16,5 C 27,4 km/h (4 Bft) 97,56 %
05.10.2017 13:10 20,3 C 12,8 C 36 % 1010,1 hPa 0,0 l/m 14,1 km/h (3 Bft) W-SW 244 2 min 0,000 mm 2,8 UV-I 355 W/m 4,7 C 17,8 C 19,3 km/h (3 Bft) 96,23 %
05.10.2017 13:12 20,5 C 12,8 C 33 % 1010,0 hPa 0,0 l/m 19,4 km/h (3 Bft) SW 223 2 min 0,000 mm 2,7 UV-I 355 W/m 3,7 C 17,0 C 29,0 km/h (5 Bft) 95,24 %
05.10.2017 13:14 20,7 C 12,8 C 33 % 1010,1 hPa 0,0 l/m 20,5 km/h (4 Bft) W-SW 246 2 min 0,000 mm 2,7 UV-I 352 W/m 3,9 C 17,0 C 30,6 km/h (5 Bft) 96,00 %
05.10.2017 13:16 20,9 C 12,8 C 32 % 1009,9 hPa 0,0 l/m 11,3 km/h (2 Bft) SW 225 2 min 0,000 mm 2,5 UV-I 367 W/m 3,6 C 19,3 C 19,3 km/h (3 Bft) 96,00 %
05.10.2017 13:18 21,0 C 12,8 C 34 % 1009,8 hPa 0,0 l/m 12,5 km/h (3 Bft) NO 46 2 min 0,000 mm 2,2 UV-I 335 W/m 4,5 C 19,1 C 20,9 km/h (4 Bft) 95,12 %
05.10.2017 13:20 20,9 C 12,8 C 30 % 1009,8 hPa 0,0 l/m 20,6 km/h (4 Bft) SW 227 0 min 0,000 mm 2,2 UV-I 319 W/m 2,7 C 17,3 C 32,2 km/h (5 Bft) 95,74 %
05.10.2017 13:22 20,9 C 12,8 C 32 % 1009,7 hPa 0,0 l/m 15,2 km/h (3 Bft) W 259 0 min 0,000 mm 2,8 UV-I 313 W/m 3,6 C 18,3 C 22,5 km/h (4 Bft) 96,00 %
05.10.2017 13:24 20,9 C 12,8 C 30 % 1009,6 hPa 0,0 l/m 24,4 km/h (4 Bft) W-SW 256 2 min 0,000 mm 2,4 UV-I 521 W/m 2,7 C 16,7 C 37,0 km/h (5 Bft) 97,56 %
05.10.2017 13:26 21,0 C 12,8 C 31 % 1009,6 hPa 0,0 l/m 21,4 km/h (4 Bft) W 267 2 min 0,000 mm 3,0 UV-I 740 W/m 3,2 C 17,3 C 29,0 km/h (5 Bft) 92,45 %
05.10.2017 13:28 21,1 C 12,8 C 31 % 1009,5 hPa 0,0 l/m 22,7 km/h (4 Bft) W-SW 239 2 min 0,000 mm 3,2 UV-I 538 W/m 3,3 C 17,2 C 30,6 km/h (5 Bft) 92,68 %
05.10.2017 13:30 21,2 C 12,8 C 32 % 1009,4 hPa 0,0 l/m 21,3 km/h (4 Bft) W 259 2 min 0,000 mm 2,5 UV-I 426 W/m 3,8 C 17,5 C 30,6 km/h (5 Bft) 93,62 %
05.10.2017 13:33 21,3 C 12,8 C 30 % 1009,4 hPa 0,0 l/m 23,4 km/h (4 Bft) W-SW 245 3 min 0,000 mm 3,0 UV-I 367 W/m 3,0 C 17,4 C 35,4 km/h (5 Bft) 92,68 %
05.10.2017 13:34 21,4 C 12,8 C 31 % 1009,4 hPa 0,0 l/m 14,0 km/h (3 Bft) W 274 1 min 0,000 mm 2,5 UV-I 356 W/m 3,6 C 19,2 C 22,5 km/h (4 Bft) 100,00 %
05.10.2017 13:36 21,4 C 12,8 C 32 % 1009,4 hPa 0,0 l/m 18,5 km/h (3 Bft) S-SW 209 2 min 0,000 mm 2,4 UV-I 372 W/m 4,0 C 18,3 C 25,7 km/h (4 Bft) 100,00 %
05.10.2017 13:38 21,4 C 12,8 C 32 % 1009,5 hPa 0,0 l/m 19,7 km/h (3 Bft) W 269 2 min 0,000 mm 2,4 UV-I 360 W/m 4,0 C 18,1 C 29,0 km/h (5 Bft) 95,45 %
05.10.2017 13:40 21,4 C 12,8 C 31 % 1009,4 hPa 0,0 l/m 16,4 km/h (3 Bft) W 266 2 min 0,000 mm 2,6 UV-I 360 W/m 3,6 C 18,7 C 27,4 km/h (4 Bft) 95,12 %
05.10.2017 13:42 21,4 C 12,8 C 31 % 1009,3 hPa 0,0 l/m 21,5 km/h (4 Bft) W 263 2 min 0,000 mm 2,6 UV-I 442 W/m 3,6 C 17,8 C 29,0 km/h (5 Bft) 93,62 %
05.10.2017 13:44 21,4 C 12,8 C 30 % 1009,4 hPa 0,0 l/m 23,3 km/h (4 Bft) W 277 2 min 0,000 mm 2,5 UV-I 356 W/m 3,1 C 17,5 C 37,0 km/h (5 Bft) 98,00 %
05.10.2017 13:46 21,3 C 12,8 C 31 % 1009,3 hPa 0,0 l/m 22,8 km/h (4 Bft) W-SW 254 0 min 0,000 mm 2,4 UV-I 300 W/m 3,5 C 17,5 C 32,2 km/h (5 Bft) 97,56 %
05.10.2017 13:48 21,2 C 12,8 C 32 % 1009,3 hPa 0,0 l/m 15,4 km/h (3 Bft) SW 234 0 min 0,000 mm 2,2 UV-I 285 W/m 3,8 C 18,6 C 25,7 km/h (4 Bft) 96,43 %
05.10.2017 13:50 21,1 C 12,8 C 32 % 1009,1 hPa 0,0 l/m 17,5 km/h (3 Bft) W-SW 242 0 min 0,000 mm 2,2 UV-I 229 W/m 3,8 C 18,1 C 25,7 km/h (4 Bft) 100,00 %
05.10.2017 13:52 21,0 C 12,8 C 31 % 1009,1 hPa 0,0 l/m 20,2 km/h (4 Bft) W-SW 240 2 min 0,000 mm 2,9 UV-I 372 W/m 3,2 C 17,5 C 27,4 km/h (4 Bft) 100,00 %
05.10.2017 13:54 21,2 C 12,8 C 32 % 1008,9 hPa 0,0 l/m 19,1 km/h (3 Bft) S-SW 200 2 min 0,000 mm 3,0 UV-I 614 W/m 3,8 C 17,9 C 32,2 km/h (5 Bft) 100,00 %
05.10.2017 13:56 21,3 C 12,8 C 31 % 1008,8 hPa 0,0 l/m 23,8 km/h (4 Bft) W-SW 242 2 min 0,000 mm 2,8 UV-I 590 W/m 3,5 C 17,3 C 30,6 km/h (5 Bft) 100,00 %
05.10.2017 13:58 21,5 C 12,8 C 31 % 1008,9 hPa 0,0 l/m 22,7 km/h (4 Bft) W-SW 240 2 min 0,000 mm 3,0 UV-I 561 W/m 3,7 C 17,7 C 37,0 km/h (5 Bft) 100,00 %
05.10.2017 14:00 21,7 C 12,8 C 32 % 1008,9 hPa 0,0 l/m 17,0 km/h (3 Bft) W-SW 245 2 min 0,000 mm 2,9 UV-I 666 W/m 4,3 C 18,9 C 27,4 km/h (4 Bft) 100,00 %
05.10.2017 14:02 21,9 C 12,8 C 31 % 1008,9 hPa 0,0 l/m 23,4 km/h (4 Bft) W-SW 252 2 min 0,458 mm 2,7 UV-I 580 W/m 4,0 C 18,2 C 32,2 km/h (5 Bft) 100,00 %
05.10.2017 14:04 21,9 C 12,8 C 33 % 1008,8 hPa 0,0 l/m 17,3 km/h (3 Bft) W 272 2 min 0,000 mm 2,6 UV-I 410 W/m 4,9 C 19,1 C 30,6 km/h (5 Bft) 100,00 %
05.10.2017 14:06 21,9 C 12,8 C 31 % 1008,8 hPa 0,0 l/m 22,5 km/h (4 Bft) W-SW 238 2 min 0,000 mm 2,6 UV-I 410 W/m 4,0 C 18,3 C 33,8 km/h (5 Bft) 100,00 %
05.10.2017 14:08 21,8 C 12,8 C 29 % 1008,6 hPa 0,0 l/m 26,9 km/h (4 Bft) W-SW 247 2 min 0,000 mm 2,7 UV-I 452 W/m 3,0 C 17,6 C 38,6 km/h (5 Bft) 97,87 %
05.10.2017 14:10 21,8 C 12,8 C 29 % 1008,6 hPa 0,0 l/m 21,4 km/h (4 Bft) S-SW 211 2 min 0,000 mm 2,8 UV-I 572 W/m 3,0 C 18,3 C 30,6 km/h (5 Bft) 100,00 %
05.10.2017 14:12 21,8 C 12,8 C 29 % 1008,5 hPa 0,0 l/m 18,8 km/h (3 Bft) W-SW 254 2 min 0,000 mm 2,8 UV-I 565 W/m 3,0 C 18,7 C 40,2 km/h (6 Bft) 100,00 %
05.10.2017 14:14 22,0 C 12,8 C 31 % 1008,5 hPa 0,0 l/m 16,2 km/h (3 Bft) W-SW 247 2 min 0,000 mm 2,7 UV-I 563 W/m 4,1 C 19,4 C 25,7 km/h (4 Bft) 100,00 %
05.10.2017 14:16 22,1 C 12,8 C 30 % 1008,5 hPa 0,0 l/m 23,7 km/h (4 Bft) SW 225 2 min 0,000 mm 2,7 UV-I 567 W/m 3,7 C 18,4 C 37,0 km/h (5 Bft) 100,00 %
05.10.2017 14:18 22,1 C 12,8 C 30 % 1008,5 hPa 0,0 l/m 17,2 km/h (3 Bft) SW 228 2 min 0,000 mm 2,7 UV-I 561 W/m 3,7 C 19,4 C 24,1 km/h (4 Bft) 100,00 %
05.10.2017 14:20 22,2 C 12,8 C 30 % 1008,4 hPa 0,0 l/m 25,6 km/h (4 Bft) W-SW 242 2 min 0,000 mm 2,7 UV-I 558 W/m 3,8 C 18,3 C 38,6 km/h (5 Bft) 100,00 %
05.10.2017 14:22 22,2 C 12,8 C 29 % 1008,4 hPa 0,0 l/m 22,9 km/h (4 Bft) S-SW 211 2 min 0,000 mm 2,6 UV-I 555 W/m 3,3 C 18,6 C 35,4 km/h (5 Bft) 100,00 %
05.10.2017 14:24 22,2 C 12,8 C 28 % 1008,3 hPa 0,0 l/m 26,4 km/h (4 Bft) S-SW 213 2 min 0,000 mm 2,6 UV-I 554 W/m 2,8 C 18,2 C 40,2 km/h (6 Bft) 100,00 %
05.10.2017 14:26 22,2 C 12,8 C 29 % 1008,3 hPa 0,0 l/m 24,7 km/h (4 Bft) S-SW 212 2 min 0,000 mm 2,6 UV-I 559 W/m 3,3 C 18,4 C 38,6 km/h (5 Bft) 100,00 %
05.10.2017 14:28 22,2 C 12,8 C 29 % 1008,2 hPa 0,0 l/m 28,5 km/h (4 Bft) W 275 2 min 0,000 mm 2,6 UV-I 562 W/m 3,3 C 18,0 C 41,8 km/h (6 Bft) 100,00 %
05.10.2017 14:30 22,2 C 12,8 C 28 % 1008,0 hPa 0,0 l/m 26,6 km/h (4 Bft) SW 236 2 min 0,000 mm 2,5 UV-I 558 W/m 2,8 C 18,2 C 38,6 km/h (5 Bft) 100,00 %
05.10.2017 14:32 22,2 C 12,8 C 29 % 1008,4 hPa 0,0 l/m 26,0 km/h (4 Bft) W-SW 253 2 min 0,000 mm 2,5 UV-I 551 W/m 3,3 C 18,2 C 43,5 km/h (6 Bft) 95,83 %
05.10.2017 14:34 22,2 C 12,8 C 29 % 1008,2 hPa 0,0 l/m 25,4 km/h (4 Bft) W-SW 251 2 min 0,000 mm 2,5 UV-I 547 W/m 3,3 C 18,3 C 33,8 km/h (5 Bft) 100,00 %
05.10.2017 14:36 22,2 C 12,8 C 30 % 1007,9 hPa 0,0 l/m 17,0 km/h (3 Bft) W-SW 247 2 min 0,000 mm 2,4 UV-I 541 W/m 3,8 C 19,5 C 30,6 km/h (5 Bft) 100,00 %
05.10.2017 14:38 22,3 C 12,8 C 30 % 1007,9 hPa 0,0 l/m 20,0 km/h (4 Bft) W 261 2 min 0,000 mm 2,4 UV-I 540 W/m 3,9 C 19,2 C 27,4 km/h (4 Bft) 100,00 %
05.10.2017 14:40 22,3 C 12,8 C 30 % 1007,9 hPa 0,0 l/m 14,1 km/h (3 Bft) W-SW 254 2 min 0,000 mm 2,4 UV-I 535 W/m 3,9 C 20,2 C 20,9 km/h (4 Bft) 100,00 %
05.10.2017 14:42 22,4 C 12,8 C 30 % 1007,8 hPa 0,0 l/m 13,2 km/h (3 Bft) W-SW 247 2 min 0,000 mm 2,4 UV-I 532 W/m 4,0 C 20,5 C 19,3 km/h (3 Bft) 100,00 %
05.10.2017 14:44 22,4 C 12,8 C 30 % 1007,9 hPa 0,0 l/m 21,4 km/h (4 Bft) W-SW 248 2 min 0,000 mm 2,3 UV-I 527 W/m 4,0 C 19,1 C 27,4 km/h (4 Bft) 100,00 %
05.10.2017 14:46 22,5 C 12,8 C 31 % 1007,7 hPa 0,0 l/m 12,5 km/h (3 Bft) SW 232 2 min 0,000 mm 2,3 UV-I 522 W/m 4,5 C 20,8 C 27,4 km/h (4 Bft) 100,00 %
05.10.2017 14:48 22,6 C 12,8 C 31 % 1007,8 hPa 0,0 l/m 11,5 km/h (2 Bft) W-SW 239 2 min 0,000 mm 2,3 UV-I 515 W/m 4,6 C 21,1 C 20,9 km/h (4 Bft) 100,00 %
05.10.2017 14:50 22,6 C 12,8 C 30 % 1007,9 hPa 0,0 l/m 23,3 km/h (4 Bft) W 264 2 min 0,000 mm 2,2 UV-I 511 W/m 4,1 C 19,1 C 35,4 km/h (5 Bft) 100,00 %
05.10.2017 14:52 22,6 C 12,8 C 31 % 1007,9 hPa 0,0 l/m 19,7 km/h (3 Bft) W 264 2 min 0,000 mm 2,2 UV-I 507 W/m 4,6 C 19,6 C 27,4 km/h (4 Bft) 97,73 %
05.10.2017 14:54 22,6 C 12,8 C 30 % 1007,8 hPa 0,0 l/m 23,2 km/h (4 Bft) W-NW 283 2 min 0,000 mm 2,2 UV-I 502 W/m 4,1 C 19,1 C 43,5 km/h (6 Bft) 100,00 %
05.10.2017 14:56 22,5 C 12,8 C 30 % 1007,7 hPa 0,0 l/m 23,3 km/h (4 Bft) SW 227 2 min 0,000 mm 2,2 UV-I 498 W/m 4,1 C 19,0 C 43,5 km/h (6 Bft) 100,00 %
05.10.2017 14:58 22,5 C 12,8 C 30 % 1007,6 hPa 0,0 l/m 21,4 km/h (4 Bft) W 259 2 min 0,000 mm 2,1 UV-I 495 W/m 4,1 C 19,2 C 38,6 km/h (5 Bft) 100,00 %
05.10.2017 15:00 22,6 C 12,8 C 30 % 1007,6 hPa 0,0 l/m 16,9 km/h (3 Bft) W-SW 243 2 min 0,000 mm 2,1 UV-I 491 W/m 4,1 C 20,1 C 25,7 km/h (4 Bft) 100,00 %
05.10.2017 15:02 22,5 C 12,8 C 31 % 1007,5 hPa 0,0 l/m 22,8 km/h (4 Bft) W-SW 241 2 min 0,533 mm 2,1 UV-I 489 W/m 4,5 C 19,0 C 35,4 km/h (5 Bft) 97,56 %
05.10.2017 15:04 22,6 C 12,8 C 31 % 1007,5 hPa 0,0 l/m 20,3 km/h (4 Bft) SW 233 2 min 0,000 mm 2,0 UV-I 486 W/m 4,6 C 19,5 C 32,2 km/h (5 Bft) 98,00 %
05.10.2017 15:06 22,6 C 12,8 C 30 % 1007,3 hPa 0,0 l/m 16,4 km/h (3 Bft) SW 220 2 min 0,000 mm 2,0 UV-I 481 W/m 4,1 C 20,1 C 24,1 km/h (4 Bft) 93,33 %
05.10.2017 15:08 22,7 C 12,8 C 30 % 1007,4 hPa 0,0 l/m 19,5 km/h (3 Bft) W-SW 257 2 min 0,000 mm 2,0 UV-I 477 W/m 4,2 C 19,8 C 38,6 km/h (5 Bft) 97,01 %
05.10.2017 15:10 22,7 C 12,8 C 29 % 1007,4 hPa 0,0 l/m 23,3 km/h (4 Bft) W-SW 252 2 min 0,000 mm 2,0 UV-I 474 W/m 3,7 C 19,2 C 37,0 km/h (5 Bft) 100,00 %
05.10.2017 15:12 22,7 C 12,8 C 29 % 1007,3 hPa 0,0 l/m 23,9 km/h (4 Bft) S 188 2 min 0,000 mm 1,9 UV-I 469 W/m 3,7 C 19,2 C 37,0 km/h (5 Bft) 93,02 %
05.10.2017 15:14 22,7 C 12,8 C 29 % 1007,2 hPa 0,0 l/m 18,7 km/h (3 Bft) W-SW 258 2 min 0,000 mm 1,9 UV-I 360 W/m 3,7 C 19,9 C 27,4 km/h (4 Bft) 98,21 %
05.10.2017 15:16 22,7 C 12,8 C 30 % 1007,2 hPa 0,0 l/m 19,0 km/h (3 Bft) W-SW 253 2 min 0,000 mm 1,9 UV-I 445 W/m 4,2 C 19,8 C 29,0 km/h (5 Bft) 97,37 %
05.10.2017 15:18 22,7 C 12,8 C 30 % 1007,2 hPa 0,0 l/m 19,7 km/h (3 Bft) S-SW 205 2 min 0,000 mm 1,8 UV-I 457 W/m 4,2 C 19,7 C 25,7 km/h (4 Bft) 98,39 %
05.10.2017 15:20 22,8 C 12,8 C 28 % 1007,2 hPa 0,0 l/m 25,3 km/h (4 Bft) W 262 2 min 0,000 mm 1,8 UV-I 455 W/m 3,3 C 19,1 C 43,5 km/h (6 Bft) 92,86 %
05.10.2017 15:22 22,8 C 12,8 C 28 % 1007,3 hPa 0,0 l/m 28,9 km/h (5 Bft) W-SW 255 2 min 0,000 mm 1,8 UV-I 449 W/m 3,3 C 18,8 C 41,8 km/h (6 Bft) 98,59 %
05.10.2017 15:24 22,8 C 12,8 C 29 % 1007,0 hPa 0,0 l/m 20,9 km/h (4 Bft) SW 223 2 min 0,000 mm 1,7 UV-I 444 W/m 3,8 C 19,7 C 38,6 km/h (5 Bft) 95,74 %
05.10.2017 15:26 22,8 C 12,8 C 29 % 1007,1 hPa 0,0 l/m 21,3 km/h (4 Bft) SW 234 2 min 0,000 mm 1,7 UV-I 440 W/m 3,8 C 19,6 C 30,6 km/h (5 Bft) 94,64 %
05.10.2017 15:28 22,8 C 12,8 C 29 % 1007,0 hPa 0,0 l/m 16,7 km/h (3 Bft) W-SW 253 2 min 0,000 mm 1,7 UV-I 437 W/m 3,8 C 20,3 C 24,1 km/h (4 Bft) 97,14 %
05.10.2017 15:30 22,8 C 12,8 C 29 % 1007,0 hPa 0,0 l/m 17,0 km/h (3 Bft) W-SW 239 2 min 0,000 mm 1,6 UV-I 434 W/m 3,8 C 20,3 C 29,0 km/h (5 Bft) 98,11 %
05.10.2017 15:32 22,8 C 12,8 C 30 % 1006,9 hPa 0,0 l/m 15,7 km/h (3 Bft) SW 227 2 min 0,000 mm 1,6 UV-I 434 W/m 4,3 C 20,5 C 22,5 km/h (4 Bft) 97,73 %
05.10.2017 15:34 22,9 C 12,8 C 30 % 1006,9 hPa 0,0 l/m 14,1 km/h (3 Bft) W 260 2 min 0,000 mm 1,6 UV-I 437 W/m 4,4 C 20,9 C 20,9 km/h (4 Bft) 94,34 %
05.10.2017 15:36 22,9 C 12,8 C 31 % 1006,9 hPa 0,0 l/m 12,6 km/h (3 Bft) W-SW 254 2 min 0,000 mm 1,6 UV-I 450 W/m 4,9 C 21,2 C 22,5 km/h (4 Bft) 100,00 %
05.10.2017 15:38 23,0 C 12,8 C 29 % 1006,9 hPa 0,0 l/m 17,6 km/h (3 Bft) W 261 2 min 0,000 mm 1,6 UV-I 470 W/m 4,0 C 20,4 C 27,4 km/h (4 Bft) 100,00 %
05.10.2017 15:40 22,9 C 12,8 C 30 % 1006,9 hPa 0,0 l/m 18,3 km/h (3 Bft) W-SW 243 2 min 0,000 mm 1,4 UV-I 494 W/m 4,4 C 20,2 C 24,1 km/h (4 Bft) 100,00 %
05.10.2017 15:42 23,0 C 12,8 C 31 % 1006,8 hPa 0,0 l/m 13,4 km/h (3 Bft) W-SW 257 2 min 0,000 mm 1,3 UV-I 584 W/m 5,0 C 21,2 C 19,3 km/h (3 Bft) 98,11 %
05.10.2017 15:44 23,1 C 12,8 C 32 % 1006,8 hPa 0,0 l/m 14,9 km/h (3 Bft) SW 234 2 min 0,000 mm 1,1 UV-I 469 W/m 5,5 C 21,0 C 27,4 km/h (4 Bft) 97,73 %
05.10.2017 15:46 23,1 C 12,8 C 27 % 1006,6 hPa 0,0 l/m 21,2 km/h (4 Bft) SW 220 0 min 0,000 mm 0,9 UV-I 223 W/m 3,1 C 20,0 C 29,0 km/h (5 Bft) 100,00 %
05.10.2017 15:48 23,0 C 12,8 C 27 % 1006,8 hPa 0,0 l/m 22,5 km/h (4 Bft) S-SW 211 2 min 0,000 mm 1,1 UV-I 453 W/m 3,0 C 19,7 C 32,2 km/h (5 Bft) 98,51 %
05.10.2017 15:50 23,0 C 12,8 C 28 % 1006,6 hPa 0,0 l/m 19,1 km/h (3 Bft) W-SW 251 2 min 0,000 mm 0,8 UV-I 390 W/m 3,5 C 20,2 C 33,8 km/h (5 Bft) 98,00 %
05.10.2017 15:52 22,9 C 12,8 C 28 % 1006,8 hPa 0,0 l/m 19,7 km/h (3 Bft) NW 312 0 min 0,000 mm 0,7 UV-I 170 W/m 3,4 C 20,0 C 32,2 km/h (5 Bft) 100,00 %
05.10.2017 15:54 22,7 C 12,8 C 29 % 1006,6 hPa 0,0 l/m 19,2 km/h (3 Bft) W-SW 256 0 min 0,000 mm 0,7 UV-I 170 W/m 3,7 C 19,8 C 38,6 km/h (5 Bft) 100,00 %
05.10.2017 15:56 22,6 C 12,8 C 29 % 1006,6 hPa 0,0 l/m 19,4 km/h (3 Bft) W 267 0 min 0,000 mm 0,6 UV-I 161 W/m 3,7 C 19,7 C 30,6 km/h (5 Bft) 100,00 %
05.10.2017 15:58 22,4 C 12,8 C 29 % 1006,6 hPa 0,0 l/m 17,8 km/h (3 Bft) W-SW 244 0 min 0,000 mm 0,6 UV-I 147 W/m 3,5 C 19,7 C 32,2 km/h (5 Bft) 100,00 %
05.10.2017 16:00 22,4 C 12,8 C 29 % 1006,6 hPa 0,0 l/m 16,0 km/h (3 Bft) W-SW 240 0 min 0,432 mm 0,6 UV-I 149 W/m 3,5 C 20,0 C 29,0 km/h (5 Bft) 100,00 %
05.10.2017 16:02 22,3 C 12,8 C 30 % 1006,4 hPa 0,0 l/m 12,9 km/h (3 Bft) S 190 0 min 0,000 mm 0,6 UV-I 150 W/m 3,9 C 20,5 C 20,9 km/h (4 Bft) 98,00 %
05.10.2017 16:04 22,2 C 12,8 C 30 % 1006,5 hPa 0,0 l/m 15,4 km/h (3 Bft) W 275 0 min 0,000 mm 0,7 UV-I 148 W/m 3,8 C 19,8 C 22,5 km/h (4 Bft) 100,00 %
05.10.2017 16:06 22,2 C 12,8 C 28 % 1006,4 hPa 0,0 l/m 24,3 km/h (4 Bft) W-SW 258 0 min 0,000 mm 0,7 UV-I 145 W/m 2,8 C 18,5 C 40,2 km/h (6 Bft) 100,00 %
05.10.2017 16:08 22,2 C 12,8 C 29 % 1006,4 hPa 0,0 l/m 23,4 km/h (4 Bft) SW 236 0 min 0,000 mm 0,8 UV-I 146 W/m 3,3 C 18,6 C 33,8 km/h (5 Bft) 98,00 %
05.10.2017 16:10 22,2 C 12,8 C 27 % 1006,2 hPa 0,0 l/m 31,6 km/h (5 Bft) W-SW 254 0 min 0,000 mm 0,8 UV-I 121 W/m 2,3 C 17,7 C 45,1 km/h (6 Bft) 100,00 %
05.10.2017 16:12 22,2 C 12,8 C 27 % 1006,2 hPa 0,0 l/m 22,9 km/h (4 Bft) W 259 0 min 0,000 mm 0,7 UV-I 116 W/m 2,3 C 18,6 C 38,6 km/h (5 Bft) 100,00 %
05.10.2017 16:14 22,2 C 12,8 C 27 % 1006,2 hPa 0,0 l/m 25,4 km/h (4 Bft) W-SW 240 2 min 0,000 mm 0,9 UV-I 256 W/m 2,3 C 18,3 C 35,4 km/h (5 Bft) 97,87 %
05.10.2017 16:16 22,3 C 12,8 C 28 % 1006,1 hPa 0,0 l/m 24,2 km/h (4 Bft) W 259 2 min 0,000 mm 0,9 UV-I 419 W/m 2,9 C 18,6 C 33,8 km/h (5 Bft) 100,00 %
05.10.2017 16:18 22,3 C 12,8 C 27 % 1006,2 hPa 0,0 l/m 28,2 km/h (4 Bft) W-SW 245 2 min 0,000 mm 0,9 UV-I 411 W/m 2,4 C 18,1 C 45,1 km/h (6 Bft) 100,00 %
05.10.2017 16:20 22,5 C 12,8 C 27 % 1006,1 hPa 0,0 l/m 25,6 km/h (4 Bft) SW 226 2 min 0,000 mm 0,9 UV-I 397 W/m 2,6 C 18,7 C 38,6 km/h (5 Bft) 100,00 %
05.10.2017 16:22 22,6 C 12,8 C 27 % 1006,1 hPa 0,0 l/m 26,8 km/h (4 Bft) SW 216 2 min 0,000 mm 0,7 UV-I 324 W/m 2,7 C 18,7 C 49,9 km/h (6 Bft) 100,00 %
05.10.2017 16:24 22,6 C 12,8 C 27 % 1006,1 hPa 0,0 l/m 18,3 km/h (3 Bft) W 259 2 min 0,000 mm 0,7 UV-I 210 W/m 2,7 C 19,8 C 24,1 km/h (4 Bft) 100,00 %
05.10.2017 16:26 22,6 C 12,8 C 27 % 1006,0 hPa 0,0 l/m 25,7 km/h (4 Bft) W-SW 241 0 min 0,000 mm 0,8 UV-I 148 W/m 2,7 C 18,8 C 43,5 km/h (6 Bft) 98,18 %
05.10.2017 16:28 22,6 C 12,8 C 26 % 1005,9 hPa 0,0 l/m 29,9 km/h (5 Bft) W 261 2 min 0,000 mm 0,6 UV-I 207 W/m 2,1 C 18,4 C 49,9 km/h (6 Bft) 100,00 %
05.10.2017 16:30 22,6 C 12,8 C 26 % 1005,9 hPa 0,0 l/m 28,3 km/h (4 Bft) SW 231 2 min 0,000 mm 0,6 UV-I 214 W/m 2,1 C 18,5 C 49,9 km/h (6 Bft) 100,00 %
05.10.2017 16:32 22,7 C 12,8 C 26 % 1005,9 hPa 0,0 l/m 26,1 km/h (4 Bft) S 176 2 min 0,000 mm 0,7 UV-I 288 W/m 2,2 C 18,9 C 41,8 km/h (6 Bft) 100,00 %
05.10.2017 16:34 22,7 C 12,8 C 26 % 1005,6 hPa 0,0 l/m 27,8 km/h (4 Bft) W-SW 246 2 min 0,000 mm 0,7 UV-I 362 W/m 2,2 C 18,7 C 43,5 km/h (6 Bft) 97,37 %
05.10.2017 16:36 22,8 C 12,8 C 25 % 1005,7 hPa 0,0 l/m 31,3 km/h (5 Bft) W-SW 256 2 min 0,000 mm 0,7 UV-I 319 W/m 1,7 C 18,5 C 45,1 km/h (6 Bft) 100,00 %
05.10.2017 16:38 22,8 C 12,8 C 26 % 1005,7 hPa 0,0 l/m 22,6 km/h (4 Bft) W 263 2 min 0,000 mm 0,7 UV-I 309 W/m 2,3 C 19,5 C 35,4 km/h (5 Bft) 100,00 %
05.10.2017 16:40 22,7 C 12,8 C 25 % 1005,7 hPa 0,0 l/m 30,1 km/h (5 Bft) W 264 2 min 0,000 mm 0,7 UV-I 294 W/m 1,7 C 18,5 C 56,3 km/h (7 Bft) 100,00 %
05.10.2017 16:42 22,7 C 12,8 C 26 % 1005,6 hPa 0,0 l/m 27,3 km/h (4 Bft) W 269 2 min 0,000 mm 0,6 UV-I 270 W/m 2,2 C 18,8 C 41,8 km/h (6 Bft) 98,21 %
05.10.2017 16:44 22,6 C 12,8 C 26 % 1005,8 hPa 0,0 l/m 28,9 km/h (5 Bft) W-SW 238 2 min 0,000 mm 0,6 UV-I 256 W/m 2,1 C 18,5 C 46,7 km/h (6 Bft) 100,00 %
05.10.2017 16:46 22,6 C 12,8 C 26 % 1005,7 hPa 0,0 l/m 26,1 km/h (4 Bft) SW 215 2 min 0,000 mm 0,6 UV-I 255 W/m 2,1 C 18,8 C 40,2 km/h (6 Bft) 98,11 %
05.10.2017 16:48 22,6 C 12,8 C 26 % 1005,8 hPa 0,0 l/m 28,3 km/h (4 Bft) W 263 2 min 0,000 mm 0,6 UV-I 253 W/m 2,1 C 18,5 C 43,5 km/h (6 Bft) 98,21 %
05.10.2017 16:50 22,5 C 12,8 C 26 % 1005,8 hPa 0,0 l/m 29,8 km/h (5 Bft) W-SW 239 2 min 0,000 mm 0,5 UV-I 242 W/m 2,0 C 18,3 C 40,2 km/h (6 Bft) 100,00 %
05.10.2017 16:52 22,4 C 12,8 C 27 % 1005,8 hPa 0,0 l/m 26,8 km/h (4 Bft) S-SW 202 2 min 0,000 mm 0,5 UV-I 248 W/m 2,5 C 18,4 C 48,3 km/h (6 Bft) 100,00 %
05.10.2017 16:54 22,5 C 12,8 C 27 % 1005,7 hPa 0,0 l/m 31,1 km/h (5 Bft) W-SW 238 2 min 0,000 mm 0,5 UV-I 250 W/m 2,6 C 18,1 C 48,3 km/h (6 Bft) 98,21 %
05.10.2017 16:56 22,4 C 12,8 C 28 % 1005,5 hPa 0,0 l/m 25,9 km/h (4 Bft) W-SW 244 2 min 0,000 mm 0,5 UV-I 249 W/m 3,0 C 18,5 C 46,7 km/h (6 Bft) 97,56 %
05.10.2017 16:58 22,4 C 12,8 C 29 % 1005,5 hPa 0,0 l/m 22,3 km/h (4 Bft) W 267 2 min 0,000 mm 0,2 UV-I 195 W/m 3,5 C 19,0 C 32,2 km/h (5 Bft) 98,11 %
05.10.2017 17:00 22,3 C 12,8 C 28 % 1005,5 hPa 0,0 l/m 21,5 km/h (4 Bft) SW 236 2 min 0,432 mm 0,0 UV-I 197 W/m 2,9 C 19,0 C 33,8 km/h (5 Bft) 97,73 %
05.10.2017 17:02 22,3 C 12,8 C 29 % 1005,5 hPa 0,0 l/m 24,8 km/h (4 Bft) W 269 2 min 0,000 mm 0,0 UV-I 177 W/m 3,4 C 18,5 C 37,0 km/h (5 Bft) 97,73 %
05.10.2017 17:04 22,2 C 12,8 C 28 % 1005,5 hPa 0,0 l/m 24,1 km/h (4 Bft) SW 215 2 min 0,000 mm 0,0 UV-I 186 W/m 2,8 C 18,5 C 40,2 km/h (6 Bft) 92,00 %
05.10.2017 17:06 22,3 C 12,8 C 29 % 1005,5 hPa 0,0 l/m 30,4 km/h (5 Bft) SW 231 2 min 0,000 mm 0,0 UV-I 190 W/m 3,4 C 17,9 C 48,3 km/h (6 Bft) 93,62 %
05.10.2017 17:08 22,2 C 12,8 C 29 % 1005,5 hPa 0,0 l/m 24,6 km/h (4 Bft) W-SW 242 2 min 0,000 mm 0,0 UV-I 192 W/m 3,3 C 18,4 C 37,0 km/h (5 Bft) 95,56 %
05.10.2017 17:10 22,2 C 12,8 C 29 % 1005,6 hPa 0,0 l/m 21,5 km/h (4 Bft) W 267 2 min 0,000 mm 0,0 UV-I 197 W/m 3,3 C 18,8 C 30,6 km/h (5 Bft) 94,00 %
05.10.2017 17:12 22,2 C 12,8 C 30 % 1005,5 hPa 0,0 l/m 20,7 km/h (4 Bft) SW 215 2 min 0,000 mm 0,0 UV-I 204 W/m 3,8 C 18,9 C 30,6 km/h (5 Bft) 94,74 %
05.10.2017 17:14 22,2 C 12,8 C 29 % 1005,5 hPa 0,0 l/m 16,7 km/h (3 Bft) W-SW 248 2 min 0,000 mm 0,0 UV-I 127 W/m 3,3 C 19,6 C 32,2 km/h (5 Bft) 96,61 %
05.10.2017 17:16 22,1 C 12,8 C 30 % 1005,4 hPa 0,0 l/m 21,7 km/h (4 Bft) SW 229 0 min 0,000 mm 0,0 UV-I 65 W/m 3,7 C 18,7 C 30,6 km/h (5 Bft) 93,62 %
05.10.2017 17:18 22,1 C 12,8 C 30 % 1005,4 hPa 0,0 l/m 19,6 km/h (3 Bft) W-SW 244 0 min 0,000 mm 0,0 UV-I 64 W/m 3,7 C 19,0 C 33,8 km/h (5 Bft) 94,74 %
05.10.2017 17:20 21,9 C 12,8 C 30 % 1005,4 hPa 0,0 l/m 19,6 km/h (3 Bft) W-SW 247 0 min 0,000 mm 0,0 UV-I 64 W/m 3,5 C 18,7 C 25,7 km/h (4 Bft) 95,74 %
05.10.2017 17:22 21,9 C 12,8 C 30 % 1005,4 hPa 0,0 l/m 21,1 km/h (4 Bft) W-SW 253 0 min 0,000 mm 0,0 UV-I 61 W/m 3,5 C 18,5 C 30,6 km/h (5 Bft) 94,74 %
05.10.2017 17:24 21,8 C 12,8 C 30 % 1005,4 hPa 0,0 l/m 22,8 km/h (4 Bft) W 264 0 min 0,000 mm 0,0 UV-I 55 W/m 3,5 C 18,1 C 37,0 km/h (5 Bft) 94,44 %
05.10.2017 17:26 21,8 C 12,8 C 30 % 1005,3 hPa 0,0 l/m 25,7 km/h (4 Bft) SW 221 0 min 0,000 mm 0,0 UV-I 44 W/m 3,5 C 17,7 C 33,8 km/h (5 Bft) 94,34 %
05.10.2017 17:28 21,7 C 12,8 C 30 % 1005,4 hPa 0,0 l/m 20,3 km/h (4 Bft) W-SW 242 0 min 0,000 mm 0,0 UV-I 39 W/m 3,4 C 18,4 C 30,6 km/h (5 Bft) 95,45 %
05.10.2017 17:30 21,7 C 12,8 C 30 % 1005,4 hPa 0,0 l/m 26,7 km/h (4 Bft) W-SW 250 0 min 0,000 mm 0,0 UV-I 40 W/m 3,4 C 17,5 C 38,6 km/h (5 Bft) 97,56 %
05.10.2017 17:32 21,7 C 12,8 C 31 % 1005,4 hPa 0,0 l/m 22,6 km/h (4 Bft) W-SW 237 0 min 0,000 mm 0,0 UV-I 39 W/m 3,8 C 18,0 C 41,8 km/h (6 Bft) 98,21 %
05.10.2017 17:34 21,7 C 12,8 C 30 % 1005,4 hPa 0,0 l/m 21,7 km/h (4 Bft) W-SW 242 0 min 0,000 mm 0,0 UV-I 39 W/m 3,4 C 18,1 C 29,0 km/h (5 Bft) 95,83 %
05.10.2017 17:36 21,6 C 12,8 C 30 % 1005,4 hPa 0,0 l/m 17,4 km/h (3 Bft) W-SW 246 0 min 0,000 mm 0,0 UV-I 41 W/m 3,3 C 18,7 C 29,0 km/h (5 Bft) 96,88 %
05.10.2017 17:38 21,6 C 12,8 C 30 % 1005,3 hPa 0,0 l/m 25,9 km/h (4 Bft) W 259 0 min 0,000 mm 0,0 UV-I 46 W/m 3,3 C 17,4 C 40,2 km/h (6 Bft) 98,00 %
05.10.2017 17:40 21,6 C 12,8 C 30 % 1005,3 hPa 0,0 l/m 21,9 km/h (4 Bft) W-SW 241 0 min 0,000 mm 0,0 UV-I 46 W/m 3,3 C 18,0 C 32,2 km/h (5 Bft) 97,56 %
05.10.2017 17:42 21,6 C 12,8 C 30 % 1005,3 hPa 0,0 l/m 20,6 km/h (4 Bft) W 275 0 min 0,000 mm 0,0 UV-I 46 W/m 3,3 C 18,2 C 30,6 km/h (5 Bft) 98,11 %
05.10.2017 17:44 21,6 C 12,8 C 31 % 1005,4 hPa 0,0 l/m 22,7 km/h (4 Bft) W 260 0 min 0,000 mm 0,0 UV-I 34 W/m 3,7 C 17,9 C 30,6 km/h (5 Bft) 97,62 %
05.10.2017 17:46 21,5 C 12,8 C 31 % 1005,3 hPa 0,0 l/m 24,5 km/h (4 Bft) W 264 0 min 0,000 mm 0,0 UV-I 29 W/m 3,7 C 17,5 C 37,0 km/h (5 Bft) 96,00 %
05.10.2017 17:48 21,5 C 12,8 C 31 % 1005,3 hPa 0,0 l/m 22,1 km/h (4 Bft) W 259 0 min 0,000 mm 0,0 UV-I 28 W/m 3,7 C 17,8 C 30,6 km/h (5 Bft) 95,74 %
05.10.2017 17:50 21,4 C 12,8 C 32 % 1005,3 hPa 0,0 l/m 18,4 km/h (3 Bft) SW 233 0 min 0,000 mm 0,0 UV-I 30 W/m 4,0 C 18,3 C 40,2 km/h (6 Bft) 97,87 %
05.10.2017 17:52 21,4 C 12,8 C 31 % 1005,2 hPa 0,0 l/m 28,8 km/h (4 Bft) W 263 0 min 0,000 mm 0,0 UV-I 35 W/m 3,6 C 16,8 C 41,8 km/h (6 Bft) 97,87 %
05.10.2017 17:54 21,4 C 12,8 C 31 % 1005,4 hPa 0,0 l/m 23,8 km/h (4 Bft) W 265 0 min 0,000 mm 0,0 UV-I 31 W/m 3,6 C 17,4 C 41,8 km/h (6 Bft) 98,11 %
05.10.2017 17:56 21,4 C 12,8 C 31 % 1005,2 hPa 0,0 l/m 23,7 km/h (4 Bft) W 280 0 min 0,000 mm 0,0 UV-I 34 W/m 3,6 C 17,5 C 37,0 km/h (5 Bft) 97,37 %
05.10.2017 17:58 21,4 C 12,8 C 31 % 1005,3 hPa 0,0 l/m 19,9 km/h (4 Bft) W-SW 246 0 min 0,000 mm 0,0 UV-I 33 W/m 3,6 C 18,0 C 29,0 km/h (5 Bft) 98,00 %
05.10.2017 18:00 21,4 C 12,8 C 31 % 1005,3 hPa 0,0 l/m 25,1 km/h (4 Bft) W-SW 253 0 min 0,000 mm 0,0 UV-I 27 W/m 3,6 C 17,3 C 33,8 km/h (5 Bft) 97,73 %
05.10.2017 18:02 21,3 C 12,8 C 32 % 1005,3 hPa 0,0 l/m 22,0 km/h (4 Bft) W-SW 251 0 min 0,279 mm 0,0 UV-I 20 W/m 3,9 C 17,6 C 33,8 km/h (5 Bft) 97,87 %
05.10.2017 18:04 21,3 C 12,8 C 32 % 1005,4 hPa 0,0 l/m 19,2 km/h (3 Bft) W-SW 248 0 min 0,000 mm 0,0 UV-I 16 W/m 3,9 C 18,0 C 27,4 km/h (4 Bft) 97,87 %
05.10.2017 18:06 21,2 C 12,8 C 33 % 1005,3 hPa 0,0 l/m 20,8 km/h (4 Bft) SW 236 0 min 0,000 mm 0,0 UV-I 12 W/m 4,3 C 17,6 C 33,8 km/h (5 Bft) 96,23 %
05.10.2017 18:08 21,2 C 12,8 C 33 % 1005,3 hPa 0,0 l/m 20,8 km/h (4 Bft) W-SW 253 0 min 0,000 mm 0,0 UV-I 10 W/m 4,3 C 17,6 C 37,0 km/h (5 Bft) 97,37 %
05.10.2017 18:10 21,2 C 12,8 C 33 % 1005,4 hPa 0,0 l/m 18,5 km/h (3 Bft) W 275 0 min 0,000 mm 0,0 UV-I 7 W/m 4,3 C 18,0 C 25,7 km/h (4 Bft) 98,11 %
05.10.2017 18:12 21,1 C 12,8 C 33 % 1005,3 hPa 0,0 l/m 14,2 km/h (3 Bft) W-SW 250 0 min 0,000 mm 0,0 UV-I 5 W/m 4,2 C 18,8 C 20,9 km/h (4 Bft) 96,00 %
05.10.2017 18:14 21,1 C 12,8 C 34 % 1005,4 hPa 0,0 l/m 15,5 km/h (3 Bft) W-SW 246 0 min 0,000 mm 0,0 UV-I 5 W/m 4,6 C 18,5 C 25,7 km/h (4 Bft) 100,00 %
05.10.2017 18:16 20,9 C 12,8 C 39 % 1005,4 hPa 0,0 l/m 19,1 km/h (3 Bft) W-SW 245 0 min 0,000 mm 0,0 UV-I 5 W/m 6,4 C 17,5 C 29,0 km/h (5 Bft) 98,21 %
05.10.2017 18:18 20,7 C 12,8 C 39 % 1005,5 hPa 0,0 l/m 20,1 km/h (4 Bft) W-SW 253 0 min 0,000 mm 0,0 UV-I 5 W/m 6,2 C 17,1 C 30,6 km/h (5 Bft) 94,74 %
05.10.2017 18:20 20,4 C 12,8 C 39 % 1005,5 hPa 0,0 l/m 17,5 km/h (3 Bft) SW 232 0 min 0,000 mm 0,0 UV-I 5 W/m 6,0 C 17,2 C 24,1 km/h (4 Bft) 98,11 %
05.10.2017 18:22 20,2 C 12,8 C 40 % 1005,5 hPa 0,0 l/m 17,0 km/h (3 Bft) W 273 0 min 0,000 mm 0,0 UV-I 5 W/m 6,2 C 17,0 C 24,1 km/h (4 Bft) 100,00 %
05.10.2017 18:24 20,1 C 12,8 C 40 % 1005,5 hPa 0,0 l/m 13,2 km/h (3 Bft) SW 230 0 min 0,000 mm 0,0 UV-I 5 W/m 6,1 C 17,8 C 20,9 km/h (4 Bft) 100,00 %
05.10.2017 18:26 20,1 C 12,8 C 39 % 1005,4 hPa 0,0 l/m 19,0 km/h (3 Bft) W-SW 246 0 min 0,000 mm 0,0 UV-I 5 W/m 5,7 C 16,5 C 29,0 km/h (5 Bft) 96,61 %
05.10.2017 18:28 20,1 C 12,8 C 38 % 1005,5 hPa 0,0 l/m 26,8 km/h (4 Bft) W 275 0 min 0,000 mm 0,0 UV-I 5 W/m 5,3 C 15,3 C 45,1 km/h (6 Bft) 100,00 %
05.10.2017 18:30 20,2 C 12,8 C 39 % 1005,4 hPa 0,0 l/m 23,0 km/h (4 Bft) W-SW 256 0 min 0,000 mm 0,0 UV-I 2 W/m 5,8 C 16,0 C 35,4 km/h (5 Bft) 98,11 %
05.10.2017 18:32 20,3 C 12,8 C 39 % 1005,6 hPa 0,0 l/m 23,1 km/h (4 Bft) W 266 0 min 0,000 mm 0,0 UV-I 0 W/m 5,9 C 16,1 C 35,4 km/h (5 Bft) 97,37 %
05.10.2017 18:34 20,3 C 12,8 C 39 % 1005,7 hPa 0,0 l/m 20,7 km/h (4 Bft) W-SW 244 0 min 0,000 mm 0,0 UV-I 0 W/m 5,9 C 16,5 C 37,0 km/h (5 Bft) 100,00 %
05.10.2017 18:36 20,3 C 12,8 C 39 % 1005,7 hPa 0,0 l/m 21,9 km/h (4 Bft) W 267 0 min 0,000 mm 0,0 UV-I 0 W/m 5,9 C 16,3 C 38,6 km/h (5 Bft) 100,00 %
05.10.2017 18:38 20,3 C 12,8 C 39 % 1005,6 hPa 0,0 l/m 20,5 km/h (4 Bft) S-SW 199 0 min 0,000 mm 0,0 UV-I 0 W/m 5,9 C 16,5 C 33,8 km/h (5 Bft) 95,12 %
05.10.2017 18:40 20,3 C 12,8 C 39 % 1005,7 hPa 0,0 l/m 21,4 km/h (4 Bft) SW 228 0 min 0,000 mm 0,0 UV-I 0 W/m 5,9 C 16,3 C 30,6 km/h (5 Bft) 100,00 %
05.10.2017 18:42 20,3 C 12,8 C 39 % 1005,7 hPa 0,0 l/m 19,4 km/h (3 Bft) S-SW 208 0 min 0,000 mm 0,0 UV-I 0 W/m 5,9 C 16,7 C 30,6 km/h (5 Bft) 100,00 %
05.10.2017 18:44 20,2 C 12,8 C 39 % 1005,7 hPa 0,0 l/m 20,6 km/h (4 Bft) S-SW 201 0 min 0,000 mm 0,0 UV-I 0 W/m 5,8 C 16,4 C 43,5 km/h (6 Bft) 98,11 %
05.10.2017 18:46 20,2 C 12,8 C 39 % 1005,8 hPa 0,0 l/m 21,3 km/h (4 Bft) SW 226 0 min 0,000 mm 0,0 UV-I 0 W/m 5,8 C 16,2 C 32,2 km/h (5 Bft) 95,74 %
05.10.2017 18:48 20,2 C 12,8 C 39 % 1005,7 hPa 0,0 l/m 16,8 km/h (3 Bft) W 260 0 min 0,000 mm 0,0 UV-I 0 W/m 5,8 C 17,1 C 30,6 km/h (5 Bft) 100,00 %
05.10.2017 18:50 20,1 C 12,8 C 39 % 1005,7 hPa 0,0 l/m 19,4 km/h (3 Bft) W 260 0 min 0,000 mm 0,0 UV-I 0 W/m 5,7 C 16,4 C 43,5 km/h (6 Bft) 97,87 %
05.10.2017 18:52 20,1 C 12,8 C 39 % 1005,7 hPa 0,0 l/m 26,3 km/h (4 Bft) W-NW 290 0 min 0,000 mm 0,0 UV-I 0 W/m 5,7 C 15,3 C 45,1 km/h (6 Bft) 100,00 %
05.10.2017 18:54 20,1 C 12,8 C 39 % 1005,9 hPa 0,0 l/m 25,2 km/h (4 Bft) W-NW 289 0 min 0,000 mm 0,0 UV-I 0 W/m 5,7 C 15,5 C 45,1 km/h (6 Bft) 96,61 %
05.10.2017 18:56 20,1 C 12,8 C 39 % 1005,8 hPa 0,0 l/m 21,5 km/h (4 Bft) W-SW 249 0 min 0,000 mm 0,0 UV-I 0 W/m 5,7 C 16,1 C 33,8 km/h (5 Bft) 97,37 %
05.10.2017 18:58 20,1 C 12,8 C 39 % 1005,9 hPa 0,0 l/m 26,3 km/h (4 Bft) W-SW 242 0 min 0,000 mm 0,0 UV-I 0 W/m 5,7 C 15,3 C 38,6 km/h (5 Bft) 96,23 %
05.10.2017 19:00 20,1 C 12,8 C 39 % 1005,9 hPa 0,0 l/m 26,8 km/h (4 Bft) W 281 0 min 0,178 mm 0,0 UV-I 0 W/m 5,7 C 15,3 C 40,2 km/h (6 Bft) 97,44 %
05.10.2017 19:02 20,1 C 12,8 C 39 % 1006,0 hPa 0,0 l/m 24,9 km/h (4 Bft) W-SW 238 0 min 0,000 mm 0,0 UV-I 0 W/m 5,7 C 15,5 C 40,2 km/h (6 Bft) 94,55 %
05.10.2017 19:04 20,0 C 12,8 C 40 % 1006,0 hPa 0,0 l/m 25,3 km/h (4 Bft) W-SW 252 0 min 0,000 mm 0,0 UV-I 0 W/m 6,0 C 15,3 C 35,4 km/h (5 Bft) 98,00 %
05.10.2017 19:06 20,0 C 12,8 C 39 % 1006,0 hPa 0,0 l/m 24,8 km/h (4 Bft) W-SW 238 0 min 0,000 mm 0,0 UV-I 0 W/m 5,6 C 15,4 C 46,7 km/h (6 Bft) 97,62 %
05.10.2017 19:08 20,0 C 12,8 C 39 % 1006,1 hPa 0,0 l/m 32,1 km/h (5 Bft) W-SW 253 0 min 0,000 mm 0,0 UV-I 0 W/m 5,6 C 14,5 C 48,3 km/h (6 Bft) 94,00 %
05.10.2017 19:10 19,9 C 12,8 C 40 % 1006,2 hPa 0,0 l/m 12,4 km/h (3 Bft) W-NW 302 0 min 0,000 mm 0,0 UV-I 0 W/m 5,9 C 17,8 C 24,1 km/h (4 Bft) 97,56 %
05.10.2017 19:12 19,8 C 12,8 C 41 % 1006,4 hPa 0,0 l/m 14,8 km/h (3 Bft) W 261 0 min 0,000 mm 0,0 UV-I 0 W/m 6,2 C 17,1 C 27,4 km/h (4 Bft) 96,23 %
05.10.2017 19:14 19,8 C 12,8 C 40 % 1006,5 hPa 0,0 l/m 18,2 km/h (3 Bft) W 271 0 min 0,000 mm 0,0 UV-I 0 W/m 5,8 C 16,3 C 27,4 km/h (4 Bft) 97,87 %
05.10.2017 19:16 19,7 C 12,8 C 41 % 1006,5 hPa 0,0 l/m 18,8 km/h (3 Bft) W-SW 253 0 min 0,000 mm 0,0 UV-I 0 W/m 6,1 C 16,1 C 40,2 km/h (6 Bft) 97,96 %
05.10.2017 19:18 19,6 C 12,8 C 40 % 1006,5 hPa 0,0 l/m 21,7 km/h (4 Bft) W 261 0 min 0,000 mm 0,0 UV-I 0 W/m 5,6 C 15,4 C 32,2 km/h (5 Bft) 97,37 %
05.10.2017 19:20 19,5 C 12,8 C 41 % 1006,7 hPa 0,0 l/m 20,7 km/h (4 Bft) W-SW 251 0 min 0,000 mm 0,0 UV-I 0 W/m 5,9 C 15,4 C 33,8 km/h (5 Bft) 95,74 %
05.10.2017 19:22 19,3 C 12,8 C 42 % 1007,0 hPa 0,0 l/m 20,0 km/h (4 Bft) W 260 0 min 0,000 mm 0,0 UV-I 0 W/m 6,1 C 15,3 C 53,1 km/h (7 Bft) 98,11 %
05.10.2017 19:24 19,2 C 12,8 C 44 % 1007,0 hPa 0,0 l/m 10,9 km/h (2 Bft) W 277 0 min 0,000 mm 0,0 UV-I 0 W/m 6,7 C 17,5 C 25,7 km/h (4 Bft) 95,12 %
05.10.2017 19:26 18,9 C 12,8 C 48 % 1007,3 hPa 0,0 l/m 14,5 km/h (3 Bft) NW 304 0 min 0,000 mm 0,0 UV-I 0 W/m 7,6 C 16,0 C 33,8 km/h (5 Bft) 98,11 %
05.10.2017 19:28 18,4 C 12,8 C 49 % 1007,2 hPa 0,0 l/m 10,5 km/h (2 Bft) W 269 0 min 0,000 mm 0,0 UV-I 0 W/m 7,5 C 16,7 C 20,9 km/h (4 Bft) 100,00 %
05.10.2017 19:30 18,1 C 12,8 C 50 % 1007,5 hPa 0,0 l/m 11,6 km/h (2 Bft) W-NW 289 0 min 0,000 mm 0,0 UV-I 0 W/m 7,5 C 16,0 C 30,6 km/h (5 Bft) 97,87 %
05.10.2017 19:32 17,7 C 12,8 C 52 % 1007,6 hPa 0,0 l/m 10,5 km/h (2 Bft) NW 306 0 min 0,000 mm 0,0 UV-I 0 W/m 7,7 C 15,9 C 29,0 km/h (5 Bft) 100,00 %
05.10.2017 19:34 17,4 C 12,8 C 52 % 1007,6 hPa 0,0 l/m 13,3 km/h (3 Bft) S-SW 200 0 min 0,000 mm 0,0 UV-I 0 W/m 7,4 C 14,6 C 22,5 km/h (4 Bft) 100,00 %
05.10.2017 19:36 17,2 C 12,8 C 54 % 1007,7 hPa 0,0 l/m 8,0 km/h (2 Bft) NW 317 0 min 0,000 mm 0,0 UV-I 0 W/m 7,8 C 16,4 C 25,7 km/h (4 Bft) 98,00 %
05.10.2017 19:38 17,1 C 12,8 C 54 % 1007,7 hPa 0,0 l/m 18,6 km/h (3 Bft) N-NW 331 0 min 0,000 mm 0,0 UV-I 0 W/m 7,7 C 12,8 C 38,6 km/h (5 Bft) 100,00 %
05.10.2017 19:40 16,9 C 12,8 C 54 % 1007,8 hPa 0,0 l/m 15,0 km/h (3 Bft) W 259 0 min 0,000 mm 0,0 UV-I 0 W/m 7,5 C 13,5 C 29,0 km/h (5 Bft) 97,62 %
05.10.2017 19:42 16,8 C 12,8 C 55 % 1007,9 hPa 0,0 l/m 13,7 km/h (3 Bft) N-NO 24 0 min 0,000 mm 0,0 UV-I 0 W/m 7,7 C 13,8 C 24,1 km/h (4 Bft) 98,11 %
05.10.2017 19:44 16,7 C 12,8 C 56 % 1007,9 hPa 0,0 l/m 16,4 km/h (3 Bft) W 260 0 min 0,000 mm 0,0 UV-I 0 W/m 7,9 C 12,9 C 32,2 km/h (5 Bft) 98,00 %
05.10.2017 19:46 16,6 C 12,8 C 57 % 1008,0 hPa 0,0 l/m 9,5 km/h (2 Bft) W 264 0 min 0,000 mm 0,0 UV-I 0 W/m 8,0 C 15,1 C 22,5 km/h (4 Bft) 100,00 %
05.10.2017 19:48 16,4 C 12,8 C 57 % 1008,1 hPa 0,0 l/m 16,4 km/h (3 Bft) W-SW 239 0 min 0,000 mm 0,0 UV-I 0 W/m 7,9 C 12,5 C 30,6 km/h (5 Bft) 98,21 %
05.10.2017 19:50 16,3 C 12,8 C 59 % 1008,2 hPa 0,0 l/m 11,4 km/h (2 Bft) W-SW 257 0 min 0,000 mm 0,0 UV-I 0 W/m 8,3 C 14,0 C 19,3 km/h (3 Bft) 100,00 %
05.10.2017 19:52 16,2 C 12,8 C 60 % 1008,3 hPa 0,0 l/m 14,2 km/h (3 Bft) NO 55 0 min 0,000 mm 0,0 UV-I 0 W/m 8,4 C 12,9 C 22,5 km/h (4 Bft) 100,00 %
05.10.2017 19:54 16,1 C 12,8 C 61 % 1008,4 hPa 0,0 l/m 15,1 km/h (3 Bft) W 272 0 min 0,000 mm 0,0 UV-I 0 W/m 8,6 C 12,5 C 22,5 km/h (4 Bft) 100,00 %
05.10.2017 19:56 15,9 C 12,8 C 63 % 1008,6 hPa 0,0 l/m 18,1 km/h (3 Bft) W-SW 255 0 min 0,000 mm 0,0 UV-I 0 W/m 8,9 C 11,4 C 33,8 km/h (5 Bft) 100,00 %
05.10.2017 19:58 15,7 C 12,8 C 64 % 1008,6 hPa 0,0 l/m 17,0 km/h (3 Bft) W-SW 248 0 min 0,000 mm 0,0 UV-I 0 W/m 8,9 C 11,4 C 32,2 km/h (5 Bft) 100,00 %
05.10.2017 20:00 15,6 C 12,8 C 66 % 1008,7 hPa 0,0 l/m 10,6 km/h (2 Bft) W-SW 248 0 min 0,000 mm 0,0 UV-I 0 W/m 9,3 C 13,5 C 25,7 km/h (4 Bft) 97,14 %
05.10.2017 20:02 15,3 C 12,8 C 67 % 1008,8 hPa 0,0 l/m 16,5 km/h (3 Bft) W-NW 294 0 min 0,127 mm 0,0 UV-I 0 W/m 9,2 C 11,1 C 32,2 km/h (5 Bft) 100,00 %
05.10.2017 20:04 15,2 C 12,8 C 68 % 1008,8 hPa 0,0 l/m 15,2 km/h (3 Bft) W 271 0 min 0,000 mm 0,0 UV-I 0 W/m 9,3 C 11,4 C 30,6 km/h (5 Bft) 100,00 %
05.10.2017 20:06 15,0 C 12,8 C 69 % 1008,7 hPa 0,0 l/m 10,2 km/h (2 Bft) N-NW 343 0 min 0,000 mm 0,0 UV-I 0 W/m 9,4 C 13,0 C 24,1 km/h (4 Bft) 100,00 %
05.10.2017 20:08 14,8 C 12,8 C 71 % 1008,7 hPa 0,0 l/m 8,2 km/h (2 Bft) W-SW 246 0 min 0,000 mm 0,0 UV-I 0 W/m 9,6 C 13,8 C 20,9 km/h (4 Bft) 100,00 %
05.10.2017 20:10 14,6 C 12,8 C 72 % 1008,8 hPa 0,0 l/m 12,8 km/h (3 Bft) SW 228 0 min 0,000 mm 0,0 UV-I 0 W/m 9,6 C 11,5 C 20,9 km/h (4 Bft) 97,56 %
05.10.2017 20:12 14,6 C 12,8 C 71 % 1009,0 hPa 0,0 l/m 10,0 km/h (2 Bft) W-NW 291 0 min 0,000 mm 0,0 UV-I 0 W/m 9,4 C 12,7 C 22,5 km/h (4 Bft) 98,00 %
05.10.2017 20:14 14,6 C 12,8 C 71 % 1009,0 hPa 0,0 l/m 15,2 km/h (3 Bft) W-SW 250 0 min 0,000 mm 0,0 UV-I 0 W/m 9,4 C 10,6 C 27,4 km/h (4 Bft) 98,00 %
05.10.2017 20:16 14,6 C 12,8 C 72 % 1009,1 hPa 0,0 l/m 13,7 km/h (3 Bft) W-SW 238 0 min 0,000 mm 0,0 UV-I 0 W/m 9,6 C 11,2 C 22,5 km/h (4 Bft) 100,00 %
05.10.2017 20:18 14,6 C 12,8 C 71 % 1009,3 hPa 0,2 l/m 23,8 km/h (4 Bft) W-SW 253 0 min 0,000 mm 0,0 UV-I 0 W/m 9,4 C 8,3 C 40,2 km/h (6 Bft) 100,00 %
05.10.2017 20:20 14,7 C 12,8 C 72 % 1009,3 hPa 0,0 l/m 16,5 km/h (3 Bft) W 269 0 min 0,000 mm 0,0 UV-I 0 W/m 9,7 C 10,3 C 30,6 km/h (5 Bft) 100,00 %
05.10.2017 20:22 14,7 C 12,8 C 72 % 1009,2 hPa 0,0 l/m 17,2 km/h (3 Bft) W-SW 252 0 min 0,000 mm 0,0 UV-I 0 W/m 9,7 C 10,1 C 33,8 km/h (5 Bft) 100,00 %
05.10.2017 20:24 14,6 C 12,8 C 73 % 1009,3 hPa 0,0 l/m 21,7 km/h (4 Bft) W 267 0 min 0,000 mm 0,0 UV-I 0 W/m 9,8 C 8,8 C 49,9 km/h (6 Bft) 100,00 %
05.10.2017 20:26 14,6 C 12,8 C 74 % 1009,4 hPa 0,0 l/m 17,5 km/h (3 Bft) N-NW 331 0 min 0,000 mm 0,0 UV-I 0 W/m 10,0 C 9,9 C 29,0 km/h (5 Bft) 100,00 %
05.10.2017 20:28 14,5 C 12,8 C 75 % 1009,3 hPa 0,0 l/m 19,5 km/h (3 Bft) W-NW 290 0 min 0,000 mm 0,0 UV-I 0 W/m 10,1 C 9,2 C 38,6 km/h (5 Bft) 100,00 %
05.10.2017 20:30 14,4 C 12,8 C 76 % 1009,4 hPa 0,0 l/m 16,7 km/h (3 Bft) W 275 0 min 0,000 mm 0,0 UV-I 0 W/m 10,2 C 9,9 C 33,8 km/h (5 Bft) 100,00 %
05.10.2017 20:32 14,3 C 12,8 C 76 % 1009,3 hPa 0,0 l/m 20,9 km/h (4 Bft) W 265 0 min 0,000 mm 0,0 UV-I 0 W/m 10,1 C 8,6 C 40,2 km/h (6 Bft) 100,00 %
05.10.2017 20:34 14,2 C 12,8 C 77 % 1009,5 hPa 0,0 l/m 19,3 km/h (3 Bft) SW 236 0 min 0,000 mm 0,0 UV-I 0 W/m 10,2 C 8,9 C 33,8 km/h (5 Bft) 100,00 %
05.10.2017 20:36 14,2 C 12,8 C 78 % 1009,4 hPa 0,0 l/m 15,3 km/h (3 Bft) S-SW 208 0 min 0,000 mm 0,0 UV-I 0 W/m 10,4 C 10,1 C 22,5 km/h (4 Bft) 97,73 %
05.10.2017 20:38 14,1 C 12,8 C 78 % 1009,5 hPa 0,0 l/m 18,3 km/h (3 Bft) W 277 0 min 0,000 mm 0,0 UV-I 0 W/m 10,3 C 9,1 C 38,6 km/h (5 Bft) 100,00 %
05.10.2017 20:40 14,1 C 12,8 C 78 % 1009,5 hPa 0,0 l/m 17,7 km/h (3 Bft) W-SW 242 0 min 0,000 mm 0,0 UV-I 0 W/m 10,3 C 9,2 C 24,1 km/h (4 Bft) 100,00 %
05.10.2017 20:43 14,0 C 12,8 C 79 % 1009,5 hPa 0,0 l/m 17,1 km/h (3 Bft) W-SW 250 0 min 0,000 mm 0,0 UV-I 0 W/m 10,4 C 9,3 C 27,4 km/h (4 Bft) 100,00 %
05.10.2017 20:44 13,9 C 12,8 C 79 % 1009,7 hPa 0,0 l/m 16,2 km/h (3 Bft) W 265 0 min 0,000 mm 0,0 UV-I 0 W/m 10,3 C 9,5 C 22,5 km/h (4 Bft) 100,00 %
05.10.2017 20:46 13,9 C 12,8 C 80 % 1009,6 hPa 0,0 l/m 22,4 km/h (4 Bft) W 265 0 min 0,000 mm 0,0 UV-I 0 W/m 10,5 C 7,7 C 33,8 km/h (5 Bft) 100,00 %
05.10.2017 20:48 13,8 C 12,8 C 81 % 1009,7 hPa 0,0 l/m 25,1 km/h (4 Bft) W 261 0 min 0,000 mm 0,0 UV-I 0 W/m 10,6 C 7,0 C 43,5 km/h (6 Bft) 98,11 %
05.10.2017 20:50 13,7 C 12,8 C 82 % 1009,8 hPa 0,0 l/m 19,1 km/h (3 Bft) W 277 0 min 0,000 mm 0,0 UV-I 0 W/m 10,7 C 8,3 C 32,2 km/h (5 Bft) 100,00 %
05.10.2017 20:52 13,6 C 12,8 C 83 % 1009,7 hPa 0,2 l/m 19,8 km/h (3 Bft) W-SW 254 0 min 0,000 mm 0,0 UV-I 0 W/m 10,8 C 8,0 C 38,6 km/h (5 Bft) 100,00 %
05.10.2017 20:54 13,5 C 12,8 C 84 % 1009,6 hPa 0,0 l/m 27,0 km/h (4 Bft) W 281 0 min 0,000 mm 0,0 UV-I 0 W/m 10,8 C 6,2 C 45,1 km/h (6 Bft) 96,30 %
05.10.2017 20:56 13,3 C 12,8 C 85 % 1009,7 hPa 0,0 l/m 18,2 km/h (3 Bft) SW 218 0 min 0,000 mm 0,0 UV-I 0 W/m 10,8 C 8,1 C 25,7 km/h (4 Bft) 97,01 %
05.10.2017 20:58 13,2 C 12,8 C 85 % 1009,8 hPa 0,0 l/m 19,5 km/h (3 Bft) W 260 0 min 0,000 mm 0,0 UV-I 0 W/m 10,7 C 7,6 C 32,2 km/h (5 Bft) 95,24 %
05.10.2017 21:00 13,1 C 12,8 C 86 % 1009,8 hPa 0,2 l/m 24,4 km/h (4 Bft) W-SW 246 0 min 0,000 mm 0,0 UV-I 0 W/m 10,8 C 6,2 C 38,6 km/h (5 Bft) 92,31 %
05.10.2017 21:02 13,0 C 12,8 C 87 % 1009,7 hPa 0,0 l/m 25,4 km/h (4 Bft) W-SW 249 0 min 0,051 mm 0,0 UV-I 0 W/m 10,9 C 5,8 C 41,8 km/h (6 Bft) 93,75 %
05.10.2017 21:04 12,9 C 12,8 C 87 % 1009,7 hPa 0,0 l/m 22,6 km/h (4 Bft) W-SW 247 0 min 0,000 mm 0,0 UV-I 0 W/m 10,8 C 6,3 C 38,6 km/h (5 Bft) 94,74 %
05.10.2017 21:06 12,9 C 12,8 C 87 % 1009,8 hPa 0,0 l/m 21,1 km/h (4 Bft) W-SW 258 0 min 0,000 mm 0,0 UV-I 0 W/m 10,8 C 6,7 C 37,0 km/h (5 Bft) 96,23 %
05.10.2017 21:08 12,8 C 12,8 C 88 % 1009,7 hPa 0,0 l/m 25,9 km/h (4 Bft) W-SW 253 0 min 0,000 mm 0,0 UV-I 0 W/m 10,9 C 5,4 C 41,8 km/h (6 Bft) 95,12 %
05.10.2017 21:10 12,8 C 12,8 C 88 % 1009,8 hPa 0,0 l/m 17,7 km/h (3 Bft) W 259 0 min 0,000 mm 0,0 UV-I 0 W/m 10,9 C 7,6 C 27,4 km/h (4 Bft) 96,23 %
05.10.2017 21:12 12,8 C 12,8 C 88 % 1009,9 hPa 0,0 l/m 20,9 km/h (4 Bft) W-SW 250 0 min 0,000 mm 0,0 UV-I 0 W/m 10,9 C 6,7 C 41,8 km/h (6 Bft) 91,67 %
05.10.2017 21:14 12,8 C 12,8 C 88 % 1009,9 hPa 0,0 l/m 19,1 km/h (3 Bft) W-NW 291 0 min 0,000 mm 0,0 UV-I 0 W/m 10,9 C 7,2 C 32,2 km/h (5 Bft) 94,00 %
05.10.2017 21:16 12,8 C 12,8 C 88 % 1010,0 hPa 0,0 l/m 19,0 km/h (3 Bft) W 260 0 min 0,000 mm 0,0 UV-I 0 W/m 10,9 C 7,2 C 27,4 km/h (4 Bft) 95,74 %
05.10.2017 21:18 12,7 C 12,8 C 89 % 1010,0 hPa 0,0 l/m 16,8 km/h (3 Bft) W 281 0 min 0,000 mm 0,0 UV-I 0 W/m 10,9 C 7,8 C 25,7 km/h (4 Bft) 94,74 %
05.10.2017 21:20 12,7 C 12,8 C 89 % 1010,1 hPa 0,2 l/m 15,4 km/h (3 Bft) W-SW 251 0 min 0,000 mm 0,0 UV-I 0 W/m 10,9 C 8,3 C 25,7 km/h (4 Bft) 95,45 %
05.10.2017 21:22 12,7 C 12,8 C 89 % 1010,0 hPa 0,0 l/m 20,1 km/h (4 Bft) W 260 0 min 0,000 mm 0,0 UV-I 0 W/m 10,9 C 6,7 C 30,6 km/h (5 Bft) 96,43 %
05.10.2017 21:24 12,7 C 12,8 C 89 % 1010,0 hPa 0,0 l/m 17,8 km/h (3 Bft) W-SW 254 0 min 0,000 mm 0,0 UV-I 0 W/m 10,9 C 7,4 C 29,0 km/h (5 Bft) 94,74 %
05.10.2017 21:26 12,6 C 12,8 C 90 % 1010,1 hPa 0,2 l/m 16,9 km/h (3 Bft) W-SW 252 0 min 0,000 mm 0,0 UV-I 0 W/m 11,0 C 7,6 C 25,7 km/h (4 Bft) 92,00 %
05.10.2017 21:28 12,6 C 12,8 C 90 % 1010,1 hPa 0,0 l/m 16,4 km/h (3 Bft) SW 233 0 min 0,000 mm 0,0 UV-I 0 W/m 11,0 C 7,8 C 22,5 km/h (4 Bft) 95,74 %
05.10.2017 21:30 12,6 C 12,8 C 90 % 1010,1 hPa 0,0 l/m 18,8 km/h (3 Bft) W 261 0 min 0,000 mm 0,0 UV-I 0 W/m 11,0 C 7,0 C 24,1 km/h (4 Bft) 97,87 %
05.10.2017 21:32 12,5 C 12,8 C 90 % 1010,1 hPa 0,0 l/m 17,4 km/h (3 Bft) W 263 0 min 0,000 mm 0,0 UV-I 0 W/m 10,9 C 7,3 C 29,0 km/h (5 Bft) 98,00 %
05.10.2017 21:34 12,5 C 12,8 C 91 % 1010,1 hPa 0,2 l/m 20,8 km/h (4 Bft) SW 215 0 min 0,000 mm 0,0 UV-I 0 W/m 11,1 C 6,3 C 27,4 km/h (4 Bft) 97,87 %
05.10.2017 21:36 12,4 C 12,8 C 90 % 1010,2 hPa 0,0 l/m 18,9 km/h (3 Bft) W 263 0 min 0,000 mm 0,0 UV-I 0 W/m 10,8 C 6,7 C 32,2 km/h (5 Bft) 97,62 %
05.10.2017 21:38 12,4 C 12,8 C 91 % 1010,2 hPa 0,0 l/m 18,4 km/h (3 Bft) W-SW 253 0 min 0,000 mm 0,0 UV-I 0 W/m 11,0 C 6,9 C 30,6 km/h (5 Bft) 96,15 %
05.10.2017 21:40 12,4 C 12,8 C 91 % 1010,2 hPa 0,2 l/m 16,7 km/h (3 Bft) W-SW 252 0 min 0,000 mm 0,0 UV-I 0 W/m 11,0 C 7,4 C 22,5 km/h (4 Bft) 95,74 %
05.10.2017 21:42 12,4 C 12,8 C 91 % 1010,2 hPa 0,0 l/m 16,6 km/h (3 Bft) W-SW 257 0 min 0,000 mm 0,0 UV-I 0 W/m 11,0 C 7,5 C 32,2 km/h (5 Bft) 97,92 %
05.10.2017 21:44 12,3 C 12,8 C 91 % 1010,2 hPa 0,2 l/m 16,5 km/h (3 Bft) W 280 0 min 0,000 mm 0,0 UV-I 0 W/m 10,9 C 7,4 C 29,0 km/h (5 Bft) 98,00 %
05.10.2017 21:46 12,3 C 12,8 C 91 % 1010,3 hPa 0,0 l/m 19,7 km/h (3 Bft) W-SW 241 0 min 0,000 mm 0,0 UV-I 0 W/m 10,9 C 6,3 C 29,0 km/h (5 Bft) 97,37 %
05.10.2017 21:48 12,3 C 12,8 C 91 % 1010,5 hPa 0,2 l/m 18,6 km/h (3 Bft) NW 308 0 min 0,000 mm 0,0 UV-I 0 W/m 10,9 C 6,7 C 32,2 km/h (5 Bft) 97,56 %
05.10.2017 21:50 12,2 C 12,8 C 91 % 1010,5 hPa 0,0 l/m 19,6 km/h (3 Bft) W-SW 248 0 min 0,000 mm 0,0 UV-I 0 W/m 10,8 C 6,2 C 30,6 km/h (5 Bft) 98,11 %
05.10.2017 21:52 12,1 C 12,8 C 90 % 1010,5 hPa 0,0 l/m 19,0 km/h (3 Bft) SW 224 0 min 0,000 mm 0,0 UV-I 0 W/m 10,5 C 6,3 C 29,0 km/h (5 Bft) 97,56 %
05.10.2017 21:54 11,9 C 12,8 C 90 % 1010,5 hPa 0,0 l/m 17,2 km/h (3 Bft) W-SW 258 0 min 0,000 mm 0,0 UV-I 0 W/m 10,3 C 6,6 C 30,6 km/h (5 Bft) 98,31 %
05.10.2017 21:56 11,9 C 12,8 C 90 % 1010,6 hPa 0,0 l/m 14,5 km/h (3 Bft) W-NW 290 0 min 0,000 mm 0,0 UV-I 0 W/m 10,3 C 7,6 C 22,5 km/h (4 Bft) 97,37 %
05.10.2017 21:58 11,8 C 12,8 C 90 % 1010,6 hPa 0,0 l/m 14,8 km/h (3 Bft) W-SW 246 0 min 0,000 mm 0,0 UV-I 0 W/m 10,2 C 7,4 C 24,1 km/h (4 Bft) 98,21 %
05.10.2017 22:00 11,7 C 12,8 C 89 % 1010,6 hPa 0,0 l/m 16,0 km/h (3 Bft) W-SW 258 0 min 0,025 mm 0,0 UV-I 0 W/m 9,9 C 6,8 C 29,0 km/h (5 Bft) 97,73 %
05.10.2017 22:02 11,7 C 12,8 C 89 % 1010,6 hPa 0,2 l/m 17,5 km/h (3 Bft) W-SW 244 0 min 0,000 mm 0,0 UV-I 0 W/m 9,9 C 6,3 C 27,4 km/h (4 Bft) 97,56 %
05.10.2017 22:04 11,6 C 12,8 C 88 % 1010,7 hPa 0,0 l/m 22,5 km/h (4 Bft) W-SW 242 0 min 0,000 mm 0,0 UV-I 0 W/m 9,7 C 4,6 C 37,0 km/h (5 Bft) 98,00 %
05.10.2017 22:06 11,4 C 12,8 C 87 % 1010,6 hPa 0,0 l/m 17,8 km/h (3 Bft) W-SW 240 0 min 0,000 mm 0,0 UV-I 0 W/m 9,3 C 5,8 C 27,4 km/h (4 Bft) 98,11 %
05.10.2017 22:08 11,3 C 12,8 C 87 % 1010,7 hPa 0,2 l/m 15,7 km/h (3 Bft) S-SW 212 0 min 0,000 mm 0,0 UV-I 0 W/m 9,2 C 6,4 C 32,2 km/h (5 Bft) 100,00 %
05.10.2017 22:10 11,2 C 12,8 C 86 % 1010,7 hPa 0,0 l/m 22,6 km/h (4 Bft) W 259 0 min 0,000 mm 0,0 UV-I 0 W/m 8,9 C 4,1 C 38,6 km/h (5 Bft) 100,00 %
05.10.2017 22:12 11,0 C 12,8 C 86 % 1010,6 hPa 0,0 l/m 19,5 km/h (3 Bft) S-SW 204 0 min 0,000 mm 0,0 UV-I 0 W/m 8,7 C 4,7 C 29,0 km/h (5 Bft) 100,00 %
05.10.2017 22:14 10,9 C 12,8 C 86 % 1010,7 hPa 0,0 l/m 19,0 km/h (3 Bft) W 270 0 min 0,000 mm 0,0 UV-I 0 W/m 8,7 C 4,8 C 30,6 km/h (5 Bft) 97,78 %
05.10.2017 22:16 10,8 C 12,8 C 87 % 1010,7 hPa 0,2 l/m 17,1 km/h (3 Bft) W-SW 250 0 min 0,000 mm 0,0 UV-I 0 W/m 8,7 C 5,3 C 25,7 km/h (4 Bft) 100,00 %
05.10.2017 22:18 10,7 C 12,8 C 87 % 1010,9 hPa 0,0 l/m 14,1 km/h (3 Bft) W 265 0 min 0,000 mm 0,0 UV-I 0 W/m 8,6 C 6,4 C 20,9 km/h (4 Bft) 100,00 %
05.10.2017 22:20 10,6 C 12,8 C 88 % 1010,9 hPa 0,2 l/m 15,2 km/h (3 Bft) SW 235 0 min 0,000 mm 0,0 UV-I 0 W/m 8,7 C 5,8 C 24,1 km/h (4 Bft) 97,73 %
05.10.2017 22:22 10,6 C 12,8 C 88 % 1010,9 hPa 0,0 l/m 18,1 km/h (3 Bft) W 279 0 min 0,000 mm 0,0 UV-I 0 W/m 8,7 C 4,7 C 29,0 km/h (5 Bft) 100,00 %
05.10.2017 22:24 10,4 C 12,8 C 89 % 1010,9 hPa 0,0 l/m 13,8 km/h (3 Bft) W-SW 257 0 min 0,000 mm 0,0 UV-I 0 W/m 8,7 C 6,1 C 20,9 km/h (4 Bft) 100,00 %
05.10.2017 22:26 10,4 C 12,8 C 89 % 1010,9 hPa 0,0 l/m 16,1 km/h (3 Bft) W 262 0 min 0,000 mm 0,0 UV-I 0 W/m 8,7 C 5,2 C 24,1 km/h (4 Bft) 94,74 %
05.10.2017 22:28 10,4 C 12,8 C 89 % 1011,0 hPa 0,0 l/m 18,8 km/h (3 Bft) W 265 0 min 0,000 mm 0,0 UV-I 0 W/m 8,7 C 4,2 C 27,4 km/h (4 Bft) 100,00 %
05.10.2017 22:30 10,4 C 12,8 C 90 % 1011,1 hPa 0,0 l/m 11,0 km/h (2 Bft) W-SW 257 0 min 0,000 mm 0,0 UV-I 0 W/m 8,8 C 7,5 C 17,7 km/h (3 Bft) 100,00 %
05.10.2017 22:32 10,3 C 12,8 C 90 % 1011,1 hPa 0,2 l/m 15,1 km/h (3 Bft) W-SW 252 0 min 0,000 mm 0,0 UV-I 0 W/m 8,7 C 5,5 C 27,4 km/h (4 Bft) 100,00 %
05.10.2017 22:34 10,3 C 12,8 C 90 % 1011,1 hPa 0,0 l/m 17,8 km/h (3 Bft) W-SW 251 0 min 0,000 mm 0,0 UV-I 0 W/m 8,7 C 4,4 C 27,4 km/h (4 Bft) 100,00 %
05.10.2017 22:36 10,3 C 12,8 C 90 % 1011,2 hPa 0,0 l/m 19,1 km/h (3 Bft) SW 234 0 min 0,000 mm 0,0 UV-I 0 W/m 8,7 C 4,0 C 29,0 km/h (5 Bft) 100,00 %
05.10.2017 22:38 10,3 C 12,8 C 90 % 1011,2 hPa 0,0 l/m 17,6 km/h (3 Bft) W 259 0 min 0,000 mm 0,0 UV-I 0 W/m 8,7 C 4,5 C 25,7 km/h (4 Bft) 100,00 %
05.10.2017 22:40 10,3 C 12,8 C 90 % 1011,2 hPa 0,0 l/m 15,6 km/h (3 Bft) W 259 0 min 0,000 mm 0,0 UV-I 0 W/m 8,7 C 5,3 C 30,6 km/h (5 Bft) 100,00 %
05.10.2017 22:42 10,3 C 12,8 C 90 % 1011,2 hPa 0,2 l/m 18,2 km/h (3 Bft) W 275 0 min 0,000 mm 0,0 UV-I 0 W/m 8,7 C 4,3 C 25,7 km/h (4 Bft) 100,00 %
05.10.2017 22:44 10,3 C 12,8 C 90 % 1011,2 hPa 0,0 l/m 14,3 km/h (3 Bft) W 261 0 min 0,000 mm 0,0 UV-I 0 W/m 8,7 C 5,8 C 24,1 km/h (4 Bft) 97,87 %
05.10.2017 22:46 10,3 C 12,8 C 91 % 1011,3 hPa 0,0 l/m 13,5 km/h (3 Bft) W-SW 251 0 min 0,000 mm 0,0 UV-I 0 W/m 8,9 C 6,1 C 22,5 km/h (4 Bft) 98,11 %
05.10.2017 22:48 10,3 C 12,8 C 91 % 1011,3 hPa 0,0 l/m 17,9 km/h (3 Bft) W-SW 253 0 min 0,000 mm 0,0 UV-I 0 W/m 8,9 C 4,4 C 24,1 km/h (4 Bft) 97,37 %
05.10.2017 22:50 10,3 C 12,8 C 91 % 1011,2 hPa 0,0 l/m 15,4 km/h (3 Bft) SW 230 0 min 0,000 mm 0,0 UV-I 0 W/m 8,9 C 5,3 C 22,5 km/h (4 Bft) 100,00 %
05.10.2017 22:52 10,3 C 12,8 C 91 % 1011,3 hPa 0,0 l/m 17,8 km/h (3 Bft) W-SW 246 0 min 0,000 mm 0,0 UV-I 0 W/m 8,9 C 4,4 C 25,7 km/h (4 Bft) 100,00 %
05.10.2017 22:54 10,3 C 12,8 C 91 % 1011,4 hPa 0,2 l/m 15,8 km/h (3 Bft) W 281 0 min 0,000 mm 0,0 UV-I 0 W/m 8,9 C 5,2 C 20,9 km/h (4 Bft) 100,00 %
05.10.2017 22:56 10,3 C 12,8 C 91 % 1011,4 hPa 0,0 l/m 14,2 km/h (3 Bft) W-SW 258 0 min 0,000 mm 0,0 UV-I 0 W/m 8,9 C 5,8 C 22,5 km/h (4 Bft) 98,00 %
05.10.2017 22:58 10,3 C 12,8 C 91 % 1011,4 hPa 0,0 l/m 15,4 km/h (3 Bft) W-SW 254 0 min 0,000 mm 0,0 UV-I 0 W/m 8,9 C 5,3 C 27,4 km/h (4 Bft) 97,22 %
05.10.2017 23:00 10,3 C 12,8 C 91 % 1011,5 hPa 0,0 l/m 17,4 km/h (3 Bft) W-SW 240 0 min 0,000 mm 0,0 UV-I 0 W/m 8,9 C 4,6 C 30,6 km/h (5 Bft) 97,73 %
05.10.2017 23:02 10,3 C 12,8 C 91 % 1011,5 hPa 0,0 l/m 17,6 km/h (3 Bft) W-SW 245 0 min 0,025 mm 0,0 UV-I 0 W/m 8,9 C 4,5 C 25,7 km/h (4 Bft) 98,21 %
05.10.2017 23:04 10,3 C 12,8 C 91 % 1011,5 hPa 0,0 l/m 17,2 km/h (3 Bft) W-SW 250 0 min 0,000 mm 0,0 UV-I 0 W/m 8,9 C 4,6 C 27,4 km/h (4 Bft) 98,00 %
05.10.2017 23:06 10,3 C 12,8 C 91 % 1011,5 hPa 0,0 l/m 17,7 km/h (3 Bft) W 281 0 min 0,000 mm 0,0 UV-I 0 W/m 8,9 C 4,5 C 25,7 km/h (4 Bft) 97,73 %
05.10.2017 23:08 10,3 C 12,8 C 91 % 1011,5 hPa 0,0 l/m 13,6 km/h (3 Bft) W-SW 252 0 min 0,000 mm 0,0 UV-I 0 W/m 8,9 C 6,1 C 25,7 km/h (4 Bft) 96,00 %
05.10.2017 23:10 10,3 C 12,8 C 91 % 1011,5 hPa 0,2 l/m 14,9 km/h (3 Bft) W-SW 246 0 min 0,000 mm 0,0 UV-I 0 W/m 8,9 C 5,5 C 24,1 km/h (4 Bft) 97,37 %
05.10.2017 23:12 10,3 C 12,8 C 91 % 1011,7 hPa 0,0 l/m 17,1 km/h (3 Bft) W 260 0 min 0,000 mm 0,0 UV-I 0 W/m 8,9 C 4,7 C 29,0 km/h (5 Bft) 98,00 %
05.10.2017 23:14 10,3 C 12,8 C 91 % 1011,7 hPa 0,0 l/m 18,3 km/h (3 Bft) W-SW 248 0 min 0,000 mm 0,0 UV-I 0 W/m 8,9 C 4,2 C 27,4 km/h (4 Bft) 92,45 %
05.10.2017 23:16 10,3 C 12,8 C 91 % 1011,8 hPa 0,0 l/m 15,4 km/h (3 Bft) W 261 0 min 0,000 mm 0,0 UV-I 0 W/m 8,9 C 5,3 C 22,5 km/h (4 Bft) 97,56 %
05.10.2017 23:18 10,3 C 12,8 C 91 % 1011,9 hPa 0,0 l/m 16,3 km/h (3 Bft) SW 225 0 min 0,000 mm 0,0 UV-I 0 W/m 8,9 C 5,0 C 24,1 km/h (4 Bft) 98,00 %
05.10.2017 23:20 10,3 C 12,8 C 91 % 1011,9 hPa 0,0 l/m 14,1 km/h (3 Bft) W-SW 240 0 min 0,000 mm 0,0 UV-I 0 W/m 8,9 C 5,9 C 19,3 km/h (3 Bft) 97,56 %
05.10.2017 23:22 10,3 C 12,8 C 91 % 1011,9 hPa 0,0 l/m 15,3 km/h (3 Bft) SW 235 0 min 0,000 mm 0,0 UV-I 0 W/m 8,9 C 5,4 C 24,1 km/h (4 Bft) 98,00 %
05.10.2017 23:24 10,3 C 12,8 C 91 % 1012,0 hPa 0,0 l/m 15,9 km/h (3 Bft) W-SW 246 0 min 0,000 mm 0,0 UV-I 0 W/m 8,9 C 5,1 C 24,1 km/h (4 Bft) 97,87 %
05.10.2017 23:26 10,3 C 12,8 C 91 % 1012,1 hPa 0,0 l/m 15,9 km/h (3 Bft) SW 225 0 min 0,000 mm 0,0 UV-I 0 W/m 8,9 C 5,1 C 30,6 km/h (5 Bft) 96,23 %
05.10.2017 23:28 10,3 C 12,8 C 91 % 1012,3 hPa 0,0 l/m 15,2 km/h (3 Bft) SW 227 0 min 0,000 mm 0,0 UV-I 0 W/m 8,9 C 5,4 C 24,1 km/h (4 Bft) 96,30 %
05.10.2017 23:30 10,3 C 12,8 C 91 % 1012,4 hPa 0,0 l/m 15,4 km/h (3 Bft) W-SW 244 0 min 0,000 mm 0,0 UV-I 0 W/m 8,9 C 5,3 C 22,5 km/h (4 Bft) 94,34 %
05.10.2017 23:32 10,3 C 12,8 C 91 % 1012,4 hPa 0,0 l/m 17,8 km/h (3 Bft) W 268 0 min 0,000 mm 0,0 UV-I 0 W/m 8,9 C 4,4 C 25,7 km/h (4 Bft) 96,55 %
05.10.2017 23:34 10,3 C 12,8 C 91 % 1012,5 hPa 0,0 l/m 17,3 km/h (3 Bft) SW 231 0 min 0,000 mm 0,0 UV-I 0 W/m 8,9 C 4,6 C 24,1 km/h (4 Bft) 100,00 %
05.10.2017 23:36 10,3 C 12,8 C 91 % 1012,5 hPa 0,0 l/m 19,1 km/h (3 Bft) S-SW 213 0 min 0,000 mm 0,0 UV-I 0 W/m 8,9 C 4,0 C 27,4 km/h (4 Bft) 100,00 %
05.10.2017 23:38 10,3 C 12,8 C 91 % 1012,6 hPa 0,0 l/m 16,3 km/h (3 Bft) W-SW 246 0 min 0,000 mm 0,0 UV-I 0 W/m 8,9 C 5,0 C 25,7 km/h (4 Bft) 100,00 %
05.10.2017 23:40 10,3 C 12,8 C 91 % 1012,5 hPa 0,0 l/m 12,5 km/h (3 Bft) SW 226 0 min 0,000 mm 0,0 UV-I 0 W/m 8,9 C 6,6 C 16,1 km/h (3 Bft) 100,00 %
05.10.2017 23:42 10,2 C 12,8 C 92 % 1012,5 hPa 0,0 l/m 17,5 km/h (3 Bft) SW 231 0 min 0,000 mm 0,0 UV-I 0 W/m 9,0 C 4,4 C 27,4 km/h (4 Bft) 100,00 %
05.10.2017 23:44 10,2 C 12,8 C 92 % 1012,6 hPa 0,0 l/m 13,1 km/h (3 Bft) S-SW 196 0 min 0,000 mm 0,0 UV-I 0 W/m 9,0 C 6,2 C 22,5 km/h (4 Bft) 100,00 %
05.10.2017 23:46 10,2 C 12,8 C 92 % 1012,6 hPa 0,0 l/m 14,5 km/h (3 Bft) W-SW 253 0 min 0,000 mm 0,0 UV-I 0 W/m 9,0 C 5,6 C 20,9 km/h (4 Bft) 96,00 %
05.10.2017 23:48 10,2 C 12,8 C 92 % 1012,6 hPa 0,0 l/m 15,6 km/h (3 Bft) SW 217 0 min 0,000 mm 0,0 UV-I 0 W/m 9,0 C 5,1 C 20,9 km/h (4 Bft) 100,00 %
05.10.2017 23:50 10,2 C 12,8 C 92 % 1012,5 hPa 0,0 l/m 16,7 km/h (3 Bft) SW 222 0 min 0,000 mm 0,0 UV-I 0 W/m 9,0 C 4,7 C 25,7 km/h (4 Bft) 100,00 %
05.10.2017 23:52 10,2 C 12,8 C 92 % 1012,5 hPa 0,0 l/m 14,0 km/h (3 Bft) W-SW 238 0 min 0,000 mm 0,0 UV-I 0 W/m 9,0 C 5,8 C 19,3 km/h (3 Bft) 98,00 %
05.10.2017 23:54 10,2 C 12,8 C 92 % 1012,5 hPa 0,0 l/m 17,9 km/h (3 Bft) SW 232 0 min 0,000 mm 0,0 UV-I 0 W/m 9,0 C 4,3 C 25,7 km/h (4 Bft) 100,00 %
05.10.2017 23:56 10,2 C 12,8 C 92 % 1012,4 hPa 0,0 l/m 15,9 km/h (3 Bft) SW 220 0 min 0,000 mm 0,0 UV-I 0 W/m 9,0 C 5,0 C 20,9 km/h (4 Bft) 100,00 %
05.10.2017 23:58 10,2 C 12,8 C 92 % 1012,4 hPa 0,0 l/m 16,5 km/h (3 Bft) W-SW 255 0 min 0,000 mm 0,0 UV-I 0 W/m 9,0 C 4,8 C 24,1 km/h (4 Bft) 97,14 %
_ Min-Zeit 23:42 00:04 16:36 17:52 - 08:54 - - - - - - 16:40 22:36 07:04 21:12
Minimum _ 10,2 C 12,8 C 25 % 1005,2 hPa - 1,2 km/h (1 Bft) - - - - - - 1,7 C 4,0 C 3,2 km/h (1 Bft) 91,67 %
_ Max-Zeit 15:44 00:00 23:42 00:02 20:18 19:08 - - 13:33 15:02 13:28 13:26 21:34 15:36 16:40 00:54
Maximum _ 23,1 C 13,3 C 92 % 1020,3 hPa 0,2 l/m 32,1 km/h
W-SW (5 Bft)
- - 3 min 0,533 mm 3,2 UV-I 740 W/m 11,1 C 21,2 C 56,3 km/h
W-SW (7 Bft)
100,00 %
Durchschnitt _ 15,2 C 12,8 C 66 % 1012,5 hPa #3,4 l/m 13,9 km/h (3 Bft) W-SW - #3:36 h #3,327 mm 1,6 UV-I 210 W/m 7,6 C 12,4 C 22,1 km/h (4 Bft) 98,03 %